     2              OBSERVATION DATA    GPS                 RINEX VERSION / TYPE
teqc 2000Jul20 Karen Wendt 20040401 22:39:46UTC             PGM / RUN BY / DATE
                                                            COMMENT
L2: 1 -> 1; 150 -> 5; 250 -> 9                              COMMENT
L2: 1 -> 1; 150 -> 5; 250 -> 9                              COMMENT
L2: 1 -> 1; 150 -> 5; 250 -> 9                              COMMENT
L2: 1 -> 1; 150 -> 5; 250 -> 9                              COMMENT
L2: 1 -> 1; 150 -> 5; 250 -> 9                              COMMENT
L2: 1 -> 1; 150 -> 5; 250 -> 9                              COMMENT
L2: 1 -> 1; 150 -> 5; 250 -> 9                              COMMENT
L2: 1 -> 1; 150 -> 5; 250 -> 9                              COMMENT
L2: 1 -> 1; 150 -> 5; 250 -> 9                              COMMENT
L2: 1 -> 1; 150 -> 5; 250 -> 9                              COMMENT
L2: 1 -> 1; 150 -> 5; 250 -> 9                              COMMENT
L2: 1 -> 1; 150 -> 5; 250 -> 9                              COMMENT
L2: 1 -> 1; 150 -> 5; 250 -> 9                              COMMENT
L2: 1 -> 1; 150 -> 5; 250 -> 9                              COMMENT
Original Marker Name: 1009 1009_unstamped_USNavy_12thNavalDiCOMMENT
Campaign Name: USGS San Simeon 2003-2004                    COMMENT
4-Character Station Name: 1009                              COMMENT
6-Character Antenna Code: DMRCHT                            COMMENT
Vertical Measurement Point: BCR                             COMMENT
Vertical Offset to Rinex Ref. Point: 0.0348                 COMMENT
Radial Measurement Point: ECF                               COMMENT
Radial Offset to Rinex Ref. Point: 0.1897                   COMMENT
Antenna Height from Field Measurement: 1.3680 m             COMMENT
Additional Antenna Identification Info.:                    COMMENT
Turborogue and Ashtech Choke Ring                           COMMENT
Original XYZ: -2693928.8609 -4433500.3051 3698022.6231      COMMENT
New XYZ position is based on association with SCEC monument COMMENT
E1F0L8A0+0011. Position of that monument is believed to be  COMMENT
valid to within 1 m horizontally; vertical accuracy         COMMENT
should be no worse than 3-times this value.                 COMMENT
                                                            COMMENT
Revised Rinex header created by UCSD GPS archive for        COMMENT
GSAC on 20-Apr-2005 (2005:110) 16:30:03 GMT                 COMMENT
For assistance contact dagnew@ucsd.edu                      COMMENT
or anderson@python.ucsd.edu                                 COMMENT
                                                            COMMENT
1009 1009_UNSTAMPED_USNAVY_12THNAVALDIST.                   MARKER NAME
CHS US GEOLOGICAL SURVEY                                    OBSERVER / AGENCY
ZE120023204 ASHTECH UZ-12 ZE00                              REC # / TYPE / VERS
CR14244 DORNE-MARGOL. TYPE T                                ANT # / TYPE
 -2693942.0000 -4433464.0000  3698003.0000                  APPROX POSITION XYZ
        1.3200        0.0000        0.0000                  ANTENNA: DELTA H/E/N
     1     1     0                                          WAVELENGTH FACT L1/2
     5    C1    L1    L2    P1    P2                        # / TYPES OF OBSERV
    30                                                      INTERVAL
  2004     3    24     0     0    0.000000                  TIME OF FIRST OBS
  2004     3    24    23    59   30.000000                  TIME OF LAST OBS
                                                            END OF HEADER
 04  3 24  0  0  0.0000000  0  8G15G22G18G 9G31G21G14G 3
  20204584.644   -25721073.84844 -20029794.74042  20204586.625    20204584.850
  20610016.849   -26543871.61144 -20671048.80742  20610017.733    20610013.336
  21312671.364   -24185869.57043 -18783630.29942  21312673.637    21312670.803
  23806376.027    -2695969.18443  -2092262.57442  23806378.805    23806379.679
  23733170.647    -6677070.09743  -4902040.17942  23733172.879    23733172.738
  21588112.909   -20096294.31643 -15601546.55642  21588114.910    21588112.496
  21958831.435   -16085556.81843 -12516353.45142  21958834.352    21958833.780
  21624555.593   -19419419.99843 -14948734.61542  21624557.859    21624556.921
 04  3 24  0  0 30.0000000  0  8G15G22G18G 9G31G21G14G 3
  20200045.031   -25744929.66044 -20048383.66142  20200046.995    20200045.240
  20610321.660   -26542269.50744 -20669800.38942  20610322.579    20610318.163
  21322507.802   -24134178.84943 -18743351.82342  21322510.063    21322507.181
  23799390.048    -2732680.01543  -2120868.34742  23799392.729    23799393.850
  23718319.868    -6755111.17643  -4962851.32042  23718322.126    23718322.151
  21598980.903   -20039182.47143 -15557043.84942  21598982.931    21598980.552
  21941549.899   -16176371.31743 -12587117.84642  21941552.823    21941552.194
  21621405.000   -19435976.42243 -14961635.69542  21621407.280    21621406.215
 04  3 24  0  1  0.0000000  0  8G15G22G18G 9G31G21G14G 3
  20195568.818   -25768452.31344 -20066712.98242  20195570.728    20195569.016
  20610679.856   -26540387.02544 -20668333.50042  20610680.760    20610676.357
  21332378.007   -24082310.52543 -18702934.95642  21332380.273    21332377.392
  23792494.769    -2768914.87143  -2149103.19042  23792497.553    23792498.445
  23703545.209    -6832751.90643  -5023350.50142  23703547.412    23703547.722
  21609909.516   -19981752.42843 -15512293.20442  21609911.544    21609909.198
  21924334.503   -16266838.14243 -12657611.32742  21924337.410    21924336.767
  21618362.087   -19451967.39143 -14974096.16542  21618364.397    21618363.187
 04  3 24  0  1 30.0000000  0  8G15G22G18G 9G31G21G14G 3
  20191155.548   -25791643.85744 -20084784.29842  20191157.465    20191155.815
  20611090.459   -26538229.19544 -20666652.05142  20611091.376    20611086.934
  21342281.005   -24030269.96743 -18662383.88342  21342283.280    21342280.389
  23785689.684    -2804675.36043  -2176968.42242  23785692.447    23785693.394
  23688846.392    -6909993.79843  -5083538.90242  23688848.557    23688849.155
  21620897.976   -19924007.74743 -15467297.38442  21620900.018    21620897.696
  21907185.027   -16356958.68943 -12727834.99142  21907187.920    21907187.283
  21615426.039   -19467396.34943 -14986118.70542  21615428.350    21615427.132
 04  3 24  0  2  0.0000000  0  8G15G22G18G 9G31G21G14G 3
  20186805.539   -25814503.05644 -20102596.64142  20186807.427    20186805.849
  20611553.239   -26535797.16844 -20664756.94242  20611554.166    20611549.710
  21352216.603   -23978058.26443 -18621699.45142  21352218.886    21352216.001
  23778975.273    -2839959.17143  -2204462.25742  23778977.804    23778979.012
  23674223.956    -6986834.57443  -5143414.76042  23674226.084    23674226.840
  21631946.251   -19865948.77243 -15422056.65942  21631948.265    21631945.960
  21890101.820   -16446730.90443 -12797787.22142  21890104.725    21890104.135
  21612596.969   -19482263.03443 -14997703.11242  21612599.260    21612598.089
 04  3 24  0  2 30.0000000  0  8G15G22G18G 9G31G21G14G 3
  20182519.796   -25837024.60244 -20120145.87842  20182521.677    20182520.134
  20612068.823   -26533087.87544 -20662645.77942  20612069.732    20612065.247
  21362185.251   -23925672.72643 -18580879.56242  21362187.547    21362184.673
  23772352.941    -2874759.99743  -2231579.70042  23772355.465    23772356.572
  23659679.125    -7063267.87043  -5202973.08742  23659681.191    23659682.060
  21643054.954   -19807571.97943 -15376568.28342  21643057.004    21643054.707
  21873086.139   -16536148.30743 -12867462.97242  21873089.016    21873088.426
  21609875.781   -19496563.19943 -15008846.07842  21609878.041    21609876.884
 04  3 24  0  3  0.0000000  0  8G15G22G18G 9G31G21G14G 3
  20178297.795   -25859211.49344 -20137434.34242  20178299.667    20178298.081
  20612636.035   -26530106.97744 -20660322.97942  20612636.950    20612632.492
  21372185.891   -23873119.24443 -18539928.80842  21372188.181    21372185.280
  23765822.178    -2909080.01743  -2258322.49742  23765824.620    23765825.421
  23645211.450    -7139295.88343  -5262215.62942  23645213.398    23645214.433
  21654223.346   -19748881.82443 -15330835.72342  21654225.403    21654223.126
  21856137.532   -16625213.02943 -12936863.91242  21856140.417    21856139.784
  21607261.518   -19510300.90843 -15019550.76642  21607263.796    21607262.694
 04  3 24  0  3 30.0000000  0  8G15G22G18G 9G31G21G14G 3
  20174139.956   -25881061.22144 -20154460.07942  20174141.851    20174140.183
  20613255.041   -26526854.04744 -20657788.20342  20613255.950    20613251.460
  21382218.420   -23820397.78743 -18498847.16542  21382220.725    21382217.841
  23759383.318    -2942915.91443  -2284688.06942  23759385.811    23759386.413
  23630821.530    -7214915.07843  -5321139.61142  23630823.430    23630824.511
  21665451.690   -19689876.86643 -15284857.86842  21665453.735    21665451.441
  21839256.752   -16713921.88043 -13005987.55342  21839259.574    21839258.865
  21604754.635   -19523474.61643 -15029815.97742  21604756.880    21604755.808
 04  3 24  0  4  0.0000000  0  8G15G22G18G 9G31G21G14G 3
  20170047.120   -25902569.09944 -20171219.43642  20170049.068    20170047.323
  20613926.201   -26523327.09444 -20655039.90342  20613927.116    20613922.589
  21392283.330   -23767506.25343 -18457632.99542  21392285.620    21392282.773
  23753037.538    -2976262.32943  -2310672.21542  23753040.025    23753040.915
  23616510.377    -7290119.89843  -5379740.68142  23616512.316    23616513.563
  21676740.462   -19630554.07043 -15238632.34142  21676742.530    21676740.216
  21822444.703   -16802269.11143 -13074829.41042  21822447.569    21822446.824
  21602355.675   -19536080.69543 -15039638.88042  21602357.939    21602356.918
 04  3 24  0  4 30.0000000  0  8G15G22G18G 9G31G21G14G 3
  20166019.017   -25923736.75444 -20187713.68542  20166020.977    20166019.205
  20614648.669   -26519530.18744 -20652081.24842  20614649.601    20614645.094
  21402379.723   -23714449.19043 -18416289.83842  21402382.025    21402379.191
  23746785.021    -3009119.93343  -2336275.49342  23746787.488    23746788.356
  23602277.856    -7364911.07343  -5438019.40942  23602279.831    23602281.293
  21688089.099   -19570916.56843 -15192161.59242  21688091.166    21688088.872
  21805701.293   -16890255.53543 -13143390.12542  21805704.185    21805703.440
  21600064.270   -19548122.01143 -15049021.71242  21600066.501    21600065.578
 04  3 24  0  5  0.0000000  0  8G15G22G18G 9G31G21G14G 3
  20162055.679   -25944564.07444 -20203942.74142  20162057.664    20162055.866
  20615422.119   -26515465.62644 -20648914.03542  20615423.019    20615418.529
  21412507.313   -23661228.47443 -18374819.16042  21412509.587    21412506.747
  23740625.515    -3041487.84143  -2361497.17342  23740628.004    23740628.833
  23588124.287    -7439287.45643  -5495974.94242  23588126.161    23588127.880
  21699497.344   -19510965.97643 -15145446.87642  21699499.383    21699497.123
  21789026.831   -16977880.29943 -13211669.02742  21789029.638    21789028.876
  21597880.164   -19559599.56843 -15057965.25142  21597882.366    21597881.432
 04  3 24  0  5 30.0000000  0  8G15G22G18G 9G31G21G14G 3
  20158158.191   -25965045.39544 -20219902.19142  20158160.149    20158158.404
  20616247.086   -26511130.31644 -20645535.84742  20616247.995    20616243.485
  21422666.563   -23607841.34743 -18333218.80742  21422668.832    21422665.996
  23734560.433    -3073359.74143  -2386332.36842  23734562.893    23734563.767
  23574050.772    -7513242.73843  -5553602.32742  23574052.626    23574054.484
  21710965.909   -19450698.25443 -15098485.04442  21710967.955    21710965.711
  21772422.386   -17065136.82743 -13279660.98642  21772425.201    21772424.371
  21595804.165   -19570508.95843 -15066466.06442  21595806.348    21595805.455
 04  3 24  0  6  0.0000000  0  8G15G22G18G 9G31G21G14G 3
  20154325.944   -25985184.01444 -20235594.59942  20154327.849    20154326.154
  20617122.459   -26506530.14444 -20641951.26942  20617123.383    20617118.848
  21432856.270   -23554293.93743 -18291493.56542  21432858.554    21432855.759
  23728589.374    -3104738.01443  -2410782.91442  23728591.641    23728592.535
  23560057.177    -7586779.30343  -5610903.44842  23560058.981    23560060.929
  21722493.960   -19390118.31043 -15051279.92942  21722495.949    21722493.701
  21755887.497   -17152027.53243 -13347367.90642  21755890.348    21755889.493
  21593835.407   -19580854.71343 -15074527.67542  21593837.582    21593836.728
 04  3 24  0  6 30.0000000  0  8G15G22G18G 9G31G21G14G 3
  20150560.260   -26004972.68344 -20251014.32642  20150562.154    20150560.493
  20618049.197   -26501660.26144 -20638156.52942  20618050.122    20618045.529
  21443077.396   -23500581.51743 -18249639.74242  21443079.696    21443076.935
  23722713.790    -3135614.94243  -2434842.79942  23722716.056    23722716.738
  23546144.759    -7659889.06043  -5667871.99042  23546146.506    23546148.596
  21734082.495   -19329220.59543 -15003827.20242  21734084.450    21734082.169
  21739423.767   -17238544.51343 -13414783.60742  21739426.589    21739425.730
  21591975.043   -19590630.93043 -15082145.50442  21591977.226    21591976.352
 04  3 24  0  7  0.0000000  0  8G15G22G18G 9G31G21G14G 3
  20146860.796   -26024413.61544 -20266163.08442  20146862.628    20146860.994
  20619026.345   -26496525.25644 -20634155.19842  20619027.278    20619022.679
  21453329.066   -23446708.74043 -18207660.96942  21453331.351    21453328.591
  23716933.025    -3165991.95843  -2458513.14842  23716935.298    23716936.290
  23532313.177    -7732573.46143  -5724509.08942  23532315.034    23532317.056
  21745730.797   -19268008.65543 -14956129.63142  21745732.736    21745730.461
  21723030.968   -17324689.14943 -13481909.16542  21723033.740    21723032.821
  21590222.385   -19599841.02243 -15089322.18842  21590224.559    21590223.737
 04  3 24  0  7 30.0000000  0  8G15G22G18G 9G31G21G14G 3
  20143227.498   -26043506.48844 -20281040.62842  20143229.387    20143227.709
  20620053.555   -26491127.19844 -20629948.89242  20620054.501    20620049.889
  21463610.866   -23392677.49643 -18165558.71842  21463613.142    21463610.373
  23711247.725    -3195867.78743  -2481792.94642  23711250.008    23711251.020
  23518562.945    -7804831.03143  -5780813.59742  23518564.804    23518566.755
  21757438.596   -19206483.87343 -14908188.27942  21757440.553    21757438.306
  21706709.192   -17410460.12043 -13548743.56142  21706711.986    21706711.008
  21588577.339   -19608485.69343 -15096058.28242  21588579.537    21588578.713
 04  3 24  0  8  0.0000000  0  8G15G22G18G 9G31G21G14G 3
  20139661.009   -26062248.34044 -20295644.64742  20139662.924    20139661.228
  20621130.826   -26485466.11644 -20625537.63642  20621131.773    20621127.113
  21473922.750   -23338488.10343 -18123333.23142  21473925.009    21473922.262
  23705658.675    -3225239.44443  -2504679.89042  23705660.900    23705661.553
  23504894.445    -7876658.46743  -5836782.92842  23504896.304    23504898.395
  21769206.147   -19144645.06043 -14860002.22742  21769208.110    21769205.935
  21690459.123   -17495854.14343 -13615284.23342  21690461.931    21690460.885
  21587040.037   -19616563.97943 -15102353.04042  21587042.258    21587041.435
 04  3 24  0  8 30.0000000  0  8G15G22G18G 9G31G21G14G 3
  20136161.539   -26080638.20244 -20309974.38742  20136163.462    20136161.709
  20622257.955   -26479542.93844 -20620922.14442  20622258.911    20622254.203
  21484264.501   -23284142.05143 -18080985.67442  21484266.742    21484263.963
  23700165.514    -3254104.94043  -2527172.41842  23700167.929    23700168.564
  23491308.257    -7948053.70943  -5892415.48442  23491310.129    23491312.364
  21781033.402   -19082492.55943 -14811571.73842  21781035.359    21781033.187
  21674281.257   -17580869.20743 -13681529.60842  21674284.013    21674282.907
  21585610.515   -19624075.77243 -15108206.36842  21585612.734    21585611.901
 04  3 24  0  9  0.0000000  0  8G15G22G18G 9G31G21G14G 3
  20132729.482   -26098673.73544 -20324028.02742  20132731.424    20132729.617
  20623434.973   -26473357.78744 -20616102.52142  20623435.917    20623431.125
  21494636.053   -23229639.18043 -18038515.91742  21494638.361    21494635.547
  23694769.357    -3282460.84543  -2549267.89842  23694771.779    23694772.779
  23477804.977    -8019013.37243  -5947708.62442  23477806.882    23477809.107
  21792920.517   -19020025.54143 -14762896.18142  21792922.501    21792920.292
  21658176.069   -17665501.91343 -13747477.04142  21658178.851    21658177.746
  21584289.193   -19631019.93243 -15113617.39742  21584291.369    21584290.387
 04  3 24  0  9 30.0000000  0  8G15G22G18G 9G31G21G14G 3
  20129365.154   -26116353.21044 -20337804.22342  20129367.105    20129365.267
  20624661.686   -26466911.29944 -20611079.26042  20624662.658    20624657.797
  21505037.339   -23174980.24543 -17995924.55842  21505039.657    21505036.809
  23689470.732    -3310305.07343  -2570964.62842  23689473.136    23689474.093
  23464385.172    -8089535.01643  -6002660.47942  23464387.102    23464389.170
  21804867.498   -18957243.96943 -14713975.50742  21804869.533    21804867.282
  21642144.065   -17749749.97643 -13813124.75442  21642146.873    21642145.790
  21583075.921   -19637396.03943 -15118585.78142  21583078.079    21583077.044
 04  3 24  0 10  0.0000000  0  8G15G22G18G 9G31G21G14G 3
  20126068.397   -26133677.58244 -20351303.71742  20126070.346    20126068.536
  20625937.436   -26460207.22744 -20605855.28442  20625938.398    20625933.487
  21515467.573   -23120169.14843 -17953214.63642  21515469.872    21515467.009
  23684269.455    -3337638.41243  -2592263.25042  23684271.929    23684272.499
  23451048.568    -8159619.16043  -6057271.41342  23451050.636    23451052.517
  21816873.736   -18894150.75443 -14664812.00042  21816875.827    21816873.563
  21626185.238   -17833613.56643 -13878472.88142  21626188.041    21626186.965
  21581970.051   -19643206.76443 -15123113.60242  21581972.242    21581971.255
 04  3 24  0 10 30.0000000  0  8G15G22G18G 9G31G21G14G 3
  20122839.935   -26150643.22644 -20364523.68642  20122841.840    20122840.058
  20627262.393   -26453244.45044 -20600429.71942  20627263.383    20627258.432
  21525926.992   -23065204.76243 -17910385.26242  21525929.270    21525926.408
  23679165.911    -3364456.24143  -2613160.21742  23679168.403    23679169.191
  23437796.029    -8229261.08943  -6111537.75142  23437798.149    23437800.012
  21828939.654   -18830743.78743 -14615404.00742  21828941.759    21828939.488
  21610300.439   -17917088.45443 -13943518.12042  21610303.199    21610302.065
  21580972.290   -19648449.89743 -15127199.14942  21580974.437    21580973.468
 04  3 24  0 11  0.0000000  0  8G15G22G18G 9G31G21G14G 3
  20119680.163   -26167247.78644 -20377462.29042  20119682.053    20119680.310
  20628636.624   -26446022.75944 -20594802.40642  20628637.596    20628632.653
  21536415.519   -23010087.05543 -17867436.42342  21536417.823    21536415.002
  23674161.339    -3390755.62943  -2633653.20142  23674163.649    23674164.579
  23424628.192    -8298457.84943  -6165457.19742  23424630.375    23424632.178
  21841065.570   -18767022.08543 -14565750.77442  21841067.651    21841065.321
  21594490.125   -18000171.63743 -14008258.13342  21594492.913    21594491.721
  21580082.811   -19653124.57643 -15130841.75142  21580084.892    21580083.911
 04  3 24  0 11 30.0000000  0  8G15G22G18G 9G31G21G14G 3
  20116588.474   -26183494.51744 -20390122.06642  20116590.375    20116588.677
  20630058.991   -26438548.09044 -20588977.97042  20630059.959    20630055.011
  21546932.183   -22954821.69943 -17824372.52842  21546934.482    21546931.695
  23669254.715    -3416539.37343  -2653744.37542  23669257.157    23669258.249
  23411544.860    -8367211.93443  -6219031.72242  23411546.989    23411548.589
  21853250.305   -18702990.97543 -14515856.44242  21853252.416    21853250.046
  21578753.834   -18082865.67643 -14072694.91842  21578756.628    21578755.444
  21579300.424   -19657235.64343 -15134045.17042  21579302.515    21579301.635
 04  3 24  0 12  0.0000000  0  8G15G22G18G 9G31G21G14G 3
  20113566.284   -26199376.24044 -20402497.41942  20113568.177    20113566.470
  20631530.403   -26430815.55744 -20582952.60042  20631531.377    20631526.478
  21557477.760   -22899404.25143 -17781190.12242  21557480.070    21557477.323
  23664447.960    -3441800.02843  -2673427.95542  23664450.192    23664451.235
  23398547.213    -8435515.37443  -6272255.09842  23398549.432    23398550.852
  21865494.979   -18638644.75043 -14465716.56142  21865497.099    21865494.779
  21563093.164   -18165162.35343 -14136822.07642  21563095.970    21563094.768
  21578626.454   -19660777.21643 -15136804.82742  21578628.523    21578627.694
 04  3 24  0 12 30.0000000  0  8G15G22G18G 9G31G21G14G 3
  20110612.997   -26214895.81644 -20414590.58042  20110614.930    20110613.178
  20633049.862   -26422830.45544 -20576730.42542  20633050.821    20633046.000
  21568051.382   -22843839.60543 -17737893.01542  21568053.671    21568050.956
  23659739.973    -3466539.62043  -2692705.49842  23659742.324    23659743.342
  23385634.807    -8503370.05443  -6325128.80542  23385637.094    23385638.468
  21877798.740   -18573987.85943 -14415334.59842  21877800.890    21877798.679
  21547507.704   -18247063.82643 -14200641.27442  21547510.533    21547509.276
  21578060.088   -19663753.38643 -15139123.91442  21578062.148    21578061.332
 04  3 24  0 13  0.0000000  0  8G15G22G18G 9G31G21G14G 3
  20107729.413   -26230049.25044 -20426398.43642  20107731.355    20107729.553
  20634617.678   -26414591.33644 -20570310.31642  20634618.599    20634613.829
  21578653.274   -22788126.50843 -17694480.23342  21578655.577    21578652.833
  23655132.061    -3490753.64543  -2711573.53342  23655134.527    23655135.372
  23372808.732    -8570771.41443  -6377649.25042  23372811.158    23372812.373
  21890162.174   -18509017.92443 -14364708.71442  21890164.265    21890162.139
  21531998.401   -18328565.38043 -14264148.85142  21532001.209    21531999.925
  21577601.838   -19666161.50243 -15141000.36742  21577603.898    21577603.112
 04  3 24  0 13 30.0000000  0  8G15G22G18G 9G31G21G14G 3
  20104915.493   -26244836.49644 -20437920.94642  20104917.447    20104915.578
  20636233.390   -26406100.47844 -20563694.04242  20636234.294    20636229.555
  21589282.955   -22732267.26443 -17650953.55942  21589285.274    21589282.489
  23650624.394    -3514441.82443  -2730031.81042  23650626.827    23650627.684
  23360069.007    -8637718.71643  -6429815.88742  23360071.500    23360072.584
  21902584.831   -18443736.65843 -14313840.23442  21902586.878    21902584.795
  21516565.301   -18409666.36343 -14327344.29742  21516568.094    21516566.825
  21577251.321   -19668003.51543 -15142435.68642  21577253.409    21577252.641
 04  3 24  0 14  0.0000000  0  8G15G22G18G 9G31G21G14G 3
  20102171.317   -26259257.11244 -20449157.77442  20102173.272    20102171.384
  20637896.663   -26397359.74944 -20556883.07042  20637897.548    20637892.814
  21599940.023   -22676264.28343 -17607314.89342  21599942.307    21599939.502
  23646217.032    -3537603.45243  -2748079.80042  23646219.451    23646220.188
  23347415.958    -8704210.89043  -6481627.90542  23347418.473    23347419.339
  21915066.438   -18378145.46943 -14262730.25342  21915068.476    21915066.385
  21501208.621   -18490365.96743 -14390226.98342  21501211.368    21501210.066
  21577008.304   -19669280.50443 -15143430.73842  21577010.414    21577009.601
 04  3 24  0 14 30.0000000  0  8G15G22G18G 9G31G21G14G 3
  20099497.773   -26273306.69544 -20460105.48742  20099499.689    20099497.833
  20639607.889   -26388367.02544 -20549875.73842  20639608.755    20639604.021
  21610624.846   -22620115.25643 -17563562.42042  21610627.141    21610624.320
  23641910.638    -3560233.17343  -2765713.31942  23641913.190    23641913.844
  23334850.582    -8770242.54543  -6533081.07842  23334853.092    23334853.669
  21927607.653   -18312241.19643 -14211376.31842  21927609.678    21927607.555
  21485929.284   -18570658.78543 -14452792.69342  21485932.044    21485930.704
  21576873.495   -19669989.15143 -15143982.92242  21576875.625    21576874.741
 04  3 24  0 15  0.0000000  0  8G15G22G18G 9G31G21G14G 3
  20096894.827   -26286985.14944 -20470764.00942  20096896.746    20096894.890
  20641366.563   -26379124.85244 -20542674.03042  20641367.458    20641362.739
  21621337.052   -22563822.26743 -17519697.76642  21621339.346    21621336.535
  23637705.664    -3582330.73043  -2782932.14842  23637708.162    23637708.681
  23322372.956    -8835812.86243  -6584174.76042  23322375.455    23322375.896
  21940208.135   -18246025.44943 -14159779.67142  21940210.160    21940208.055
  21470727.548   -18650543.99243 -14515040.78442  21470730.294    21470728.913
  21576846.507   -19670131.22343 -15144093.61542  21576848.657    21576847.743
 04  3 24  0 15 30.0000000  0  8G15G22G18G 9G31G21G14G 3
  20094361.925   -26300295.58144 -20481135.76242  20094363.829    20094362.003
  20643171.706   -26369638.71144 -20535282.21642  20643172.599    20643167.884
  21632075.554   -22507391.18643 -17475725.50442  21632077.846    21632075.038
  23633601.348    -3603899.01343  -2799738.56042  23633603.855    23633604.240
  23309982.748    -8900924.42643  -6634910.98842  23309985.172    23309985.472
  21952866.868   -18179503.43543 -14107944.37642  21952868.858    21952866.840
  21455602.950   -18730024.04143 -14576973.16942  21455605.645    21455604.227
  21576926.354   -19669711.52043 -15143766.55942  21576928.574    21576927.619
 04  3 24  0 16  0.0000000  0  8G15G22G18G 9G31G21G14G 3
  20091900.738   -26313229.26844 -20491213.94842  20091902.625    20091900.825
  20645024.440   -26359902.48444 -20527695.53342  20645025.337    20645020.642
  21642841.454   -22450815.90543 -17431640.88142  21642843.769    21642840.999
  23629599.494    -3624928.79443  -2816125.37142  23629601.870    23629602.490
  23297681.656    -8965567.93343  -6685282.49242  23297684.045    23297684.163
  21965585.299   -18112667.96043 -14055864.82642  21965587.246    21965585.240
  21440557.164   -18809089.83843 -14638582.76242  21440559.898    21440558.389
  21577114.428   -19668723.24143 -15142996.46542  21577116.632    21577115.630
 04  3 24  0 16 30.0000000  0  8G15G22G18G 9G31G21G14G 3
  20089510.768   -26325788.73144 -20501000.53242  20089512.656    20089510.866
  20646923.880   -26349920.86444 -20519917.63042  20646924.775    20646920.075
  21653633.921   -22394101.06443 -17387447.50942  21653636.247    21653633.486
  23625699.668    -3645422.20043  -2832094.23842  23625702.026    23625702.796
  23285469.231    -9029745.02543  -6735290.54942  23285471.604    23285471.560
  21978362.634   -18045523.05343 -14003544.16042  21978364.552    21978362.514
  21425589.836   -18887743.19543 -14699870.98042  21425592.592    21425591.010
  21577409.952   -19667170.33543 -15141786.39742  21577412.131    21577411.119
 04  3 24  0 17  0.0000000  0  8G15G22G18G 9G31G21G14G 3
  20087192.472   -26337971.45044 -20510493.54542  20087194.360    20087192.574
  20648870.066   -26339693.54144 -20511948.27342  20648870.963    20648866.248
  21664452.945   -22337246.53243 -17343145.29142  21664455.278    21664452.560
  23621902.500    -3665376.32643  -2847642.81242  23621904.797    23621905.441
  23273346.100    -9093452.62143  -6784932.77442  23273348.471    23273348.246
  21991198.893   -17978068.07043 -13950981.87742  21991200.824    21991198.808
  21410701.642   -18965980.79843 -14760835.23842  21410704.368    21410702.801
  21577813.113   -19665051.78143 -15140135.56942  21577815.288    21577814.272
 04  3 24  0 17 30.0000000  0  8G15G22G18G 9G31G21G14G 3
  20084946.006   -26349776.79644 -20519692.50042  20084947.911    20084946.090
  20650862.698   -26329222.24144 -20503788.80042  20650863.600    20650858.840
  21675298.270   -22280253.85843 -17298735.42842  21675300.590    21675297.899
  23618208.130    -3684789.98643  -2862770.27842  23618210.485    23618210.927
  23261312.502    -9156689.36243  -6834208.09942  23261314.906    23261314.616
  22004093.968   -17910304.09243 -13898178.82042  22004095.875    22004093.944
  21395892.766   -19043801.67943 -14821474.77542  21395895.465    21395893.884
  21578323.713   -19662368.64243 -15138044.80642  21578325.874    21578324.887
 04  3 24  0 18  0.0000000  0  8G15G22G18G 9G31G21G14G 3
  20082771.399   -26361204.40844 -20528597.11542  20082773.318    20082771.464
  20652901.319   -26318509.08744 -20495440.86942  20652902.255    20652897.472
  21686169.550   -22223124.97243 -17254219.42842  21686171.849    21686169.175
  23614616.773    -3703662.73643  -2877476.29442  23614619.090    23614619.572
  23249368.811    -9219454.23543  -6883115.73742  23249371.092    23249370.816
  22017047.707   -17842232.47343 -13845136.04342  22017049.547    22017047.618
  21381163.445   -19121204.46243 -14881788.52142  21381166.146    21381164.485
  21578941.369   -19659122.43643 -15135515.28842  21578943.522    21578942.552
 04  3 24  0 18 30.0000000  0  8G15G22G18G 9G31G21G14G 3
  20080669.864   -26372247.98244 -20537202.47742  20080671.804    20080669.933
  20654986.773   -26307550.07644 -20486901.36242  20654987.689    20654982.896
  21697067.415   -22165856.21443 -17209594.43442  21697069.748    21697067.049
  23611129.510    -3721988.08143  -2891755.72242  23611131.940    23611132.498
  23237516.233    -9281740.19943  -6931650.18542  23237518.499    23237518.097
  22030060.818   -17773848.40743 -13791849.80542  22030062.683    22030060.712
  21366515.016   -19198182.17743 -14941771.04742  21366517.724    21366515.985
  21579667.128   -19655308.50943 -15132543.39042  21579669.252    21579668.277
 04  3 24  0 19  0.0000000  0  8G15G22G18G 9G31G21G14G 3
  20078640.428   -26382912.66244 -20545512.60342  20078642.379    20078640.488
  20657117.566   -26296352.64544 -20478176.06842  20657118.489    20657113.692
  21707990.490   -22108455.06643 -17164866.28042  21707992.814    21707990.101
  23607745.545    -3739770.72543  -2905612.29242  23607747.946    23607748.443
  23225753.842    -9343551.76843  -6979814.98142  23225756.136    23225755.523
  22043131.966   -17705158.63043 -13738325.33942  22043133.926    22043131.927
  21351946.543   -19274739.37343 -15001425.89942  21351949.296    21351947.528
  21580499.682   -19650933.64543 -15129134.40142  21580501.763    21580500.821
 04  3 24  0 19 30.0000000  0  8G15G22G18G 9G31G21G14G 3
  20076683.832   -26393194.45244 -20553524.37142  20076685.771    20076683.902
  20659294.027   -26284915.20444 -20469263.75642  20659294.939    20659290.169
  21718939.134   -22050919.64743 -17120033.49842  21718941.450    21718938.715
  23604465.670    -3757006.44443  -2919042.66242  23604468.215    23604468.396
  23214082.502    -9404884.49843  -7027606.65042  23214084.751    23214084.093
  22056261.737   -17636161.20943 -13684561.15942  22056263.677    22056261.676
  21337458.969   -19350871.70743 -15060749.68942  21337461.702    21337459.951
  21581439.236   -19645995.83343 -15125286.75242  21581441.350    21581440.460
 04  3 24  0 20  0.0000000  0  8G15G22G18G 9G31G21G14G 3
  20074800.720   -26403090.23244 -20561235.35542  20074802.616    20074800.781
  20661516.325   -26273236.86544 -20460163.73342  20661517.243    20661512.497
  21729913.569   -21993248.82743 -17075095.21442  21729915.875    21729913.089
  23601290.655    -3773691.76643  -2932044.16442  23601293.227    23601293.206
  23202503.046    -9465734.53243  -7075022.19842  23202505.229    23202504.614
  22069450.342   -17566854.78843 -13630556.19442  22069452.299    22069450.294
  21323052.989   -19426575.35743 -15119739.44542  21323055.677    21323053.926
  21582486.211   -19640493.48343 -15120999.20642  21582488.326    21582487.514
 04  3 24  0 20 30.0000000  0  8G15G22G18G 9G31G21G14G 3
  20072990.280   -26412604.05644 -20568648.71342  20072992.164    20072990.341
  20663783.258   -26261323.98444 -20450880.94742  20663784.169    20663779.448
  21740912.415   -21935449.50743 -17030056.79242  21740914.730    21740911.904
  23598219.452    -3789830.61643  -2944619.83942  23598222.251    23598222.219
  23191014.816    -9526105.21643  -7122064.22042  23191017.027    23191016.464
  22082696.594   -17497245.21943 -13576314.99742  22082698.583    22082696.591
  21308727.918   -19501853.73943 -15178397.82242  21308730.604    21308728.824
  21583639.726   -19634432.21043 -15116276.13942  21583641.799    21583640.944
 04  3 24  0 21  0.0000000  0  8G15G22G18G 9G31G21G14G 3
  20071253.776   -26421729.35944 -20575759.32342  20071255.658    20071253.821
  20666095.684   -26249172.19644 -20441412.00242  20666096.607    20666091.868
  21751936.726   -21877516.65843 -16984914.32942  21751939.021    21751936.170
  23595253.581    -3805416.21643  -2956764.43742  23595256.229    23595256.466
  23179619.052    -9585989.28443  -7168727.05142  23179621.368    23179620.906
  22096001.596   -17427326.86043 -13521833.19842  22096003.666    22096001.657
  21294485.121   -19576699.63743 -15236719.20342  21294487.823    21294486.000
  21584900.345   -19627807.36443 -15111113.92142  21584902.477    21584901.622
 04  3 24  0 21 30.0000000  0  8G15G22G18G 9G31G21G14G 3
  20069591.548   -26430464.33644 -20582565.78642  20069593.457    20069591.571
  20668453.378   -26236782.45644 -20431757.64042  20668454.309    20668449.543
  21762986.240   -21819451.13843 -16939668.48842  21762988.507    21762985.709
  23592393.317    -3820446.61943  -2968476.38942  23592395.875    23592396.141
  23168316.289    -9645384.61243  -7215009.04342  23168318.615    23168318.287
  22109365.338   -17357100.00343 -13467111.00742  22109367.393    22109365.329
  21280325.033   -19651111.00143 -15294701.98242  21280327.719    21280325.889
  21586268.165   -19620619.46643 -15105512.96442  21586270.292    21586269.417
 04  3 24  0 22  0.0000000  0  8G15G22G18G 9G31G21G14G 3
  20068002.784   -26438813.33044 -20589071.48342  20068004.692    20068002.790
  20670855.150   -26224161.00244 -20421922.72042  20670856.087    20670851.291
  21774059.630   -21761260.21643 -16894324.93242  21774061.875    21774059.127
  23589637.843    -3834926.00243  -2979758.96642  23589640.512    23589640.643
  23157105.968    -9704294.96443  -7260913.14942  23157108.255    23157107.918
  22122786.524   -17286571.00843 -13412153.38742  22122788.609    22122786.572
  21266246.882   -19725091.53443 -15352349.05742  21266249.603    21266247.750
  21587742.015   -19612874.74543 -15099478.12142  21587744.134    21587743.163
 04  3 24  0 22 30.0000000  0  8G15G22G18G 9G31G21G14G 3
  20066489.114   -26446767.87344 -20595269.82042  20066490.991    20066489.057
  20673302.150   -26211301.88944 -20411902.61742  20673303.077    20673298.274
  21785158.159   -21702937.20043 -16848878.44342  21785160.400    21785157.652
  23586989.023    -3848845.89043  -2990605.57242  23586991.587    23586991.780
  23145989.646    -9762711.30443  -7306432.30042  23145991.863    23145991.625
  22136266.568   -17215733.20643 -13356955.13642  22136268.624    22136266.621
  21252252.445   -19798632.22643 -15409653.39142  21252255.178    21252253.335
  21589323.088   -19604566.34143 -15093004.04342  21589325.221    21589324.214
 04  3 24  0 23  0.0000000  0  8G15G22G18G 9G31G21G14G 3
  20065049.339   -26454333.81344 -20601165.34942  20065051.232    20065049.277
  20675792.830   -26198213.06844 -20401703.51942  20675793.768    20675788.961
  21796280.325   -21644489.93843 -16803335.14842  21796282.549    21796279.842
  23584445.556    -3862211.78443  -3001020.52442  23584448.194    23584448.488
  23134966.160    -9820638.91843  -7351570.60442  23134968.484    23134968.399
  22149803.991   -17144594.10443 -13301522.11242  22149806.021    22149804.083
  21238340.723   -19871738.29643 -15466619.06442  21238343.455    21238341.599
  21591009.932   -19595701.94043 -15086096.71742  21591012.094    21591011.048
 04  3 24  0 23 30.0000000  0  8G15G22G18G 9G31G21G14G 3
  20063685.041   -26461502.98844 -20606751.71442  20063686.931    20063685.019
  20678328.345   -26184888.81244 -20391320.97042  20678329.255    20678324.455
  21807427.360   -21585911.96343 -16757689.99142  21807429.598    21807426.917
  23582009.069    -3875015.34443  -3010997.28742  23582011.644    23582012.131
  23124037.397    -9878069.07743  -7396321.30542  23124039.772    23124039.841
  22163399.785   -17073147.32943 -13245849.34342  22163401.914    22163400.026
  21224513.425   -19944401.00843 -15523239.26042  21224516.141    21224514.221
  21592803.762   -19586275.50543 -15078751.44942  21592805.906    21592804.788
 04  3 24  0 24  0.0000000  0  8G15G22G18G 9G31G21G14G 3
  20062395.624   -26468278.90944 -20612031.64742  20062397.484    20062395.598
  20680907.565   -26171334.79144 -20380759.37942  20680908.482    20680903.680
  21818598.065   -21527209.71343 -16711948.00242  21818600.308    21818597.634
  23579679.032    -3887260.22743  -3020538.70042  23579681.561    23579681.910
  23113202.809    -9935004.70943  -7440686.66242  23113205.288    23113205.365
  22177053.300   -17001397.87543 -13189940.71242  22177055.404    22177053.517
  21210769.842   -20016623.36043 -15579516.32042  21210772.596    21210770.687
  21594703.475   -19576292.42843 -15070972.43242  21594705.614    21594704.433
 04  3 24  0 24 30.0000000  0  8G15G22G18G 9G31G21G14G 3
  20061180.933   -26474662.15544 -20617005.60142  20061182.765    20061180.888
  20683529.930   -26157553.82944 -20370020.95242  20683530.866    20683526.074
  21829791.826   -21468386.02043 -16666111.37842  21829794.079    21829791.441
  23577455.032    -3898946.96543  -3029645.20942  23577457.551    23577457.732
  23102462.407    -9991445.92243  -7484666.75042  23102464.874    23102464.919
  22190764.013   -16929348.35543 -13133798.28242  22190766.079    22190764.098
  21197110.057   -20088405.66343 -15635450.48342  21197112.798    21197110.901
  21596708.683   -19565754.79243 -15062761.29242  21596710.810    21596709.626
 04  3 24  0 25  0.0000000  0  8G15G22G18G 9G31G21G14G 3
  20060042.475   -26480644.82944 -20621667.41642  20060044.308    20060042.429
  20686196.594   -26143540.30044 -20359101.30442  20686197.547    20686192.701
  21841009.967   -21409434.65243 -16620175.26842  21841012.193    21841009.567
  23575338.870    -3910067.62643  -3038310.60342  23575341.301    23575341.477
  23091817.564   -10047384.33243  -7528255.05442  23091820.057    23091820.157
  22204532.943   -16856992.54643 -13077417.17942  22204534.977    22204533.010
  21183535.672   -20159739.23743 -15691034.99442  21183538.435    21183536.476
  21598820.573   -19554656.88943 -15054113.58442  21598822.684    21598821.516
 04  3 24  0 25 30.0000000  0  8G15G22G18G 9G31G21G14G 3
  20058979.631   -26486230.24744 -20626019.68442  20058981.462    20058979.559
  20688906.457   -26129299.78844 -20348004.78742  20688907.385    20688902.537
  21852251.232   -21350361.38843 -16574144.16842  21852253.480    21852250.830
  23573329.755    -3920625.33943  -3046537.35542  23573332.215    23573332.451
  23081267.989   -10102822.66743  -7571453.67542  23081270.371    23081270.603
  22218359.189   -16784335.33843 -13020801.22042  22218361.216    22218359.276
  21170046.101   -20230627.24143 -15746272.30342  21170048.852    21170046.839
  21601037.971   -19543003.92943 -15045033.35742  21601040.103    21601039.052
 04  3 24  0 26  0.0000000  0  8G15G22G18G 9G31G21G14G 3
  20057992.739   -26491416.22144 -20630060.69242  20057994.632    20057992.685
  20691659.486   -26114832.43844 -20336731.51742  20691660.420    20691655.551
  21863515.746   -21291166.05243 -16528017.95042  21863518.026    21863515.355
  23571428.154    -3930618.11343  -3054323.88942  23571430.739    23571431.020
  23070814.050   -10157758.41343  -7614260.68442  23070816.442    23070816.702
  22232242.839   -16711376.45243 -12963950.18442  22232244.834    22232242.947
  21156641.817   -20301066.67143 -15801160.08142  21156644.599    21156642.580
  21603361.028   -19530796.03043 -15035520.71242  21603363.149    21603362.112
 04  3 24  0 26 30.0000000  0  8G15G22G18G 9G31G21G14G 3
  20057082.342   -26496200.30144 -20633788.53642  20057084.256    20057082.310
  20694455.786   -26100137.70444 -20325281.06042  20694456.712    20694451.843
  21874803.468   -21231848.60743 -16481796.57742  21874805.758    21874803.065
  23569634.465    -3940043.38743  -3061668.19042  23569637.081    23569637.352
  23060456.505   -10212188.52143  -7656673.68242  23060458.928    23060459.055
  22246184.054   -16638115.28343 -12906863.61242  22246186.009    22246184.086
  21143323.441   -20371054.95343 -15855696.31442  21143326.200    21143324.194
  21605789.863   -19518032.76643 -15025575.31742  21605791.964    21605790.853
 04  3 24  0 27  0.0000000  0  8G15G22G18G 9G31G21G14G 3
  20056248.402   -26500582.74644 -20637203.41742  20056250.301    20056248.327
  20697294.874   -26085218.23344 -20313655.48242  20697295.805    20697290.901
  21886114.052   -21172411.17143 -16435481.70442  21886116.332    21886113.607
  23567948.844    -3948901.33043  -3068570.43042  23567951.408    23567951.590
  23050195.115   -10266112.57843  -7698692.35342  23050197.642    23050197.601
  22260182.482   -16564553.49243 -12849542.78942  22260184.396    22260182.443
  21130091.044   -20440591.43643 -15909880.49942  21130093.784    21130091.768
  21608323.995   -19504716.11243 -15015198.71342  21608326.103    21608324.943
 04  3 24  0 27 30.0000000  0  8G15G22G18G 9G31G21G14G 3
  20055491.375   -26504560.77344 -20640303.17342  20055493.277    20055491.314
  20700176.898   -26070073.15444 -20301854.11142  20700177.807    20700172.906
  21897447.605   -21112852.81343 -16389072.61042  21897449.899    21897447.150
  23566371.634    -3957189.13243  -3075028.43442  23566374.198    23566374.410
  23040030.538   -10319527.43943  -7740314.25242  23040033.064    23040032.850
  22274238.211   -16490690.11543 -12791986.95542  22274240.136    22274238.242
  21116945.237   -20509672.90944 -15963710.14042  21116947.939    21116945.882
  21610963.533   -19490845.05843 -15004390.09942  21610965.676    21610964.552
 04  3 24  0 28  0.0000000  0  8G15G22G18G 9G31G21G14G 3
  20054811.217   -26508135.08444 -20643088.34242  20054813.099    20054811.137
  20703101.285   -26054705.49644 -20289879.30142  20703102.187    20703097.283
  21908803.562   -21053176.80243 -16342571.83642  21908805.840    21908803.091
  23564902.788    -3964907.66243  -3081042.84842  23564905.306    23564905.751
  23029962.939   -10372433.41343  -7781539.62342  23029965.456    23029965.052
  22288350.879   -16416528.11843 -12734198.45042  22288352.726    22288350.872
  21103885.934   -20578299.84044 -16017185.58842  21103888.641    21103886.516
  21613708.034   -19476422.77243 -14993151.95442  21613710.166    21613708.991
 04  3 24  0 28 30.0000000  0  8G15G22G18G 9G31G21G14G 3
  20054207.624   -26511306.85544 -20645559.84242  20054209.487    20054207.551
  20706067.402   -26039118.44444 -20277733.53242  20706068.317    20706063.429
  21920181.432   -20993385.77643 -16295981.44142  21920183.699    21920180.944
  23563542.287    -3972057.97843  -3086614.48142  23563544.670    23563545.060
  23019992.020   -10424831.09443  -7822368.91442  23019994.614    23019994.086
  22302519.941   -16342069.78543 -12676179.02042  22302521.764    22302519.891
  21090912.930   -20646472.75143 -16070307.25342  21090915.660    21090913.553
  21616556.874   -19461452.30443 -14981486.65742  21616559.015    21616557.780
 04  3 24  0 29  0.0000000  0  8G15G22G18G 9G31G21G14G 3
  20053682.352   -26514067.15644 -20647710.71742  20053684.202    20053682.284
  20709076.594   -26023305.15644 -20265411.47842  20709077.501    20709072.610
  21931582.520   -20933472.81143 -16249296.03442  21931584.761    21931582.009
  23562291.482    -3978631.37943  -3091736.56042  23562293.832    23562294.027
  23010119.541   -10476711.08143  -7862794.79842  23010122.118    23010121.620
  22316746.549   -16267308.17143 -12617923.26842  22316748.434    22316746.594
  21078028.170   -20714182.27043 -16123067.83642  21078030.861    21078028.795
  21619511.264   -19445926.73643 -14969388.81442  21619513.438    21619512.183
 04  3 24  0 29 30.0000000  0  8G15G22G18G 9G31G21G14G 3
  20053234.290   -26516421.75644 -20649545.46142  20053236.130    20053234.194
  20712127.284   -26007273.59944 -20252919.34542  20712128.180    20712123.304
  21943005.253   -20873446.00043 -16202521.90642  21943007.505    21943004.734
  23561149.170    -3984633.76043  -3096413.70742  23561151.471    23561151.751
  23000344.598   -10528078.75343  -7902821.50442  23000347.165    23000346.618
  22331029.543   -16192250.82643 -12559437.07742  22331031.401    22331029.554
  21065230.565   -20781433.99343 -16175471.69942  21065233.227    21065231.137
  21622569.763   -19429853.89343 -14956864.52042  21622571.927    21622570.751
 04  3 24  0 30  0.0000000  0  8G15G22G18G 9G31G21G14G 3
  20052864.216   -26518366.48044 -20651060.81642  20052866.068    20052864.143
  20715219.885   -25991021.76644 -20240255.56942  20715220.766    20715215.931
  21954450.058   -20813303.31843 -16155657.49642  21954452.285    21954449.506
  23560116.328    -3990061.06243  -3100642.73542  23560118.612    23560119.038
  22990667.971   -10578929.50843  -7942445.41142  22990670.555    22990669.963
  22345369.276   -16116895.37643 -12500718.60742  22345371.131    22345369.273
  21052520.971   -20848222.85743 -16227514.88142  21052523.665    21052521.560
  21625732.893   -19413231.61243 -14943912.09342  21625735.036    21625733.897
 04  3 24  0 30 30.0000000  0  8G15G22G18G 9G31G21G14G 3
  20052572.409   -26519899.90044 -20652255.67842  20052574.285    20052572.367
  20718354.265   -25974550.47044 -20227420.78342  20718355.124    20718350.319
  21965916.809   -20753045.21643 -16108703.15742  21965919.069    21965916.280
  23559193.177    -3994912.14643  -3104422.77442  23559195.606    23559195.880
  22981090.133   -10629261.59643  -7981665.15442  22981092.661    22981092.061
  22359765.712   -16041241.93043 -12441767.92842  22359767.543    22359765.747
  21039899.696   -20914547.47343 -16279196.31842  21039902.387    21039900.302
  21629000.383   -19396060.77743 -14930532.22242  21629002.540    21629001.423
 04  3 24  0 31  0.0000000  0  8G15G22G18G 9G31G21G14G 3
  20052358.149   -26521025.81044 -20653133.00042  20052360.053    20052358.098
  20721529.261   -25957865.51744 -20214419.51242  20721530.134    20721525.317
  21977404.497   -20692677.17443 -16061663.14742  21977406.741    21977403.966
  23558378.953    -3999190.71143  -3107756.68142  23558381.501    23558381.753
  22971610.319   -10679078.28143  -8020483.29142  22971612.843    22971612.207
  22374217.669   -15965296.08843 -12382589.39742  22374219.574    22374217.815
  21027366.254   -20980410.98543 -16330518.45742  21027368.916    21027366.812
  21632371.139   -19378347.18843 -14916729.42742  21632373.271    21632372.190
 04  3 24  0 31 30.0000000  0  8G15G22G18G 9G31G21G14G 3
  20052223.353   -26521734.21844 -20653684.99742  20052225.265    20052223.288
  20724746.424   -25940959.10144 -20201245.67242  20724747.275    20724742.504
  21988914.582   -20632191.35343 -16014531.36542  21988916.824    21988914.064
  23557675.647    -4002886.84143  -3110636.75942  23557677.834    23557678.272
  22962230.447   -10728369.36943  -8058891.87642  22962232.955    22962232.305
  22388726.856   -15889049.96643 -12323176.88842  22388728.747    22388727.029
  21014922.428   -21045803.19943 -16381473.35042  21014925.150    21014923.009
  21635846.654   -19360083.40243 -14902497.91042  21635848.780    21635847.696
 04  3 24  0 32  0.0000000  0  8G15G22G18G 9G31G21G14G 3
  20052166.805   -26522031.18144 -20653916.38942  20052168.720    20052166.766
  20728004.171   -25923839.41844 -20187905.64942  20728005.033    20728000.246
  22000445.542   -20571595.91143 -15967314.17142  22000447.801    22000445.058
  23557081.686    -4006007.00843  -3113068.04242  23557083.977    23557084.431
  22952949.643   -10777140.53243  -8096895.32142  22952952.042    22952951.386
  22403291.702   -15812511.18743 -12263536.33342  22403293.648    22403291.897
  21002567.306   -21110729.57544 -16432065.25042  21002569.987    21002567.843
  21639425.271   -19341277.56943 -14887844.01942  21639427.417    21639426.345
 04  3 24  0 32 30.0000000  0  8G15G22G18G 9G31G21G14G 3
  20052189.451   -26521912.07944 -20653823.57842  20052191.328    20052189.409
  20731303.020   -25906503.74344 -20174397.32442  20731303.871    20731299.094
  22011997.836   -20510888.11443 -15920009.42442  22012000.107    22011997.394
  23556598.638    -4008546.71643  -3115046.96942  23556601.002    23556600.955
  22943768.652   -10825386.63843  -8134489.64442  22943771.027    22943770.373
  22417912.792   -15735676.94343 -12203665.53642  22417914.719    22417913.027
  20990301.728   -21175185.32243 -16482290.42742  20990304.450    20990302.248
  21643107.484   -19321927.07643 -14872765.71342  21643109.645    21643108.600
 04  3 24  0 33  0.0000000  0  8G15G22G18G 9G31G21G14G 3
  20052291.196   -26521377.31244 -20653406.87342  20052293.045    20052291.150
  20734642.469   -25888954.57244 -20160722.63742  20734643.317    20734638.567
  22023571.146   -20450070.08543 -15872618.77942  22023573.402    22023570.660
  23556225.699    -4010506.61243  -3116574.09042  23556228.039    23556228.022
  22934687.473   -10873107.80043  -8171674.90942  22934689.807    22934689.308
  22432589.716   -15658549.28143 -12143566.11442  22432591.640    22432590.019
  20978125.677   -21239170.36443 -16532148.83442  20978128.416    20978126.214
  21646893.022   -19302034.35643 -14857264.90342  21646895.121    21646894.002
 04  3 24  0 33 30.0000000  0  8G15G22G18G 9G31G21G14G 3
  20052472.484   -26520424.71544 -20652664.58342  20052474.302    20052472.412
  20738022.651   -25871191.42644 -20146881.21242  20738023.521    20738018.761
  22035165.438   -20389141.59643 -15825142.06142  22035167.699    22035164.981
  23555963.088    -4011884.72743  -3117647.98642  23555965.486    23555965.861
  22925706.748   -10920301.42143  -8208449.09842  22925708.968    22925708.686
  22447322.469   -15581127.87243 -12083237.78542  22447324.474    22447322.853
  20966039.784   -21302681.98743 -16581638.33742  20966042.475    20966040.235
  21650781.668   -19281599.67843 -14841341.78342  21650783.748    21650782.584
 04  3 24  0 34  0.0000000  0  8G15G22G18G 9G31G21G14G 3
  20052733.296   -26519054.22544 -20651596.66742  20052735.133    20052733.174
  20741443.180   -25853216.40644 -20132874.69642  20741444.059    20741439.265
  22046780.460   -20328104.46043 -15777580.67942  22046782.715    22046779.999
  23555811.403    -4012681.53143  -3118268.83842  23555813.901    23555814.290
  22916826.619   -10966967.00643  -8244811.86142  22916828.783    22916828.504
  22462110.852   -15503414.31643 -12022681.81942  22462112.826    22462111.222
  20954044.053   -21365719.84943 -16630758.67342  20954046.738    20954044.450
  21654772.940   -19260625.10943 -14824997.96742  21654775.041    21654773.971
 04  3 24  0 34 30.0000000  0  8G15G22G18G 9G31G21G14G 3
  20053073.821   -26517264.67444 -20650202.20642  20053075.684    20053073.710
  20744903.793   -25835030.65244 -20118703.96842  20744904.698    20744899.894
  22058415.981   -20266959.42143 -15729935.22142  22058418.254    22058415.538
  23555770.833    -4012896.03443  -3118435.89142  23555773.324    23555773.367
  22908046.870   -11013103.33243  -8280762.19442  22908049.091    22908048.969
  22476954.813   -15425409.46443 -11961898.88242  22476956.754    22476955.092
  20942138.637   -21428282.56543 -16679508.76542  20942141.355    20942139.139
  21658866.823   -19239111.70843 -14808234.28742  21658868.919    21658867.881
 04  3 24  0 35  0.0000000  0  8G15G22G18G 9G31G21G14G 3
  20053494.630   -26515053.43344 -20648479.15642  20053496.505    20053494.503
  20748404.700   -25816633.45044 -20104368.48042  20748405.619    20748400.767
  22070072.289   -20205705.34443 -15682204.80342  22070074.529    22070071.851
  23555841.247    -4012525.49443  -3118147.10242  23555843.808    23555843.665
  22899368.618   -11058707.21143  -8316297.65342  22899370.774    22899370.677
  22491854.282   -15347112.34943 -11900888.19342  22491856.241    22491854.649
  20930324.327   -21490367.07244 -16727886.23142  20930326.987    20930324.828
  21663063.317   -19217058.97143 -14791050.34242  21663065.441    21663064.368
 04  3 24  0 35 30.0000000  0  8G15G22G18G 9G31G21G14G 3
  20053995.784   -26512419.84644 -20646427.00642  20053997.658    20053995.658
  20751945.668   -25798025.74844 -20089868.96242  20751946.598    20751941.710
  22081749.041   -20144343.78343 -15634390.62042  22081751.293    22081748.609
  23556022.643    -4011569.79443  -3117402.41342  23556025.142    23556025.392
  22890791.895   -11103777.69743  -8351417.47342  22890794.016    22890793.973
  22506809.179   -15268523.64543 -11839650.29842  22506811.174    22506809.637
  20918601.184   -21551972.27944 -16775890.21642  20918603.883    20918601.648
  21667362.201   -19194468.35843 -14773447.27542  21667364.330    21667363.180
 04  3 24  0 36  0.0000000  0  8G15G22G18G 9G31G21G14G 3
  20054576.693   -26509367.18444 -20644048.30742  20054578.548    20054576.549
  20755525.643   -25779213.05044 -20075209.70942  20755526.582    20755521.636
  22093445.293   -20082879.51043 -15586496.40442  22093447.575    22093444.900
  23556315.287    -4010032.70143  -3116204.62942  23556317.739    23556317.953
  22882316.011   -11148317.80043  -8386123.98842  22882318.075    22882318.257
  22521818.646   -15189648.72943 -11778189.38242  22521820.572    22521819.082
  20906968.657   -21613101.34944 -16823523.18142  20906971.329    20906969.070
  21671762.366   -19171345.55343 -14755429.51842  21671764.483    21671763.285
 04  3 24  0 36 30.0000000  0  8G15G22G18G 9G31G21G14G 3
  20055238.830   -26505887.60144 -20641336.94342  20055240.669    20055238.673
  20759145.692   -25760189.47144 -20060386.13542  20759146.636    20759141.673
  22105162.165   -20021306.97543 -15538517.83142  22105164.424    22105161.806
  23556720.131    -4007906.66243  -3114547.91142  23556722.491    23556722.500
  22873942.725   -11192319.45643  -8420410.94542  22873944.708    22873944.988
  22536883.700   -15110481.70343 -11716500.85342  22536885.622    22536884.082
  20895428.291   -21673746.16644 -16870778.81242  20895430.927    20895428.669
  21676264.720   -19147685.06743 -14736992.78442  21676266.842    21676265.821
 04  3 24  0 37  0.0000000  0  8G15G22G18G 9G31G21G14G 3
  20055981.370   -26501985.41644 -20638296.27842  20055983.211    20055981.233
  20762804.694   -25740961.38244 -20045403.20342  20762805.629    20762800.613
  22116898.522   -19959631.99443 -15490459.43042  22116900.749    22116898.212
  23557235.840    -4005196.33143  -3112435.93342  23557238.135    23557238.176
  22865671.063   -11235786.79343  -8454281.55842  22865673.021    22865673.287
  22552003.265   -15031028.55243 -11654589.36342  22552005.131    22552003.495
  20883979.331   -21733910.56044 -16917660.09242  20883981.987    20883979.710
  21680868.220   -19123493.61843 -14718142.31142  21680870.316    21680869.364
 04  3 24  0 37 30.0000000  0  8G15G22G18G 9G31G21G14G 3
  20056805.259   -26497655.74244 -20634922.50942  20056807.110    20056805.144
  20766503.130   -25721525.82444 -20030258.60942  20766504.039    20766499.070
  22128654.998   -19897851.42843 -15442318.74842  22128657.216    22128654.729
  23557863.523    -4001897.21543  -3109865.16242  23557865.815    23557865.800
  22857502.187   -11278714.54243  -8487731.70042  22857504.121    22857504.375
  22567177.715   -14951286.02643 -11592452.38542  22567179.665    22567178.107
  20872622.810   -21793589.39444 -16964163.01242  20872625.444    20872623.154
  21685573.257   -19098768.62243 -14698876.09442  21685575.339    21685574.380
 04  3 24  0 38  0.0000000  0  8G15G22G18G 9G31G21G14G 3
  20057710.135   -26492900.67144 -20631217.26042  20057711.985    20057710.035
  20770240.270   -25701886.68144 -20014955.38442  20770241.182    20770236.278
  22140430.861   -19835968.82343 -15394098.55942  22140433.050    22140430.626
  23558602.910    -3998011.75243  -3106837.49342  23558605.134    23558605.137
  22849435.644   -11321104.43543  -8520762.74442  22849437.648    22849437.839
  22582406.583   -14871258.21343 -11530093.10842  22582408.559    22582406.992
  20861358.255   -21852784.65744 -17010289.12642  20861360.919    20861358.615
  21690378.942   -19073514.41043 -14679197.49742  21690381.050    21690380.111
 04  3 24  0 38 30.0000000  0  8G15G22G18G 9G31G21G14G 3
  20058696.211   -26487718.95844 -20627179.56442  20058698.039    20058696.097
  20774016.079   -25682044.72844 -19999494.12142  20774016.969    20774012.079
  22152225.919   -19773985.22043 -15345799.67042  22152228.128    22152225.753
  23559454.035    -3993539.38043  -3103352.48442  23559456.348    23559456.222
  22841471.757   -11362955.17143  -8553373.66242  22841473.778    22841473.928
  22597689.737   -14790945.31743 -11467511.70642  22597691.673    22597690.029
  20850186.077   -21911494.56844 -17056037.03842  20850188.773    20850186.420
  21695285.049   -19047732.20743 -14659107.48342  21695287.162    21695286.282
 04  3 24  0 39  0.0000000  0  8G15G22G18G 9G31G21G14G 3
  20059764.137   -26482106.91644 -20622806.54442  20059765.990    20059764.016
  20777830.939   -25661997.90044 -19983873.21642  20777831.743    20777826.874
  22164040.672   -19711898.44943 -15297420.38342  22164042.878    22164040.520
  23560417.400    -3988476.61543  -3099407.44642  23560419.748    23560419.575
  22833611.162   -11404262.70943  -8585561.29742  22833613.236    22833613.300
  22613027.389   -14710345.49643 -11404706.70442  22613029.339    22613027.590
  20839107.002   -21969715.09744 -17101403.62242  20839109.688    20839107.321
  21700292.058   -19021420.47543 -14638604.84542  21700294.153    21700293.279
 04  3 24  0 39 30.0000000  0  8G15G22G18G 9G31G21G14G 3
  20060914.073   -26476063.93644 -20618097.72942  20060915.928    20060913.937
  20781684.457   -25641747.43344 -19968093.63542  20781685.252    20781680.440
  22175874.920   -19649709.27043 -15248961.30542  22175877.118    22175874.741
  23561492.949    -3982823.24743  -3095002.20142  23561495.343    23561495.340
  22825854.233   -11445026.10543  -8617324.95042  22825856.327    22825856.146
  22628419.418   -14629459.76443 -11341678.92742  22628421.354    22628419.663
  20828121.275   -22027445.38544 -17146388.19442  20828123.931    20828121.513
  21705399.482   -18994580.77943 -14617690.80742  21705401.593    21705400.755
 04  3 24  0 40  0.0000000  0  8G15G22G18G 9G31G21G14G 3
  20062145.956   -26469590.31144 -20613053.34742  20062147.814    20062145.827
  20785576.272   -25621295.79744 -19952157.29442  20785577.099    20785572.276
  22187728.172   -19587420.21043 -15200424.39642  22187730.408    22187727.939
  23562680.837    -3976580.54243  -3090137.71642  23562683.242    23562683.198
  22818200.688   -11485245.84343  -8648664.95242  22818202.794    22818202.547
  22643865.493   -14548290.75943 -11278430.40442  22643867.392    22643865.665
  20817228.725   -22084685.94644 -17190991.16242  20817231.435    20817228.918
  21710606.824   -18967216.18243 -14596367.75642  21710608.944    21710608.066
 04  3 24  0 40 30.0000000  0  8G15G22G18G 9G31G21G14G 3
  20063459.724   -26462686.36844 -20607673.65242  20063461.572    20063459.621
  20789505.988   -25600645.06644 -19936065.81142  20789506.827    20789501.990
  22199600.118   -19525032.98043 -15151810.98342  22199602.338    22199599.824
  23563980.805    -3969748.89643  -3084814.23242  23563983.326    23563983.047
  22810650.602   -11524921.87543  -8679581.30142  22810652.752    22810652.417
  22659365.064   -14466840.22643 -11214962.52642  22659366.996    22659365.317
  20806429.426   -22141436.40444 -17235212.23342  20806432.115    20806429.623
  21715913.517   -18939329.29843 -14574637.72942  21715915.629    21715914.782
 04  3 24  0 41  0.0000000  0  8G15G22G18G 9G31G21G14G 3
  20064856.071   -26455348.60944 -20601955.92242  20064857.895    20064855.973
  20793473.956   -25579793.34644 -19919817.71342  20793474.825    20793469.929
  22211491.133   -19462545.71843 -15103119.62942  22211493.301    22211490.732
  23565393.546    -3962325.37143  -3079029.66242  23565396.066    23565395.670
  22803204.738   -11564050.40643  -8710071.02442  22803206.894    22803206.430
  22674918.456   -14385106.41343 -11151273.88642  22674920.426    22674918.900
  20795724.082   -22197693.09744 -17279048.55842  20795726.765    20795724.279
  21721319.886   -18910918.69943 -14552499.60742  21721321.970    21721321.107
 04  3 24  0 41 30.0000000  0  8G15G22G18G 9G31G21G14G 3
  20066334.701   -26447578.22844 -20595901.08442  20066336.515    20066334.653
  20797479.552   -25558743.77244 -19903415.44142  20797480.429    20797475.500
  22223400.595   -19399961.14943 -15054352.45542  22223402.796    22223400.144
  23566918.425    -3954311.62643  -3072785.15342  23566921.008    23566920.711
  22795862.799   -11602632.56943  -8740135.00642  22795864.994    22795864.433
  22690525.294   -14303092.43343 -11087366.96642  22690527.214    22690525.669
  20785112.479   -22253457.17944 -17322501.02742  20785115.158    20785112.647
  21726825.250   -18881988.24643 -14529956.41142  21726827.325    21726826.356
 04  3 24  0 42  0.0000000  0  8G15G22G18G 9G31G21G14G 3
  20067896.456   -26439371.09144 -20589505.91242  20067898.293    20067896.414
  20801523.222   -25537494.15644 -19886857.29042  20801524.120    20801519.121
  22235329.065   -19337276.65843 -15005507.41842  22235331.316    22235328.566
  23568556.231    -3945704.20143  -3066078.05142  23568558.769    23568558.685
  22788625.623   -11640664.02043  -8769769.85642  22788627.847    22788627.215
  22706185.842   -14220795.68643 -11023239.69542  22706187.805    22706186.243
  20774595.518   -22308724.15144 -17365566.13742  20774598.160    20774595.609
  21732429.887   -18852536.05543 -14507006.66642  21732431.975    21732430.951
 04  3 24  0 42 30.0000000  0  8G15G22G18G 9G31G21G14G 3
  20069541.023   -26430728.87344 -20582771.71542  20069542.859    20069540.955
  20805604.248   -25516048.00344 -19870145.99442  20805605.166    20805600.146
  22247275.887   -19274495.73643 -14956587.24542  22247278.166    22247275.366
  23570306.692    -3936505.38243  -3058910.10042  23570309.213    23570309.153
  22781492.934   -11678146.35943  -8798976.83142  22781495.116    22781494.464
  22721899.601   -14138219.64543 -10958894.78542  22721901.519    22721900.031
  20764172.830   -22363495.63544 -17408245.15242  20764175.486    20764172.901
  21738132.861   -18822566.58343 -14483653.84142  21738134.959    21738134.000
 04  3 24  0 43  0.0000000  0  8G15G22G18G 9G31G21G14G 3
  20071268.464   -26421651.11544 -20575698.13542  20071270.314    20071268.356
  20809722.522   -25494406.28944 -19853282.31142  20809723.433    20809718.394
  22259240.808   -19211619.60243 -14907592.87942  22259243.132    22259240.341
  23572169.778    -3926715.18643  -3051281.30042  23572172.399    23572172.159
  22774464.912   -11715078.89243  -8827755.39542  22774467.034    22774466.380
  22737666.277   -14055365.75143 -10894333.38042  22737668.183    22737666.688
  20753844.559   -22417770.74644 -17450537.38742  20753847.233    20753844.624
  21743933.971   -18792081.50243 -14459899.23942  21743936.078    21743935.128
 04  3 24  0 43 30.0000000  0  8G15G22G18G 9G31G21G14G 3
  20073079.389   -26412134.63744 -20568282.69342  20073081.245    20073079.258
  20813878.240   -25472567.77844 -19836265.27942  20813879.145    20813874.116
  22271224.242   -19148646.26843 -14858522.76642  22271226.583    22271223.759
  23574145.823    -3916330.92343  -3043189.62742  23574148.450    23574148.270
  22767542.081   -11751458.35343  -8856102.97342  22767544.221    22767543.620
  22753485.967   -13972232.34343 -10829554.17542  22753487.970    22753486.516
  20743611.354   -22471546.29144 -17492440.35442  20743613.983    20743611.421
  21749833.433   -18761079.94543 -14435742.20042  21749835.557    21749834.464
 04  3 24  0 44  0.0000000  0  8G15G22G18G 9G31G21G14G 3
  20074973.808   -26402179.40744 -20560525.36542  20074975.676    20074973.662
  20818071.099   -25450534.17044 -19819096.22542  20818071.998    20818066.995
  22283225.882   -19085577.29743 -14809378.13642  22283228.235    22283225.396
  23576234.704    -3905353.06443  -3034635.43442  23576237.170    23576237.083
  22760724.483   -11787284.46843  -8884019.38342  22760726.618    22760726.080
  22769358.663   -13888821.27043 -10764558.60442  22769360.640    22769359.152
  20733473.328   -22524821.88344 -17533953.74042  20733475.950    20733473.329
  21755830.624   -18729564.35943 -14411184.61742  21755832.749    21755831.651
 04  3 24  0 44 30.0000000  0  8G15G22G18G 9G31G21G14G 3
  20076951.679   -26391785.57444 -20552426.27242  20076953.541    20076951.544
  20822300.702   -25428307.20744 -19801776.50242  20822301.617    20822296.657
  22295245.446   -19022414.35543 -14760160.28542  22295247.779    22295244.959
  23578436.526    -3893782.55143  -3025619.40342  23578438.910    23578438.867
  22754012.195   -11822557.31743  -8911504.67842  22754014.304    22754013.733
  22785283.902   -13805134.35143 -10699348.09842  22785285.799    22785284.324
  20723430.437   -22577597.32844 -17575077.40342  20723433.069    20723430.416
  21761925.066   -18697537.54543 -14386228.67742  21761927.205    21761926.203
 04  3 24  0 45  0.0000000  0  8G15G22G18G 9G31G21G14G 3
  20079013.248   -26380951.88544 -20543984.43342  20079015.106    20079013.123
  20826567.036   -25405887.28344 -19784306.42642  20826567.954    20826563.025
  22307282.808   -18959157.39243 -14710869.16742  22307285.184    22307282.372
  23580751.266    -3881618.76743  -3016141.08342  23580753.746    23580753.555
  22747405.586   -11857275.50343  -8938557.76642  22747407.654    22747407.113
  22801261.384   -13721172.06743 -10633922.99842  22801263.325    22801261.970
  20713482.991   -22629871.26644 -17615810.28642  20713485.638    20713482.943
  21768116.633   -18665000.67643 -14360875.29342  21768118.784    21768117.803
 04  3 24  0 45 30.0000000  0  8G15G22G18G 9G31G21G14G 3
  20081158.862   -26369676.61344 -20535198.50942  20081160.695    20081158.746
  20830870.102   -25383274.21544 -19766685.84942  20830871.045    20830866.117
  22319338.072   -18895806.49243 -14661504.85542  22319340.446    22319337.632
  23583178.972    -3868860.64043  -3006199.64842  23583181.513    23583181.458
  22740904.776   -11891437.21143  -8965177.24042  22740906.873    22740906.340
  22817291.315   -13636934.64943 -10568283.52842  22817293.215    22817291.880
  20703631.304   -22681641.83644 -17656150.93442  20703633.956    20703631.285
  21774405.142   -18631954.31443 -14335124.90242  21774407.290    21774406.276
 04  3 24  0 46  0.0000000  0  8G15G22G18G 9G31G21G14G 3
  20083388.707   -26357958.72644 -20526067.68942  20083390.512    20083388.602
  20835209.827   -25360468.77844 -19748915.37042  20835210.752    20835205.841
  22331411.085   -18832362.49943 -14612067.99942  22331413.454    22331410.674
  23585719.834    -3855507.68143  -2995794.73142  23585722.149    23585722.349
  22734509.994   -11925041.46943  -8991362.33942  22734512.094    22734511.580
  22833373.550   -13552422.40143 -10502429.91242  22833375.442    22833374.056
  20693875.641   -22732907.95444 -17696098.50142  20693878.281    20693875.626
  21780790.266   -18598400.20543 -14308978.86742  21780792.415    21780791.399
 04  3 24  0 46 30.0000000  0  8G15G22G18G 9G31G21G14G 3
  20085702.597   -26345799.17644 -20516592.71742  20085704.410    20085702.510
  20839585.608   -25337473.72044 -19730997.13642  20839586.564    20839581.634
  22343501.414   -18768827.45143 -14562560.19242  22343503.749    22343501.045
  23588373.635    -3841561.69243  -2984927.68142  23588376.061    23588376.077
  22728221.271   -11958089.01943  -9017113.63942  22728223.301    22728222.756
  22849507.510   -13467638.18643 -10436364.36742  22849509.405    22849508.007
  20684215.833   -22783670.48244 -17735653.66042  20684218.466    20684215.761
  21787271.465   -18564341.54143 -14282439.67442  21787273.564    21787272.555
 04  3 24  0 47  0.0000000  0  8G15G22G18G 9G31G21G14G 3
  20088100.567   -26333197.84944 -20506773.49942  20088102.388    20088100.471
  20843997.272   -25314290.35444 -19712932.16542  20843998.218    20843993.253
  22355608.883   -18705202.45043 -14512982.28842  22355611.183    22355608.502
  23591140.318    -3827023.29543  -2973599.01042  23591142.890    23591142.609
  22722038.477   -11990579.65143  -9042430.98342  22722040.504    22722039.933
  22865692.928   -13382583.56243 -10370088.11242  22865694.819    22865693.482
  20674651.895   -22833928.97044 -17774816.06042  20674654.523    20674651.844
  21793848.237   -18529780.61043 -14255509.09842  21793850.342    21793849.353
 04  3 24  0 47 30.0000000  0  8G15G22G18G 9G31G21G14G 3
  20090583.250   -26320151.18344 -20496607.26542  20090585.088    20090583.140
  20848445.172   -25290916.71544 -19694718.93242  20848446.116    20848441.084
  22367733.886   -18641485.22643 -14463332.52942  22367736.222    22367733.500
  23594020.234    -3811889.57043  -2961806.44542  23594022.796    23594022.490
  22715962.364   -12022509.81643  -9067311.60042  22715964.400    22715963.881
  22881930.176   -13297256.80943 -10303599.80942  22881932.035    22881930.666
  20665184.564   -22883679.86644 -17813582.93742  20665187.177    20665184.499
  21800520.766   -18494716.44143 -14228186.39142  21800522.882    21800521.864
 04  3 24  0 48  0.0000000  0  8G15G22G18G 9G31G21G14G 3
  20093150.739   -26306658.95344 -20486093.84142  20093152.580    20093150.619
  20852928.971   -25267354.25944 -19676358.57042  20852929.912    20852924.891
  22379876.216   -18577676.97643 -14413611.83342  22379878.539    22379875.843
  23597013.046    -3796160.60343  -2949550.11042  23597015.652    23597015.616
  22709992.933   -12053879.13943  -9091755.18942  22709995.029    22709994.502
  22898218.907   -13211659.15643 -10236900.41742  22898220.743    22898219.410
  20655813.953   -22932922.48543 -17851953.74842  20655816.569    20655813.861
  21807288.645   -18459151.14443 -14200473.19542  21807290.780    21807289.756
 04  3 24  0 48 30.0000000  0  8G15G22G18G 9G31G21G14G 3
  20095803.555   -26292718.36444 -20475231.04542  20095805.408    20095803.421
  20857448.922   -25243601.75044 -19657850.11942  20857449.868    20857444.840
  22392036.193   -18513776.09943 -14363818.96742  22392038.536    22392035.827
  23600119.718    -3779834.68843  -2936828.60142  23600122.275    23600122.297
  22704130.656   -12084684.88043  -9115759.63242  22704132.836    22704132.272
  22914559.361   -13125789.80143 -10169989.30742  22914561.257    22914559.933
  20646540.564   -22981654.04243 -17889926.33442  20646543.169    20646540.496
  21814151.917   -18423084.58843 -14172369.41142  21814154.062    21814153.020
 04  3 24  0 49  0.0000000  0  8G15G22G18G 9G31G21G14G 3
  20098540.438   -26278336.00044 -20464024.00642  20098542.276    20098540.321
  20862003.499   -25219667.30444 -19639199.89942  20862004.401    20861999.441
  22404212.204   -18449790.92843 -14313960.41342  22404214.576    22404211.858
  23603338.743    -3762919.42143  -2923647.81242  23603341.345    23603341.049
  22698374.590   -12114933.71643  -9139330.13042  22698376.739    22698375.998
  22930949.898   -13039657.03743 -10102872.93642  22930951.829    22930950.576
  20637363.229   -23029881.25444 -17927505.92042  20637365.815    20637363.089
  21821108.823   -18386525.96443 -14143882.19742  21821110.991    21821109.872
 04  3 24  0 49 30.0000000  0  8G15G22G18G 9G31G21G14G 3
  20101363.002   -26263503.24944 -20452466.01542  20101364.858    20101362.893
  20866594.074   -25195543.79444 -19620402.35842  20866594.942    20866589.980
  22416405.657   -18385714.03043 -14264030.38942  22416408.020    22416405.313
  23606671.265    -3745406.83943  -2910001.61842  23606673.835    23606673.597
  22692725.972   -12144616.93943  -9162459.88742  22692728.183    22692727.428
  22947391.997   -12953253.83943 -10035545.84042  22947393.849    22947392.647
  20628283.534   -23077595.07144 -17964685.46042  20628286.150    20628283.372
  21828160.520   -18349469.02243 -14115006.68042  21828162.712    21828161.598
 04  3 24  0 50  0.0000000  0  8G15G22G18G 9G31G21G14G 3
  20104270.693   -26248223.10044 -20440559.40042  20104272.548    20104270.589
  20871219.734   -25171235.84944 -19601461.10042  20871220.595    20871215.653
  22428615.648   -18321549.86643 -14214032.36042  22428618.067    22428615.396
  23610116.609    -3727300.52443  -2895892.78942  23610119.148    23610119.179
  22687184.507   -12173737.51443  -9185151.20542  22687186.745    22687185.966
  22963884.565   -12866584.92943  -9968011.69242  22963886.467    22963885.186
  20619300.946   -23124798.52544 -18001467.32042  20619303.551    20619300.782
  21835306.002   -18311919.45243 -14085747.30242  21835308.152    21835307.053
 04  3 24  0 50 30.0000000  0  8G15G22G18G 9G31G21G14G 3
  20107264.268   -26232491.72344 -20428301.18442  20107266.126    20107264.144
  20875880.884   -25146741.17044 -19582374.34042  20875881.788    20875876.816
  22440842.765   -18257295.88443 -14163964.34442  22440845.215    22440842.542
  23613675.763    -3708597.16843  -2881318.72942  23613678.197    23613678.312
  22681750.967   -12202291.38543  -9207400.94242  22681753.272    22681752.349
  22980428.155   -12779648.24443  -9900268.90942  22980430.130    22980428.812
  20610416.326   -23171487.33044 -18037848.15342  20610418.919    20610416.134
  21842545.501   -18273875.64143 -14056102.80042  21842547.623    21842546.588
 04  3 24  0 51  0.0000000  0  8G15G22G18G 9G31G21G14G 3
  20110342.247   -26216316.96244 -20415697.47242  20110344.099    20110342.114
  20880575.939   -25122068.57844 -19563148.94442  20880576.810    20880571.858
  22453085.428   -18192960.11143 -14113832.58842  22453087.830    22453085.231
  23617346.960    -3689305.60143  -2866286.28142  23617349.381    23617349.334
  22676423.554   -12230286.64443  -9229215.40042  22676425.905    22676424.978
  22997020.840   -12692453.02143  -9832324.65242  22997022.789    22997021.604
  20601628.087   -23217669.62044 -18073834.29442  20601630.707    20601627.866
  21849877.017   -18235348.09543 -14026081.36242  21849879.152    21849878.137
 04  3 24  0 51 30.0000000  0  8G15G22G18G 9G31G21G14G 3
  20113506.908   -26199686.58844 -20402738.74342  20113508.778    20113506.802
  20885306.794   -25097207.60844 -19543776.75942  20885307.691    20885302.746
  22465345.602   -18128532.55743 -14063629.31742  22465347.994    22465345.397
  23621132.100    -3669414.83543  -2850786.92342  23621134.579    23621134.410
  22671204.856   -12257711.15343  -9250585.11942  22671207.208    22671206.231
  23013664.608   -12604988.95843  -9764170.91442  23013666.630    23013665.489
  20592938.569   -23263333.04344 -18109416.13542  20592941.196    20592938.341
  21857302.473   -18196327.10743 -13995675.43242  21857304.599    21857303.601
 04  3 24  0 52  0.0000000  0  8G15G22G18G 9G31G21G14G 3
  20116756.932   -26182607.41444 -20389430.29742  20116758.798    20116756.879
  20890071.958   -25072166.56344 -19524264.25742  20890072.861    20890067.904
  22477621.694   -18064021.14143 -14013360.69342  22477624.068    22477621.496
  23625029.688    -3648932.32643  -2834826.51342  23625032.131    23625032.022
  22666093.551   -12284571.84443  -9271515.50242  22666095.925    22666094.748
  23030358.106   -12517264.79543  -9695814.49342  23030360.010    23030358.941
  20584346.493   -23308484.46243 -18144599.00442  20584349.120    20584346.250
  21864819.890   -18156822.51843 -13964892.66142  21864822.055    21864821.096
 04  3 24  0 52 30.0000000  0  8G15G22G18G 9G31G21G14G 3
  20120093.181   -26165075.36044 -20375768.95942  20120095.007    20120093.094
  20894871.904   -25046942.73444 -19504609.32242  20894872.811    20894867.813
  22489914.382   -17999422.65843 -13963024.23142  22489916.761    22489914.156
  23629040.533    -3627854.70543  -2818402.36742  23629043.010    23629042.856
  22661090.128   -12310864.45943  -9292003.22442  22661092.573    22661091.369
  23047101.723   -12429277.53643  -9627253.07242  23047103.583    23047102.470
  20575852.721   -23353119.41244 -18179379.43542  20575855.323    20575852.437
  21872429.840   -18116832.14143 -13933731.36142  21872431.984    21872431.038
 04  3 24  0 53  0.0000000  0  8G15G22G18G 9G31G21G14G 3
  20123515.052   -26147093.18144 -20361756.87142  20123516.894    20123514.989
  20899705.806   -25021540.35144 -19484815.25042  20899706.739    20899701.704
  22502222.788   -17934741.63943 -13912623.45642  22502225.161    22502222.560
  23633164.014    -3606186.15343  -2801517.73042  23633166.564    23633166.233
  22656194.283   -12336592.02543  -9312050.65542  22656196.689    22656195.573
  23063894.184   -12341032.34043  -9558490.66342  23063896.151    23063894.987
  20567456.652   -23397240.91244 -18213759.77142  20567459.255    20567456.337
  21880131.183   -18076361.80143 -13902196.06342  21880133.311    21880132.352
 04  3 24  0 53 30.0000000  0  8G15G22G18G 9G31G21G14G 3
  20127023.876   -26128654.36044 -20347388.96242  20127025.720    20127023.780
  20904574.669   -24995954.28944 -19464878.05442  20904575.603    20904570.573
  22514547.975   -17869972.45543 -13862153.98542  22514550.344    22514547.745
  23637401.042    -3583920.63743  -2784167.94142  23637403.617    23637403.236
  22651407.389   -12361747.98043  -9331652.66642  22651409.744    22651408.590
  23080736.698   -12252524.20343  -9489523.35942  23080738.697    23080737.556
  20559159.555   -23440842.31744 -18247734.84242  20559162.165    20559159.224
  21887924.558   -18035407.32443 -13870283.52042  21887926.737    21887925.765
 04  3 24  0 54  0.0000000  0  8G15G22G18G 9G31G21G14G 3
  20130618.769   -26109762.90244 -20332668.34542  20130620.649    20130618.722
  20909477.514   -24970189.75744 -19444801.78542  20909478.433    20909473.437
  22526888.919   -17805120.27843 -13811619.84042  22526891.299    22526888.727
  23641750.649    -3561062.96643  -2766356.74742  23641753.149    23641752.901
  22646728.266   -12386336.53543  -9350812.54142  22646730.618    22646729.493
  23097628.208   -12163758.60643  -9420355.44442  23097630.186    23097629.186
  20550960.685   -23483927.68944 -18281307.80642  20550963.276    20550960.334
  21895808.805   -17993975.27543 -13837998.83842  21895810.987    21895810.034
 04  3 24  0 54 30.0000000  0  8G15G22G18G 9G31G21G14G 3
  20134300.105   -26090417.36644 -20317593.90242  20134301.996    20134300.060
  20914414.194   -24944247.11644 -19424586.73442  20914415.132    20914410.173
  22539245.722   -17740184.91843 -13761020.88042  22539248.061    22539245.580
  23646212.919    -3537612.79843  -2748083.88742  23646215.378    23646215.200
  22642157.429   -12410356.39543  -9369529.30042  22642159.730    22642158.538
  23114568.733   -12074735.84543  -9350987.13342  23114570.633    23114569.696
  20542860.290   -23526495.43544 -18314477.43142  20542862.906    20542859.929
  21903783.779   -17952066.91443 -13805343.01342  21903785.898    21903784.962
 04  3 24  0 55  0.0000000  0  8G15G22G18G 9G31G21G14G 3
  20138067.742   -26070618.12744 -20302165.92442  20138069.668    20138067.724
  20919384.503   -24918127.93144 -19404234.11542  20919385.424    20919380.515
  22551618.188   -17675167.37743 -13710357.88142  22551620.492    22551618.067
  23650787.777    -3513571.44143  -2729350.32242  23650790.321    23650789.988
  22637694.709   -12433807.97043  -9387803.23242  22637696.936    22637695.857
  23131557.937   -11985457.90943  -9281419.99142  23131559.719    23131558.785
  20534858.383   -23568545.76044 -18347243.86742  20534860.982    20534857.945
  21911848.808   -17909685.12043 -13772318.27442  21911850.899    21911849.966
 04  3 24  0 55 30.0000000  0  8G15G22G18G 9G31G21G14G 3
  20141922.477   -26050361.35944 -20286381.43042  20141924.380    20141922.449
  20924388.913   -24891829.36344 -19383741.71942  20924389.836    20924384.951
  22564006.767   -17610064.97643 -13659628.75442  22564009.066    22564006.671
  23655475.884    -3488935.83043  -2710153.70242  23655478.394    23655478.000
  22633340.833   -12456687.33543  -9405631.28342  22633343.035    22633342.091
  23148596.070   -11895922.52643  -9211652.24442  23148597.834    23148596.832
  20526955.640   -23610074.75844 -18379604.07642  20526958.258    20526955.182
  21920004.271   -17866828.48243 -13738923.53842  21920006.340    21920005.287
 04  3 24  0 56  0.0000000  0  8G15G22G18G 9G31G21G14G 3
  20145863.817   -26029649.73144 -20270242.50442  20145865.662    20145863.723
  20929426.706   -24865355.56344 -19363112.77642  20929427.594    20929422.702
  22576410.722   -17544881.80343 -13608836.70042  22576413.018    22576410.722
  23660276.213    -3463709.61843  -2690496.88842  23660278.764    23660278.429
  22629095.391   -12478997.52043  -9423015.83542  22629097.526    22629096.536
  23165682.175   -11806134.27243  -9141687.45642  23165684.085    23165683.047
  20519151.538   -23651085.32344 -18411560.31042  20519154.159    20519151.109
  21928248.978   -17823502.32743 -13705162.94142  21928251.085    21928250.003
 04  3 24  0 56 30.0000000  0  8G15G22G18G 9G31G21G14G 3
  20149891.773   -26008482.55844 -20253748.60842  20149893.627    20149891.701
  20934497.710   -24838707.23944 -19342347.84342  20934498.590    20934493.679
  22588830.114   -17479617.79843 -13557981.65542  22588832.353    22588830.081
  23665188.835    -3437893.24543  -2670380.24142  23665191.263    23665191.044
  22624958.209   -12500738.07543  -9439956.50842  22624960.299    22624959.321
  23182816.275   -11716093.96843  -9071526.27142  23182818.164    23182817.218
  20511446.196   -23691576.79044 -18443112.05542  20511448.843    20511445.783
  21936582.605   -17779708.66043 -13671038.04942  21936584.703    21936583.735
 04  3 24  0 57  0.0000000  0  8G15G22G18G 9G31G21G14G 3
  20154007.366   -25986855.12744 -20236896.07342  20154009.187    20154007.258
  20939602.613   -24811880.51644 -19321443.89942  20939603.515    20939598.628
  22601265.575   -17414269.03843 -13507060.57942  22601267.792    22601265.570
  23670214.501    -3411482.73743  -2649800.60342  23670216.933    23670216.814
  22620930.340   -12521904.10043  -9456449.50542  22620932.475    22620931.527
  23199999.092   -11625798.34343  -9001166.11642  23200000.911    23199999.965
  20503840.645   -23731543.93044 -18474255.22942  20503843.288    20503840.241
  21945005.655   -17735445.14943 -13636547.04742  21945007.723    21945006.901
 04  3 24  0 57 30.0000000  0  8G15G22G18G 9G31G21G14G 3
  20158209.650   -25964772.17944 -20219688.58642  20158211.472    20158209.506
  20944740.365   -24784881.39144 -19300405.61342  20944741.294    20944736.393
  22613715.967   -17348841.96943 -13456078.47142  22613718.177    22613715.906
  23675352.251    -3384483.97043  -2628762.54142  23675354.790    23675354.378
  22617010.894   -12542500.64843  -9472498.75142  22617013.007    22617012.049
  23217229.149   -11535253.68143  -8930611.92742  23217231.044    23217230.160
  20496333.934   -23770991.70844 -18504993.70842  20496336.597    20496333.537
  21953516.758   -17690719.43143 -13601695.88942  21953518.813    21953517.997
 04  3 24  0 58  0.0000000  0  8G15G22G18G 9G31G21G14G 3
  20162498.905   -25942232.00244 -20202124.81942  20162500.720    20162498.772
  20949910.963   -24757709.64244 -19279232.81342  20949911.927    20949907.034
  22626181.419   -17283335.69643 -13405034.64142  22626183.666    22626181.329
  23680602.045    -3356896.38643  -2607265.67542  23680604.642    23680603.985
  22613200.101   -12562526.26743  -9488103.12042  22613202.249    22613201.195
  23234506.614   -11444460.38543  -8859863.97142  23234508.502    23234507.686
  20488926.395   -23809918.71544 -18535326.39242  20488929.014    20488925.926
  21962115.637   -17645532.35443 -13566485.22742  21962117.695    21962116.912
 04  3 24  0 58 30.0000000  0  8G15G22G18G 9G31G21G14G 3
  20166876.666   -25919226.69244 -20184198.60742  20166878.510    20166876.551
  20955115.766   -24730358.41744 -19257920.16342  20955116.704    20955111.812
  22638663.284   -17217743.14743 -13353923.59442  22638665.545    22638663.160
  23685965.171    -3328712.74243  -2585304.36242  23685967.724    23685967.161
  22609499.451   -12581973.11043  -9503256.49242  22609501.663    22609500.502
  23251832.668   -11353411.95243  -8788917.23242  23251834.538    23251833.680
  20481619.386   -23848316.95543 -18565247.05042  20481622.031    20481618.929
  21970803.264   -17599878.54243 -13530910.87442  21970805.383    21970804.645
 04  3 24  0 59  0.0000000  0  8G15G22G18G 9G31G21G14G 3
  20171340.924   -25895766.88944 -20165918.24842  20171342.776    20171340.808
  20960352.412   -24702839.67344 -19236476.97842  20960353.347    20960348.461
  22651159.367   -17152076.14343 -13302754.52842  22651161.585    22651159.151
  23691439.245    -3299945.07843  -2562888.00342  23691441.811    23691441.589
  22605906.920   -12600852.11243  -9517967.39842  22605909.139    22605907.934
  23269204.793   -11262120.97343  -8717781.47342  23269206.696    23269205.846
  20474410.985   -23886197.19343 -18594764.07042  20474413.624    20474410.507
  21979577.125   -17553771.30343 -13494983.20342  21979579.241    21979578.631
 04  3 24  0 59 30.0000000  0  8G15G22G18G 9G31G21G14G 3
  20175892.764   -25871846.98044 -20147279.36442  20175894.611    20175892.621
  20965621.806   -24675148.84744 -19214899.70442  20965622.750    20965617.834
  22663670.515   -17086329.71743 -13251523.57742  22663672.731    22663670.245
  23697025.485    -3270588.50743  -2540012.72242  23697028.056    23697027.938
  22602423.437   -12619157.79643  -9532231.55242  22602425.699    22602424.459
  23286624.038   -11170583.00743  -8646453.26442  23286625.899    23286624.974
  20467302.261   -23923553.48944 -18623872.82542  20467304.920    20467301.800
  21988437.944   -17507207.50543 -13458699.76742  21988440.064    21988439.516
 04  3 24  1  0  0.0000000  0  8G15G22G18G 9G31G21G14G 3
  20180532.004   -25847467.50044 -20128282.37942  20180533.846    20180531.896
  20970923.672   -24647287.36244 -19193189.44742  20970924.606    20970919.645
  22676196.586   -17020504.88643 -13200231.52642  22676198.769    22676196.237
  23702723.581    -3240644.95243  -2516680.01442  23702726.172    23702725.941
  22599049.017   -12636890.96543  -9546049.60842  22599051.314    22599049.902
  23304089.982   -11078799.74843  -8574933.91942  23304091.817    23304090.893
  20460293.121   -23960386.52743 -18652573.84742  20460295.789    20460292.647
  21997385.137   -17460190.16943 -13422062.93142  21997387.208    21997386.630
 04  3 24  1  0 30.0000000  0  8G15G22G18G 9G31G21G14G 3
  20185259.149   -25822626.14944 -20108925.49242  20185260.986    20185259.068
  20976258.148   -24619254.52344 -19171345.67142  20976259.072    20976254.126
  22688737.877   -16954600.19443 -13148877.24642  22688739.987    22688737.430
  23708533.643    -3210113.16243  -2492888.94442  23708536.174    23708535.787
  22595783.911   -12654049.44743  -9559419.84442  22595786.229    22595784.809
  23321602.494   -10986771.06843  -8503223.35742  23321604.360    23321603.550
  20453384.000   -23996694.04944 -18680865.37642  20453386.634    20453383.488
  22006418.575   -17412719.55743 -13385072.88842  22006420.654    22006420.042
 04  3 24  1  1  0.0000000  0  8G15G22G18G 9G31G21G14G 3
  20190073.820   -25797325.06244 -20089210.37442  20190075.603    20190073.707
  20981624.630   -24591053.21944 -19149370.62642  20981625.553    20981620.649
  22701293.767   -16888618.78543 -13097463.18942  22701295.886    22701293.341
  23714454.929    -3178996.00843  -2468641.78842  23714457.457    23714457.237
  22592627.726   -12670635.69243  -9572344.18042  22592630.066    22592628.618
  23339160.920   -10894500.68343  -8431324.41542  23339162.793    23339162.056
  20446574.447   -24032478.24844 -18708749.12442  20446577.074    20446573.938
  22015537.246   -17364800.60143 -13347733.48442  22015539.358    22015538.746
 04  3 24  1  1 30.0000000  0  8G15G22G18G 9G31G21G14G 3
  20194976.254   -25771562.53544 -20069135.68942  20194978.042    20194976.154
  20987023.335   -24562682.71344 -19127263.73442  20987024.253    20987019.366
  22713864.295   -16822560.19243 -13045988.98242  22713866.432    22713863.946
  23720487.682    -3147293.04043  -2443938.18342  23720490.193    23720490.167
  22589580.768   -12686648.12843  -9584821.39742  22589583.086    22589581.580
  23356765.601   -10801988.30043  -8359236.94742  23356767.314    23356766.584
  20439864.881   -24067737.38144 -18736223.72842  20439867.481    20439864.319
  22024741.045   -17316434.26643 -13310045.47242  22024743.134    22024742.558
 04  3 24  1  2  0.0000000  0  8G15G22G18G 9G31G21G14G 3
  20199966.894   -25745336.72744 -20048700.00442  20199968.653    20199966.757
  20992454.370   -24534142.54944 -19105024.64042  20992455.278    20992450.340
  22726449.669   -16756423.41143 -12994453.83942  22726451.871    22726449.404
  23726632.144    -3115003.74443  -2418777.67842  23726634.646    23726634.605
  22586643.150   -12702085.33143  -9596850.38342  22586645.484    22586644.008
  23374416.381   -10709234.06743  -8286960.99742  23374417.963    23374417.161
  20433255.477   -24102469.77344 -18763287.88742  20433258.107    20433254.936
  22034029.923   -17267621.24543 -13272009.39142  22034032.007    22034031.394
 04  3 24  1  2 30.0000000  0  8G15G22G18G 9G31G21G14G 3
  20205045.318   -25718649.35544 -20027904.65742  20205047.105    20205045.209
  20997917.182   -24505435.33344 -19082655.37642  20997918.101    20997913.109
  22739049.553   -16690210.59043 -12942859.44842  22739051.784    22739049.328
  23732887.769    -3082131.00343  -2393162.49642  23732890.222    23732890.122
  22583814.560   -12716949.31743  -9608432.70642  22583816.901    22583815.513
  23392112.342   -10616241.18243  -8214499.09042  23392113.919    23392113.258
  20426745.953   -24136677.53543 -18789943.24242  20426748.563    20426745.347
  22043403.047   -17218365.92643 -13233628.66342  22043405.092    22043404.381
 04  3 24  1  3  0.0000000  0  8G15G22G18G 9G31G21G14G 3
  20210211.983   -25691498.14144 -20006747.87142  20210213.805    20210211.927
  21003411.980   -24476559.90544 -19060155.04142  21003412.913    21003407.887
  22751664.121   -16623920.54743 -12891204.88642  22751666.377    22751663.978
  23739254.584    -3048673.32143  -2367091.54142  23739257.151    23739256.689
  22581095.555   -12731238.08843  -9619566.80842  22581097.835    22581096.569
  23409853.772   -10523008.87143  -8141850.61342  23409855.416    23409854.828
  20420336.677   -24170358.08644 -18816187.78342  20420339.309    20420336.101
  22052860.102   -17168668.72843 -13194903.61642  22052862.181    22052861.479
 04  3 24  1  3 30.0000000  0  8G15G22G18G 9G31G21G14G 3
  20215466.912   -25663883.48044 -19985229.96142  20215468.727    20215466.811
  21008938.572   -24447517.43344 -19037524.54242  21008939.509    21008934.502
  22764293.239   -16557554.34743 -12839490.97342  22764295.482    22764293.085
  23745732.299    -3014632.32943  -2340566.04642  23745734.881    23745734.350
  22578485.787   -12744952.11743  -9630253.06642  22578488.037    22578486.862
  23427640.709   -10429538.77743  -8069016.85142  23427642.252    23427641.681
  20414027.682   -24203511.92043 -18842021.89442  20414030.306    20414027.089
  22062400.652   -17118532.48443 -13155836.45242  22062402.731    22062402.137
 04  3 24  1  4  0.0000000  0  8G15G22G18G 9G31G21G14G 3
  20220809.820   -25635806.45244 -19963351.76442  20220811.630    20220809.697
  21014496.554   -24418309.96344 -19014765.47142  21014497.512    21014492.523
  22776936.503   -16491113.73543 -12787719.08242  22776938.763    22776936.318
  23752320.673    -2980010.25043  -2313587.78642  23752323.246    23752322.614
  22575985.187   -12758092.82543  -9640492.58142  22575987.385    22575986.312
  23445472.311   -10335833.64843  -7995999.94842  23445473.820    23445473.277
  20407818.682   -24236140.22043 -18867446.49542  20407821.333    20407818.069
  22072024.195   -17067960.78643 -13116429.97142  22072026.253    22072025.624
 04  3 24  1  4 30.0000000  0  8G15G22G18G 9G31G21G14G 3
  20226240.885   -25607265.77644 -19941112.28242  20226242.749    20226240.831
  21020086.049   -24388936.93944 -18991877.40242  21020087.009    21020082.067
  22789594.022   -16424598.05643 -12735888.68742  22789596.308    22789593.879
  23759019.676    -2944806.77943  -2286156.49442  23759022.193    23759021.675
  22573593.787   -12770659.15643  -9650284.51942  22573596.002    22573595.149
  23463348.351   -10241893.77043  -7922800.11342  23463350.114    23463349.332
  20401709.914   -24268241.65543 -18892460.55642  20401712.580    20401709.344
  22081730.304   -17016954.94343 -13076685.19042  22081732.392    22081731.732
 04  3 24  1  5  0.0000000  0  8G15G22G18G 9G31G21G14G 3
  20231760.415   -25578260.51644 -19918510.78742  20231762.283    20231760.369
  21025707.027   -24359398.58444 -18968860.50242  21025707.942    21025703.062
  22802265.877   -16358007.10543 -12683999.65442  22802268.171    22802265.749
  23765829.197    -2909022.23843  -2258272.39142  23765831.822    23765831.317
  22571311.807   -12782650.57743  -9659628.47242  22571313.995    22571313.237
  23481268.999   -10147719.96343  -7849418.00742  23481270.920    23481270.060
  20395701.570   -24299815.35943 -18917063.39742  20395704.237    20395700.996
  22091518.671   -16965516.66743 -13036603.45542  22091520.782    22091520.149
 04  3 24  1  5 30.0000000  0  8G15G22G18G 9G31G21G14G 3
  20237368.638   -25548789.13244 -19895546.08142  20237370.498    20237368.595
  21031359.541   -24329694.39644 -18945714.38142  21031360.438    21031355.573
  22814952.230   -16291339.79043 -12632051.10342  22814954.548    22814952.122
  23772749.449    -2872656.29743  -2229935.27242  23772752.050    23772751.454
  22569139.598   -12794066.01343  -9668523.61842  22569141.722    22569140.941
  23499234.416   -10053312.15543  -7775853.56642  23499236.258    23499235.406
  20389793.909   -24330860.20443 -18941254.13542  20389796.561    20389793.272
  22101389.195   -16913647.27243 -12996185.77842  22101391.252    22101390.603
 04  3 24  1  6  0.0000000  0  8G15G22G18G 9G31G21G14G 3
  20243065.214   -25518853.48144 -19872219.61042  20243067.040    20243065.165
  21037043.066   -24299827.12644 -18922441.17442  21037043.992    21037039.109
  22827652.607   -16224598.66343 -12580045.04042  22827654.939    22827652.530
  23779779.639    -2835712.23843  -2201147.64442  23779782.175    23779781.564
  22567076.447   -12804907.65343  -9676971.63942  22567078.605    22567077.838
  23517243.557    -9958673.57543  -7702109.32142  23517245.476    23517244.660
  20383986.485   -24361378.06343 -18965034.24342  20383989.164    20383985.869
  22111340.913   -16861350.94143 -12955435.42742  22111342.959    22111342.275
 04  3 24  1  6 30.0000000  0  8G15G22G18G 9G31G21G14G 3
  20248850.189   -25488453.25944 -19848531.13042  20248852.002    20248850.137
  21042757.614   -24269797.06344 -18899041.12042  21042758.524    21042753.606
  22840367.012   -16157784.22043 -12527981.84742  22840369.317    22840366.909
  23786919.634    -2798190.75143  -2171910.10042  23786922.155    23786921.587
  22565122.513   -12815175.44743  -9684972.51042  22565124.662    22565123.935
  23535296.312    -9863805.46743  -7628186.17342  23535298.302    23535297.597
  20378279.421   -24391368.72043 -18988403.54342  20378282.098    20378278.803
  22121373.330   -16808630.18043 -12914354.35142  22121375.436    22121374.714
 04  3 24  1  7  0.0000000  0  8G15G22G18G 9G31G21G14G 3
  20254723.373   -25457589.69544 -19824481.60942  20254725.155    20254723.269
  21048502.647   -24239606.50544 -18875516.00042  21048503.589    21048498.661
  22853095.063   -16090898.27743 -12475862.95742  22853097.346    22853094.884
  23794169.012    -2760094.54743  -2142224.70542  23794171.507    23794171.116
  22563277.607   -12824871.01543  -9692527.49242  22563279.741    22563278.929
  23553392.341    -9768710.86943  -7554086.56742  23553394.199    23553393.536
  20372672.409   -24420833.54543 -19011363.10642  20372675.097    20372671.778
  22131485.781   -16755488.95543 -12872945.64242  22131487.873    22131487.193
 04  3 24  1  7 30.0000000  0  8G15G22G18G 9G31G21G14G 3
  20260685.603   -25426257.93644 -19800067.25742  20260687.412    20260685.485
  21054279.062   -24209251.23044 -18851862.52942  21054279.988    21054275.053
  22865837.523   -16023936.36843 -12423684.86742  22865839.840    22865837.345
  23801528.599    -2721419.67843  -2112088.41542  23801531.099    23801530.737
  22561542.215   -12833989.80643  -9699633.02042  22561544.414    22561543.599
  23571532.198    -9673385.83643  -7479807.39342  23571533.959    23571533.249
  20367166.419   -24449767.68443 -19033909.14342  20367169.101    20367165.728
  22141678.717   -16701924.65643 -12831207.26442  22141680.815    22141680.230
 04  3 24  1  8  0.0000000  0  8G15G22G18G 9G31G21G14G 3
  20266736.508   -25394460.09544 -19775289.72342  20266738.336    20266736.409
  21060086.220   -24178734.30044 -18828083.09542  21060087.163    21060082.230
  22878593.864   -15956901.19443 -12371449.68742  22878596.180    22878593.726
  23808997.679    -2682169.62543  -2081503.91842  23809000.131    23808999.852
  22559916.352   -12842534.28843  -9706291.05242  22559918.494    22559917.561
  23589715.280    -9577834.45143  -7405351.86142  23589716.897    23589716.183
  20361760.947   -24478173.47043 -19056043.48042  20361763.605    20361760.252
  22151951.291   -16647942.20443 -12789143.05642  22151953.372    22151952.783
 04  3 24  1  8 30.0000000  0  8G15G22G18G 9G31G21G14G 3
  20272875.552   -25362199.11544 -19750151.30042  20272877.397    20272875.465
  21065923.501   -24148059.25944 -18804180.45642  21065924.442    21065919.514
  22891363.533   -15889796.20843 -12319160.10942  22891365.787    22891363.396
  23816575.325    -2642348.53243  -2050474.47742  23816577.802    23816577.551
  22558399.045   -12850507.73743  -9712504.12042  22558401.212    22558400.173
  23607940.493    -9482060.76843  -7330723.10842  23607942.014    23607941.380
  20356455.565   -24506053.47743 -19077768.11742  20356458.190    20356454.826
  22162302.470   -16593546.98543 -12746757.22042  22162304.558    22162303.866
 04  3 24  1  9  0.0000000  0  8G15G22G18G 9G31G21G14G 3
  20279103.938   -25329468.87744 -19724647.22442  20279105.780    20279103.835
  21071791.819   -24117220.74644 -18780150.43642  21071792.777    21071787.891
  22904147.483   -15822615.82543 -12266811.78042  22904149.767    22904147.438
  23824262.554    -2601951.49943  -2018996.24042  23824265.111    23824264.697
  22556991.417   -12857904.44643  -9718267.76942  22556993.570    22556992.524
  23626208.641    -9386060.33743  -7255917.64742  23626210.333    23626209.873
  20351251.250   -24533402.14843 -19099078.72742  20351253.878    20351250.502
  22172732.757   -16538735.63343 -12704047.12142  22172734.872    22172734.127
 04  3 24  1  9 30.0000000  0  8G15G22G18G 9G31G21G14G 3
  20285420.486   -25296275.25144 -19698782.06842  20285422.327    20285420.391
  21077690.115   -24086225.04944 -18755997.93542  21077691.041    21077686.142
  22916944.640   -15755366.01643 -12214409.34842  22916946.937    22916944.741
  23832058.052    -2560985.51643  -1987074.65742  23832060.656    23832060.210
  22555692.576   -12864730.52443  -9723586.79142  22555694.725    22555693.550
  23644518.896    -9289840.19043  -7180940.99342  23644520.680    23644519.995
  20346146.913   -24560225.46743 -19119979.97342  20346149.552    20346146.164
  22183240.519   -16483516.42743 -12661019.21342  22183242.668    22183242.004
 04  3 24  1 10  0.0000000  0  8G15G22G18G 9G31G21G14G 3
  20291826.106   -25262613.51544 -19672552.14942  20291827.941    20291826.029
  21083619.006   -24055068.47944 -18731720.07642  21083619.927    21083615.010
  22929755.750   -15688043.26243 -12161950.09242  22929758.055    22929755.869
  23839962.527    -2519447.42443  -1954707.27042  23839965.063    23839964.662
  22554502.814   -12870981.86643  -9728457.95742  22554505.005    22554503.995
  23662871.669    -9193397.28043  -7105790.75442  23662873.233    23662872.501
  20341143.355   -24586518.94443 -19140468.35442  20341146.018    20341142.631
  22193826.349   -16427887.28543 -12617671.86442  22193828.455    22193827.864
 04  3 24  1 10 30.0000000  0  8G15G22G18G 9G31G21G14G 3
  20298320.607   -25228484.76144 -19645958.31842  20298322.441    20298320.521
  21089578.114   -24023753.01644 -18707318.40542  21089579.055    21089574.117
  22942580.483   -15620649.21843 -12109435.26642  22942582.763    22942580.565
  23847975.455    -2477339.35843  -1921895.76642  23847978.042    23847977.516
  22553422.309   -12876660.00243  -9732882.46542  22553424.468    22553423.522
  23681265.953    -9096734.47543  -7030469.19342  23681267.638    23681266.910
  20336240.498   -24612283.73444 -19160544.76942  20336243.120    20336239.709
  22204489.660   -16371852.01043 -12574008.06042  22204491.680    22204491.024
 04  3 24  1 11  0.0000000  0  8G15G22G18G 9G31G21G14G 3
  20304904.055   -25193888.52044 -19619000.21542  20304905.863    20304903.967
  21095567.483   -23992278.81144 -18682793.03742  21095568.419    21095563.434
  22955418.826   -15553183.59543 -12056864.67642  22955421.082    22955418.880
  23856096.570    -2434662.36243  -1888640.90042  23856099.209    23856098.496
  22552450.892   -12881765.07843  -9736860.44642  22552453.047    22552452.038
  23699702.007    -8999852.47143  -6954976.79542  23699703.732    23699703.078
  20331438.205   -24637519.73443 -19180209.14542  20331440.834    20331437.443
  22215229.750   -16315412.73243 -12530029.44342  22215231.812    22215231.132
 04  3 24  1 11 30.0000000  0  8G15G22G18G 9G31G21G14G 3
  20311576.332   -25158825.52444 -19591678.40942  20311578.131    20311576.243
  21101586.819   -23960647.07144 -18658144.91442  21101587.733    21101582.758
  22968270.646   -15485646.93643 -12004238.74842  22968272.832    22968270.762
  23864325.540    -2391418.43743  -1854944.30142  23864328.092    23864327.378
  22551588.275   -12886298.00343  -9740392.58542  22551590.414    22551589.533
  23718179.449    -8902753.50243  -6879315.35742  23718181.132    23718180.519
  20326736.441   -24662227.61843 -19199462.00142  20326739.029    20326735.652
  22226046.091   -16258572.51443 -12485738.40142  22226048.228    22226047.548
 04  3 24  1 12  0.0000000  0  8G15G22G18G 9G31G21G14G 3
  20318337.438   -25123295.85344 -19563992.95742  20318339.228    20318337.346
  21107635.963   -23928858.59444 -18633374.65842  21107636.885    21107631.882
  22981135.774   -15418040.13343 -11951558.13942  22981137.970    22981135.970
  23872662.059    -2347609.03243  -1820807.07442  23872664.673    23872663.910
  22550834.488   -12890259.64743  -9743479.57242  22550836.604    22550835.717
  23736697.810    -8805439.21243  -6803486.11742  23736699.299    23736698.921
  20322135.096   -24686407.75843 -19218303.62642  20322137.704    20322134.281
  22236938.166   -16201334.42443 -12441137.33342  22236940.328    22236939.645
 04  3 24  1 12 30.0000000  0  8G15G22G18G 9G31G21G14G 3
  20325187.573   -25087298.02844 -19535942.71042  20325189.379    20325187.505
  21113715.156   -23896912.29044 -18608481.42342  21113716.071    21113711.073
  22994014.514   -15350361.81643 -11898821.80042  22994016.688    22994014.658
  23881106.401    -2303233.93243  -1786229.04442  23881108.979    23881108.214
  22550189.680   -12893648.42543  -9746120.18242  22550191.790    22550190.887
  23755256.993    -8707909.44843  -6727488.99142  23755258.690    23755258.276
  20317634.421   -24710058.72643 -19236732.91142  20317637.028    20317633.592
  22247905.716   -16143699.30843 -12396226.88942  22247907.911    22247907.299
 04  3 24  1 13  0.0000000  0  8G15G22G18G 9G31G21G14G 3
  20332126.080   -25050835.91344 -19507530.67342  20332127.896    20332126.007
  21119823.453   -23864812.74444 -18583468.78242  21119824.396    21119819.415
  23006905.982   -15282616.16043 -11846033.00942  23006908.222    23006906.152
  23889657.387    -2258298.02043  -1751214.01142  23889660.002    23889659.302
  22549652.774   -12896469.26143  -9748318.20942  22549654.914    22549654.146
  23773856.639    -8610169.08443  -6651327.74842  23773858.283    23773857.703
  20313233.761   -24733184.45743 -19254752.92142  20313236.359    20313232.867
  22258947.655   -16085673.51343 -12351012.02742  22258949.814    22258949.254
 04  3 24  1 13 30.0000000  0  8G15G22G18G 9G31G21G14G 3
  20339154.067   -25013903.80144 -19478752.41542  20339155.868    20339153.952
  21125961.901   -23832554.76944 -18558332.69242  21125962.840    21125957.904
  23019811.331   -15214797.90043 -11793187.62142  23019813.561    23019811.494
  23898316.027    -2212797.05343  -1715758.69142  23898318.480    23898317.799
  22549225.200   -12898716.40343  -9750069.21542  22549227.342    22549226.600
  23792497.068    -8512214.32143  -6574999.43842  23792498.709    23792497.947
  20308934.064   -24755779.38243 -19272359.31542  20308936.684    20308933.143
  22270064.611   -16027253.98843 -12305490.35742  22270066.727    22270066.206
 04  3 24  1 14  0.0000000  0  8G15G22G18G 9G31G21G14G 3
  20346270.643   -24976505.83344 -19449611.14542  20346272.478    20346270.565
  21132129.632   -23800142.97644 -18533076.74442  21132130.578    21132125.672
  23032729.706   -15146911.46043 -11740289.11442  23032731.976    23032729.787
  23907081.027    -2166736.42743  -1679867.27342  23907083.490    23907082.958
  22548905.932   -12900394.69443  -9751376.97642  22548908.078    22548907.183
  23811177.003    -8414050.45643  -6498508.18542  23811178.687    23811178.033
  20304734.502   -24777848.16243 -19289555.72742  20304737.137    20304733.542
  22281255.199   -15968447.55143 -12259667.19842  22281257.297    22281256.755
 04  3 24  1 14 30.0000000  0  8G15G22G18G 9G31G21G14G 3
  20353476.618   -24938638.08244 -19420103.80942  20353478.473    20353476.566
  21138327.300   -23767574.03144 -18507698.33842  21138328.249    21138323.321
  23045661.786   -15078953.02843 -11687334.49642  23045664.037    23045661.807
  23915952.918    -2120113.87443  -1643538.00942  23915955.311    23915954.917
  22548695.298   -12901500.58943  -9752238.68342  22548697.501    22548696.739
  23829896.979    -8315674.89543  -6421851.96342  23829898.914    23829898.239
  20300635.753   -24799386.94743 -19306339.15742  20300638.419    20300634.801
  22292519.624   -15909252.77943 -12213541.44042  22292521.733    22292521.265
 04  3 24  1 15  0.0000000  0  8G15G22G18G 9G31G21G14G 3
  20360771.273   -24900304.32744 -19390233.35342  20360773.133    20360771.221
  21144554.101   -23734851.99544 -18482200.63842  21144555.041    21144550.097
  23058606.824   -15010926.98743 -11634327.19442  23058609.066    23058606.777
  23924930.807    -2072934.24043  -1606774.64242  23924933.332    23924932.928
  22548593.027   -12902038.52943  -9752657.84942  22548595.140    22548594.391
  23848656.622    -8217092.89843  -6345034.89142  23848658.389    23848657.901
  20296637.140   -24820399.61443 -19322712.62542  20296639.794    20296636.167
  22303856.671   -15849675.93543 -12167117.96342  22303858.791    22303858.444
 04  3 24  1 15 30.0000000  0  9G25G15G22G18G 9G31G21G14G 3
  24483444.644    -4824564.84553  -3708686.76752  24483448.133    24483453.575
  20368152.094   -24861517.81644 -19360010.10442  20368153.959    20368152.029
  21150807.342   -23701990.97344 -18456594.63542  21150808.300    21150803.318
  23071562.228   -14942846.36943 -11581277.36342  23071564.481    23071562.187
  23934011.952    -2025212.21843  -1569588.64142  23934014.482    23934014.161
  22548596.073   -12902022.15243  -9752645.06742  22548598.214    22548597.535
  23867452.954    -8118319.11543  -6268068.36942  23867454.413    23867454.047
  20292736.054   -24840899.65343 -19338686.63942  20292738.716    20292735.093
  22315263.510   -15789732.62143 -12120408.92042  22315265.594    22315265.341
 04  3 24  1 16  0.0000000  0  9G25G15G22G18G 9G31G21G14G 3
  24464758.693    -4922758.43343  -3785200.84742  24464762.215    24464767.455
  20375624.642   -24822249.35144 -19329411.30242  20375626.488    20375624.608
  21157092.542   -23668961.96944 -18430857.74342  21157093.511    21157088.530
  23084533.405   -14874682.64643 -11528162.77742  23084535.700    23084533.418
  23943201.659    -1976920.06543  -1531958.36942  23943204.232    23943203.823
  22548709.955   -12901422.98643  -9752178.17142  22548712.101    22548711.406
  23886291.028    -8019325.52943  -6190930.58542  23886292.465    23886292.236
  20288938.072   -24860858.04443 -19354238.59442  20288940.718    20288937.114
  22326745.271   -15729396.44243 -12073393.76742  22326747.265    22326746.901
 04  3 24  1 16 30.0000000  0  9G25G15G22G18G 9G31G21G14G 3
  24446061.952    -5021008.89443  -3861759.23042  24446065.460    24446070.562
  20383185.427   -24782517.29744 -19298451.26342  20383187.232    20383185.395
  21163406.175   -23635783.69044 -18405004.52942  21163407.103    21163402.151
  23097516.766   -14806454.56343 -11474998.03642  23097519.052    23097516.871
  23952496.116    -1928077.41943  -1493899.14242  23952498.768    23952498.336
  22548931.447   -12900259.76943  -9751271.76642  22548933.543    22548932.784
  23905166.882   -25249751.96953 -19617236.97852  23905169.981    23905170.466
  20285239.604   -24880293.42143 -19369383.00542  20285242.230    20285238.645
  22338297.668   -15668688.30743 -12026088.77342  22338299.730    22338299.269
 04  3 24  1 17  0.0000000  0  9G25G15G22G18G 9G31G21G14G 3
  24427356.968    -5119302.85443  -3938351.53342  24427360.406    24427365.213
  20390836.472   -24742310.87044 -19267121.58542  20390838.259    20390836.445
  21169750.133   -23602445.96944 -18379027.07442  21169751.067    21169746.104
  23110514.509   -14738151.09043 -11421774.54042  23110516.846    23110514.582
  23961897.172    -1878674.97643  -1455403.68442  23961899.773    23961899.209
  22549261.947   -12898522.37643  -9749917.91742  22549264.077    22549263.468
  23924082.716   -25150349.19743 -19539780.31742  23924085.048    23924083.476
  20281642.693   -24899195.01043 -19384111.47242  20281645.345    20281641.760
  22349922.414   -15607600.01143 -11978487.55042  22349924.483    22349924.057
 04  3 24  1 17 30.0000000  0  9G25G15G22G18G 9G31G21G14G 3
  24408642.517    -5217646.28643  -4014982.36442  24408645.884    24408650.766
  20398576.173   -24701638.45344 -19235428.80042  20398577.954    20398576.136
  21176122.781   -23568957.52244 -18352932.17442  21176123.711    21176118.744
  23123524.987   -14669780.97343 -11368499.13742  23123527.300    23123524.929
  23971402.793    -1828722.65043  -1416479.74442  23971405.301    23971404.657
  22549700.107   -12896219.89543  -9748123.75642  22549702.274    22549701.528
  23943036.432   -25050746.76943 -19462168.11042  23943038.389    23943037.083
  20278145.711   -24917571.70843 -19398430.93342  20278148.346    20278144.743
  22361617.469   -15546142.37243 -11930598.52242  22361619.533    22361619.139
 04  3 24  1 18  0.0000000  0  9G25G15G22G18G 9G31G21G14G 3
  24389919.059    -5316037.38843  -4091650.32042  24389922.214    24389927.165
  20406404.313   -24660501.28844 -19203373.87742  20406406.082    20406404.295
  21182523.835   -23535319.72044 -18326720.89442  21182524.758    21182519.771
  23136547.848   -14601345.23943 -11315172.59042  23136550.206    23136547.736
  23981012.688    -1778222.59843  -1377129.01242  23981015.193    23981014.284
  22550245.667   -12893353.62743  -9745890.30342  22550247.842    22550246.831
  23962027.677   -24950946.60843 -19384401.81942  23962029.813    23962028.197
  20274748.348   -24935424.82443 -19412342.41342  20274750.969    20274747.366
  22373382.044   -15484318.80543 -11882424.35742  22373384.163    22373383.840
 04  3 24  1 18 30.0000000  0  9G25G15G22G18G 9G31G21G14G 3
  24371187.462    -5414470.63743  -4168351.12342  24371190.718    24371195.464
  20414321.431   -24618896.69044 -19170954.71942  20414323.194    20414321.426
  21188953.753   -23501530.12344 -18300391.33342  21188954.683    21188949.665
  23149583.676   -14532841.35943 -11261792.95942  23149586.023    23149583.530
  23990727.061    -1727173.52143  -1337350.44842  23990729.508    23990728.684
  22550898.665   -12889921.58443  -9743215.95242  22550900.885    22550899.997
  23981056.887   -24850948.46343 -19306481.26442  23981059.191    23981057.394
  20271451.142   -24952751.73943 -19425843.86542  20271453.761    20271450.137
  22385216.343   -15422129.30343 -11833965.04642  22385218.451    22385218.159
 04  3 24  1 19  0.0000000  0  9G25G15G22G18G 9G31G21G14G 3
  24352447.778    -5512946.42243  -4245085.07242  24352451.036    24352455.844
  20422326.994   -24576827.35244 -19138173.42542  20422328.757    20422326.965
  21195411.946   -23467592.05744 -18273946.08142  21195412.853    21195407.855
  23162631.904   -14464272.29443 -11208362.52642  23162634.273    23162631.698
  24000544.992    -1675579.92743  -1297147.64142  24000547.455    24000546.656
  22551658.795   -12885927.25143  -9740103.45942  22551661.062    22551660.083
  24000123.081   -24750755.76943 -19228409.09542  24000125.222    24000123.736
  20268253.444   -24969555.59743 -19438937.73942  20268256.095    20268252.460
  22397119.386   -15359579.30343 -11785224.83442  22397121.428    22397121.049
 04  3 24  1 19 30.0000000  0  9G25G15G22G18G 9G31G21G14G 3
  24333701.591    -5611456.47443  -4321845.70942  24333705.058    24333709.571
  20430421.954   -24534287.84744 -19105025.76942  20430423.761    20430421.927
  21201899.400   -23433500.15944 -18247380.96342  21201900.323    21201895.303
  23175693.515   -14395632.70643 -11154877.13942  23175695.878    23175693.369
  24010467.254    -1623437.69543  -1256517.31042  24010469.717    24010468.921
  22552527.018   -12881365.49343  -9736548.84242  22552529.259    22552527.992
  24019226.879   -24650364.31343 -19150182.04642  24019229.101    24019228.330
  20265156.311   -24985831.18143 -19451619.97442  20265158.954    20265155.275
  22409091.500   -15296665.68243 -11736201.27942  22409093.610    22409093.169
 04  3 24  1 20  0.0000000  0  9G25G15G22G18G 9G31G21G14G 3
  24314948.244    -5710003.99043  -4398635.54642  24314951.906    24314956.181
  20438605.293   -24491284.17644 -19071516.42442  20438607.101    20438605.229
  21208414.923   -23399260.74744 -18220700.89342  21208415.861    21208410.862
  23188767.412   -14326928.92243 -11101341.73242  23188769.770    23188767.313
  24020492.487    -1570754.27243  -1215465.29342  24020494.956    24020494.226
  22553501.609   -12876243.19443  -9732557.42242  22553503.887    22553502.662
  24038367.103   -24549781.45043 -19071805.83842  24038369.284    24038368.658
  20262158.488   -25001584.61743 -19463895.34042  20262161.141    20262157.443
  22421131.109   -15233397.15243 -11686901.17342  22421133.262    22421132.774
 04  3 24  1 20 30.0000000  0  9G25G15G22G18G 9G31G21G14G 3
  24296188.720    -5808583.80643  -4475450.56142  24296192.458    24296196.593
  20446877.352   -24447814.22744 -19037643.74542  20446879.175    20446877.328
  21214958.933   -23364871.75644 -18193904.26942  21214959.856    21214954.855
  23201854.009   -14258158.37343 -11047754.29542  23201856.351    23201853.942
  24030620.941    -1517528.64843  -1173990.77242  24030623.393    24030622.698
  22554583.413   -12870558.60743  -9728127.85942  22554585.642    22554584.494
  24057544.179   -24449006.15543 -18993279.66242  24057546.434    24057545.291
  20259260.440   -25016813.90043 -19475762.27642  20259263.058    20259259.372
  22433238.213   -15169773.90143 -11637324.66942  22433240.331    22433239.857
 04  3 24  1 21  0.0000000  0  9G25G15G22G18G 9G31G21G14G 3
  24277423.845    -5907191.75943  -4552287.45642  24277427.705    24277431.672
  20455238.471   -24403876.30844 -19003406.41242  20455240.293    20455238.458
  21221531.637   -23330331.83244 -18166990.03442  21221532.576    21221527.587
  23214953.684   -14189319.17643 -10994113.37242  23214956.050    23214953.621
  24040852.641    -1463760.54743  -1132093.54142  24040855.234    24040854.409
  22555772.421   -12864310.84743  -9723259.47542  22555774.614    22555773.305
  24076757.842   -24348038.13043 -18914603.35342  24076760.091    24076759.016
  20256462.339   -25031517.72043 -19487219.76042  20256464.981    20256461.309
  22445412.616   -15105796.79843 -11587472.42542  22445414.702    22445414.313
 04  3 24  1 21 30.0000000  0  9G25G15G22G18G 9G31G21G14G 3
  24258653.754    -6005827.78843  -4629146.26342  24258657.483    24258661.455
  20463688.045   -24359473.30644 -18968806.68342  20463689.875    20463688.083
  21228132.433   -23295644.40044 -18139960.85942  21228133.344    21228128.386
  23228065.817   -14120414.59143 -10940421.49742  23228068.124    23228065.691
  24051186.676    -1409454.69843  -1089777.28942  24051189.213    24051188.426
  22557067.796   -12857503.05143  -9717954.69142  22557070.014    22557068.676
  24096007.260   -24246881.61543 -18835780.14342  24096009.548    24096008.489
  20253763.638   -25045699.36143 -19498270.35442  20253766.267    20253762.608
  22457653.415   -15041471.22343 -11537348.64942  22457655.450    22457655.180
 04  3 24  1 22  0.0000000  0  9G25G15G22G18G 9G31G21G14G 3
  24239878.988    -6104488.36243  -4706024.20542  24239882.499    24239886.567
  20472226.422   -24314604.05744 -18933843.64142  20472228.216    20472226.419
  21234761.494   -23260808.47244 -18112815.97142  21234762.398    21234757.443
  23241190.558   -14051443.59943 -10886677.88142  23241192.896    23241190.416
  24061622.921    -1354611.41343  -1047042.24142  24061625.445    24061624.811
  22558469.767   -12850135.77743  -9712213.96942  22558471.948    22558470.656
  24115292.551   -24145536.57743 -18756810.02642  24115294.502    24115293.817
  20251164.435   -25059357.98543 -19508913.39942  20251167.076    20251163.406
  22469960.293   -14976798.57543 -11486954.42342  22469962.345    22469962.079
 04  3 24  1 22 30.0000000  0  9G25G15G22G18G 9G31G21G14G 3
  24221100.278    -6203169.77443  -4782918.39342  24221103.717    24221107.706
  20480853.549   -24269268.49544 -18898517.24542  20480855.301    20480853.502
  21241418.872   -23225823.69944 -18085555.09642  21241419.791    21241414.825
  23254327.973   -13982405.75543 -10832882.17242  23254330.295    23254327.886
  24072161.294    -1299231.85943  -1003889.32442  24072163.813    24072163.153
  22559978.206   -12842208.36543  -9706036.75842  22559980.386    22559979.241
  24134613.464                   -18677693.91642                  24134615.047
  20248664.805   -25072493.44343 -19519148.78042  20248667.459    20248663.762
  22482332.854   -14911780.93743 -11436291.37342  22482334.908    22482334.504
 04  3 24  1 23  0.0000000  0  9G25G15G22G18G 9G31G21G14G 3
  24202317.587    -6301871.88943  -4859828.74342  24202321.091    24202324.873
  20489568.953   -24223468.62844 -18862829.05142  20489570.719    20489568.944
  21248104.173   -23190692.19244 -18058179.88742  21248105.064    21248100.110
  23267477.801   -13913302.85943 -10779035.77742  23267480.121    23267477.753
  24082801.062    -1243319.40843   -960321.14542  24082803.578    24082802.861
  22561592.708   -12833723.89243  -9699425.49942  22561594.852    22561593.666
  24153969.533   -23942287.73343 -18598434.39242  24153971.614    24153970.792
  20246264.286   -25085108.24043 -19528978.45542  20246266.918    20246263.230
  22494770.073   -14846422.89543 -11385363.07642  22494772.156    22494771.715
 04  3 24  1 23 30.0000000  0  9G25G15G22G18G 9G31G21G14G 3
  24183531.744    -6400590.76143  -4936752.16242  24183535.216    24183538.880
  20498372.836   -24177203.91444 -18826778.63642  20498374.573    20498372.826
  21254817.409   -23155413.66944 -18030690.12042  21254818.332    21254813.384
  23280640.225   -13844134.15243 -10725138.10742  23280642.585    23280640.188
  24093542.030    -1186875.14743   -916338.57842  24093544.572    24093543.764
  22563313.326   -12824682.43943  -9692380.22542  22563315.421    22563314.223
  24173360.560                   -18519031.76342                  24173361.733
  20243962.896   -25097201.94743 -19538402.08242  20243965.542    20243961.843
  22507271.679   -14780726.21043 -11334170.89642  22507273.824    22507273.380
 04  3 24  1 24  0.0000000  0  9G25G15G22G18G 9G31G21G14G 3
  24164743.354    -6499322.35843  -5013685.54042  24164746.866    24164750.452
  20507265.430   -24130473.27744 -18790365.16542  20507267.147    20507265.346
  21261558.774   -23119987.35244 -18003085.19142  21261559.691    21261554.773
  23293815.334   -13774898.85143 -10671188.52442  23293817.714    23293815.344
  24104384.184    -1129899.41443   -871941.90342  24104386.632    24104385.926
  22565139.815   -12815083.65843  -9684900.66442  22565141.922    22565140.905
  24192786.420                   -18439486.55752                  24192787.529
  20241760.833   -25108773.75143 -19547419.03242  20241763.447    20241759.739
  22519837.437   -14714692.41543 -11282716.03342  22519839.574    22519839.307
 04  3 24  1 24 30.0000000  0  9G25G15G22G18G 9G31G21G14G 3
  24145952.258    -6598068.30343  -5090630.10742  24145955.718    24145959.339
  20516245.726   -24083281.54544 -18753592.39842  20516247.461    20516245.654
  21268327.483   -23084417.42744 -17975368.35742  21268328.401    21268323.482
  23307002.239   -13705601.28943 -10617190.45442  23307004.684    23307002.285
  24115326.325    -1072398.06143   -827135.63442  24115328.831    24115328.064
  22567071.392   -12804932.66443  -9676990.79742  22567073.492    22567072.614
  24212246.116
  20239657.170   -25119828.54343 -19556033.11742  20239659.760    20239656.032
  22532466.073   -14648328.63943 -11231004.04142  22532468.158    22532467.968
 04  3 24  1 25  0.0000000  0  9G25G15G22G18G 9G31G21G14G 3
  24127160.070    -6696820.29543  -5167579.39542  24127163.367    24127167.138
  20525314.858   -24035622.90044 -18716455.79942  20525316.615    20525314.791
  21275124.538   -23048698.84444 -17947535.68542  21275125.433    21275120.490
  23320202.116   -13636235.60643 -10563139.29542  23320204.509    23320202.135
  24126369.196    -1014367.25543   -781916.80042  24126371.653    24126371.052
  22569109.208   -12794224.75643  -9668647.00142  22569111.294    22569110.224
  24231739.536
  20237652.882   -25130361.11843 -19564240.27542  20237655.470    20237651.693
  22545158.137   -14581631.86943 -11179032.57842  22545160.173    22545159.964
 04  3 24  1 25 30.0000000  0  9G25G15G22G18G 9G31G21G14G 3
  24108367.035    -6795576.82643  -5244532.23042  24108370.315    24108374.014
  20534472.533   -23987499.08344 -18678956.72842  20534474.280    20534472.456
  21281949.525   -23012833.21944 -17919588.43542  21281950.448    21281945.496
  23333414.624   -13566803.19943 -10509036.15442  23333416.990    23333414.631
  24137512.284     -955809.96743   -736287.72142  24137514.727    24137514.182
  22571252.236   -12782962.27543  -9659871.04842  22571254.384    22571253.437
  24251266.450
  20235747.522   -25140373.43443 -19572042.04242  20235750.125    20235746.351
  22557912.791   -14514606.00043 -11126804.67842  22557914.835    22557914.579
 04  3 24  1 26  0.0000000  0  9G25G15G22G18G 9G31G21G14G 3
  24089573.233    -6894338.27143  -5321488.91742  24089576.328    24089580.058
  20543718.137   -23938913.19944 -18641097.60442  20543719.898    20543718.078
  21288801.940   -22976823.51544 -17891528.91842  21288802.862    21288797.922
  23346639.243   -13497306.99243 -10454883.30842  23346641.620    23346639.387
  24148754.801     -896730.75143   -690251.93742  24148757.153    24148756.515
  22573500.378   -12771148.89543  -9650665.83042  22573502.452    22573501.535
  24270828.099
  20233940.624   -25149868.68843 -19579440.90342  20233943.212    20233939.416
  22570729.021   -14447256.41943 -11074324.52842  22570731.098    22570730.832
 04  3 24  1 26 30.0000000  0  8G25G15G22G18G 9G31G14G 3
  24070779.268    -6993100.56843  -5398446.27842  24070782.311    24070785.969
  20553051.769   -23889864.60144 -18602877.91942  20553053.565    20553051.718
  21295681.906   -22940668.89744 -17863356.48242  21295682.853    21295677.920
  23359876.125   -13427746.42843 -10400680.28442  23359878.503    23359876.411
  24160096.405     -837130.49143   -643810.15242  24160098.759    24160098.023
  22575853.220   -12758784.66743  -9641031.38742  22575855.273    22575854.412
  20232232.176   -25158846.48843 -19586436.54742  20232234.797    20232230.948
  22583606.400   -14379585.05443 -11021593.65142  22583608.488    22583608.325
 04  3 24  1 27  0.0000000  0  8G25G15G22G18G 9G31G14G 3
  24051985.475    -7091861.83543  -5475402.86042  24051988.596    24051991.969
  20562473.196   -23840354.49244 -18564298.61942  20562474.994    20562473.189
  21302589.201   -22904370.66244 -17835072.13742  21302590.134    21302585.224
  23373125.180   -13358122.39243 -10346427.79542  23373127.566    23373125.546
  24171536.526     -777011.80543   -596964.38842  24171538.854    24171538.323
  22578310.499   -12745871.58743  -9630969.25342  22578312.550    22578311.727
  20230621.894   -25167308.52543 -19593030.30642  20230624.506    20230620.640
  22596544.297   -14311595.34543 -10968614.70342  22596546.438    22596546.340
 04  3 24  1 27 30.0000000  0  9G25G15G22G18G 9G31G21G14G 3
  24033192.455    -7190618.44443  -5552355.80842  24033195.657    24033198.908
  20571982.591   -23790382.39544 -18525359.33242  20571984.374    20571982.585
  21309523.941   -22867928.21244 -17806675.41542  21309524.880    21309519.974
  23386386.569   -13288433.94743 -10292125.13242  23386388.935    23386386.880
  24183075.157     -716375.88443   -549715.61042  24183077.417    24183077.012
  22580872.196   -12732409.81943  -9620479.56442  22580874.304    22580873.517
  24329712.029
  20229109.753   -25175254.58943 -19599222.00642  20229112.385    20229108.541
  22609542.518   -14243289.37543 -10915389.31942  22609544.625    22609544.511
 04  3 24  1 28  0.0000000  0  9G25G15G22G18G 9G31G21G14G 3
  24014401.773    -7289363.06843  -5629299.42542  24014405.031    24014408.142
  20581580.678   -23739944.26544 -18486056.90342  20581582.453    20581580.631
  21316486.891   -22831337.61744 -17778163.25542  21316487.829    21316482.926
  23399660.976   -13218676.91943 -10237769.01242  23399663.399    23399661.236
  24194712.635     -655220.08243   -502061.72242  24194715.124    24194714.465
  22583538.885   -12718395.99943  -9609559.71642  22583541.058    22583540.232
  24349403.484
  20227696.573   -25182680.92343 -19605008.72042  20227699.207    20227695.300
  22622601.307   -14174665.27743 -10861916.04642  22622603.400    22622603.325
 04  3 24  1 28 30.0000000  0  8G25G15G22G18G 9G31G14G 3
  23995612.429    -7388101.15043  -5706237.93042  23995615.581    23995618.622
  20591265.890   -23689048.20644 -18446397.65142  20591267.656    20591265.851
  21323476.544   -22794606.68444 -17749541.73942  21323477.498    21323472.581
  23412947.060   -13148858.47343 -10183365.04342  23412949.483    23412947.161
  24206447.319     -593553.90943   -454010.12742  24206449.796    24206448.999
  22586308.970   -12703838.89343  -9598216.51342  22586311.124    22586310.409
  20226380.753   -25189595.51943 -19610396.67742  20226383.390    20226379.442
  22635718.790   -14105733.44943 -10808202.98242  22635720.799    22635720.683
 04  3 24  1 29  0.0000000  0  9G25G11G15G22G18G 9G31G14G 3
  23976825.373    -7486826.94943  -5783166.87442  23976828.580    23976831.408
  24623318.603    -6486266.79553  -5032799.27652  24623321.213    24623321.690
  20601038.783   -23637691.36944 -18406379.34942  20601040.531    20601038.769
  21330493.516   -22757732.35244 -17720808.48542  21330494.463    21330489.527
  23426245.260   -13078975.88843 -10128911.09242  23426247.690    23426245.218
  24218279.176     -531376.01343   -405559.80542  24218281.725    24218281.076
  22589182.962   -12688736.55643  -9586448.46042  22589185.115    22589184.370
  20225162.689   -25195996.27843 -19615384.25042  20225165.316    20225161.387
  22648894.770   -14036493.66143 -10754249.94842  22648896.819    22648896.630
 04  3 24  1 29 30.0000000  0  9G25G11G15G22G18G 9G31G14G 3
  23958041.333    -7585536.77043  -5860083.39142  23958044.629    23958047.241
  24604338.603    -6586006.74043  -5110518.60242  24604341.150    24604341.820
  20610899.309   -23585873.95244 -18366002.15242  20610901.064    20610899.312
  21337537.697   -22720714.83644 -17691963.65642  21337538.642    21337533.722
  23439555.569   -13009029.33043 -10074407.28342  23439558.022    23439555.535
  24230208.235     -468688.23843   -356712.17142  24230210.608    24230210.219
  22592160.409   -12673089.77243  -9574256.15642  22592162.540    22592161.796
  20224042.347   -25201883.63144 -19619971.76142  20224044.986    20224041.022
  22662128.804   -13966948.35943 -10700058.85442  22662130.892    22662130.731
 04  3 24  1 30  0.0000000  0  9G25G11G15G22G18G 9G31G14G 3
  23939261.163    -7684226.17543  -5936983.99542  23939264.452    23939266.929
  24585372.307    -6685675.05243  -5188182.08042  24585374.816    24585375.546
  20620847.733   -23533594.53844 -18325264.95642  20620849.475    20620847.758
  21344609.434   -22683552.59444 -17663006.05842  21344610.362    21344605.431
  23452878.455   -12939016.64043 -10019851.94242  23452880.929    23452878.623
  24242234.271     -405490.62443   -307467.25442  24242236.740    24242236.234
  22595241.542   -12656898.03643  -9561639.21842  22595243.670    22595242.918
  20223019.960   -25207256.27243 -19624158.19842  20223022.598    20223018.591
  22675420.856   -13897098.37543 -10645630.35042  22675422.936    22675422.790
 04  3 24  1 30 30.0000000  0  9G25G11G15G22G18G 9G31G14G 3
  23920484.610    -7782896.49243  -6013869.71642  23920487.779    23920490.323
  24566419.203    -6785273.67243  -5265791.26742  24566421.668    24566422.614
  20630883.240   -23480857.57844 -18284171.22842  20630884.970    20630883.249
  21351707.978   -22646249.48344 -17633938.68542  21351708.924    21351703.951
  23466213.177   -12868941.90343  -9965248.25942  23466215.601    23466213.539
  24254356.172     -341789.01643   -257829.60742  24254358.584    24254358.371
  22598425.603   -12640166.38743  -9548601.56442  22598427.697    22598426.849
  20222094.562   -25212119.09944 -19627947.38242  20222097.192    20222093.182
  22688769.654   -13826950.52543 -10590969.74742  22688771.676    22688771.514
 04  3 24  1 31  0.0000000  0  9G25G11G15G22G18G 9G31G14G 3
  23901713.362    -7881539.05243  -6090733.81542  23901716.371    23901719.093
  24547480.856    -6884794.56143  -5343339.89942  24547483.432    24547484.185
  20641006.890   -23427657.59444 -18242716.70842  20641008.608    20641006.841
  21358834.354   -22608800.01544 -17604757.27142  21358835.307    21358830.354
  23479560.845   -12798798.93643  -9910591.40142  23479563.291    23479561.486
  24266574.857     -277579.26843   -207796.00942  24266577.104    24266576.986
  22601713.038   -12622890.21543  -9535139.59742  22601715.134    22601714.317
  20221267.222   -25216466.77544 -19631335.14842  20221269.856    20221265.824
  22702175.658   -13756501.43243 -10536074.41042  22702177.694    22702177.569
 04  3 24  1 31 30.0000000  0  9G25G11G15G22G18G 9G31G14G 3
  23882946.566    -7980158.43343  -6167579.83342  23882949.389    23882952.270
  24528556.263    -6984243.64243  -5420832.54142  24528558.860    24528559.574
  20651217.103   -23374002.68644 -18200907.69742  20651218.843    20651217.012
  21365987.144   -22571211.90844 -17575467.82742  21365988.101    21365983.138
  23492920.141   -12728595.61543  -9855887.51342  23492922.495    23492920.811
  24278888.337     -212871.10943   -157374.05142  24278890.654    24278890.589
  22605102.673   -12605078.26843  -9521260.15942  22605104.673    22605103.734
  20220536.313   -25220307.60743 -19634327.97442  20220538.950    20220534.912
  22715637.035   -13685761.62543 -10480952.53642  22715639.041    22715638.997
 04  3 24  1 32  0.0000000  0  9G25G11G15G22G18G 9G31G14G 3
  23864185.396    -8078749.09543  -6244403.47742  23864188.067    23864190.816
  24509646.281    -7083615.75043  -5498265.23242  24509648.826    24509649.532
  20661514.327   -23319890.34844 -18158742.24642  20661516.106    20661514.245
  21373166.771   -22533482.57244 -17546068.33142  21373167.740    21373162.820
  23506291.478   -12658329.27243  -9801134.53742  23506293.804    23506291.955
  24291297.022     -147663.54543   -106562.92742  24291299.292    24291299.220
  22608594.435   -12586728.79943  -9506961.87442  22608596.470    22608595.449
  20219902.217   -25223639.59143 -19636924.29442  20219904.866    20219900.832
  22729153.917   -13614730.95743 -10425604.02842  22729155.883    22729155.785
 04  3 24  1 32 30.0000000  0  9G25G11G15G22G18G 9G31G14G 3
  23845430.563    -8177305.72243  -6321200.60642  23845433.381    23845435.807
  24490751.894    -7182906.29743  -5575634.35942  24490754.334    24490755.095
  20671898.925   -23265318.74444 -18116218.93042  20671900.747    20671898.902
  21380373.736   -22495609.66044 -17516556.95542  21380374.700    21380369.783
  23519675.286   -12587997.52543  -9746330.58542  23519677.632    23519675.469
  24303800.785      -81956.29343    -55362.45142  24303802.991    24303802.815
  22612188.465   -12567840.83043  -9492243.95142  22612190.574    22612189.712
  20219365.264   -25226461.06843 -19639122.81842  20219367.899    20219363.885
  22742725.881   -13543409.57143 -10370028.98042  22742727.931    22742727.906
 04  3 24  1 33  0.0000000  0  8G25G11G15G22G18G31G14G 3
  23826683.034    -8275823.47943  -6397967.45842  23826686.019    23826688.107
  24471873.774    -7282111.21243  -5652936.76342  24471876.205    24471876.687
  20682371.243   -23210286.21544 -18073336.45242  20682373.071    20682371.237
  21387608.397   -22457591.43544 -17486932.35542  21387609.330    21387604.390
  23533071.981   -12517598.07043  -9691473.87742  23533074.281    23533071.932
  22615885.578   -12548413.37943  -9477105.67442  22615887.618    22615886.629
  20218925.728   -25228770.67343 -19640922.48242  20218928.353    20218924.356
  22756353.131   -13471798.20443 -10314227.97942  22756355.154    22756355.203
 04  3 24  1 33 30.0000000  0  8G25G11G15G22G18G31G14G 3
  23807941.769    -8374308.18543  -6474708.56042  23807944.825    23807946.764
  24453010.708    -7381237.20843  -5730177.69042  24453012.998    24453013.286
  20692929.495   -23154802.28144 -18030102.22942  20692931.295    20692929.503
  21394868.965   -22419436.74844 -17457201.41942  21394869.909    21394864.975
  23546479.714   -12447139.63143  -9636571.19542  23546482.089    23546479.850
  22619683.257   -12528456.64843  -9461554.98042  22619685.424    22619684.201
  20218581.748   -25230578.30743 -19642330.99642  20218584.364    20218580.323
  22770033.323   -13399908.61543 -10258210.17942  22770035.337    22770035.389
 04  3 24  1 34  0.0000000  0  8G25G11G15G22G18G31G14G 3
  23789208.118    -8472752.78543  -6551418.39942  23789211.045    23789213.119
  24434163.740    -7480278.25443  -5807352.43342  24434166.260    24434166.229
  20703574.402   -23098863.13044 -17986513.29042  20703576.184    20703574.388
  21402156.292   -22381141.42144 -17427360.89242  21402157.247    21402152.332
  23559899.419   -12376618.03943  -9581619.28542  23559901.864    23559899.785
  22623581.871   -12507967.81943  -9445589.64142  22623584.153    22623583.058
  20218333.862   -25231880.45643 -19643345.63042  20218336.512    20218332.496
  22783766.646   -13327739.19843 -10201974.32542  22783768.703    22783768.824
 04  3 24  1 34 30.0000000  0  8G25G11G15G22G18G31G14G 3
  23770482.973    -8571153.72343  -6628094.22042  23770485.742    23770487.817
  24415333.628    -7579230.86443  -5884458.26942  24415336.200    24415336.045
  20714306.029   -23042468.30644 -17942569.28242  20714307.801    20714305.963
  21409470.519   -22342704.89744 -17397410.34642  21409471.479    21409466.573
  23573331.607   -12306031.76043  -9526617.00342  23573334.054    23573331.950
  22627582.203   -12486947.12343  -9429209.87442  22627584.424    22627583.302
  20218182.267   -25232676.86543 -19643966.17742  20218184.917    20218180.928
  22797553.001   -13255291.83743 -10145521.90042  22797555.025    22797555.143
 04  3 24  1 35  0.0000000  0  8G25G11G15G22G18G31G14G 3
  23751766.243    -8669510.26743  -6704735.44942  23751769.019    23751771.044
  24396520.236    -7678095.28643  -5961495.38442  24396522.866    24396522.610
  20725123.823   -22985620.40144 -17898272.22742  20725125.605    20725123.763
  21416811.221   -22304129.41244 -17367351.51742  21416812.165    21416807.235
  23586775.547   -12235383.75943  -9471566.62042  23586777.997    23586775.711
  22631682.966   -12465398.20443  -9412418.50942  22631685.290    22631683.881
  20218126.273   -25232970.89043 -19644195.25742  20218128.931    20218124.956
  22811391.344   -13182571.65243 -10088856.88342  22811393.345    22811393.362
 04  3 24  1 35 30.0000000  0  8G25G11G15G22G18G31G14G 3
  23733059.124    -8767815.63743  -6781336.82742  23733061.980    23733063.906
  24377724.623    -7776865.75243  -6038459.27142  24377727.316    24377727.240
  20736028.447   -22928316.29644 -17853619.69042  20736030.190    20736028.381
  21424179.060   -22265411.21144 -17337181.48242  21424180.021    21424175.070
  23600231.827   -12164670.30843  -9416465.23842  23600234.324    23600231.953
  22635884.385   -12443318.63243  -9395213.64442  22635886.750    22635885.405
  20218166.543   -25232759.11943 -19644030.20842  20218169.186    20218165.223
  22825281.764   -13109577.52343 -10031978.41042  22825283.769    22825283.716
 04  3 24  1 36  0.0000000  0  8G25G11G15G22G18G31G14G 3
  23714361.650    -8866070.15243  -6857898.57942  23714364.592    23714366.486
  24358946.706    -7875543.12343  -6115350.60742  24358949.444    24358949.495
  20747019.137   -22870559.77944 -17808614.63242  20747020.880    20747019.082
  21431573.407   -22226553.73744 -17306902.92642  21431574.375    21431569.392
  23613699.954   -12093894.28243  -9361315.10342  23613702.377    23613700.043
  22640186.171   -12420713.01443  -9377598.87942  22640188.469    22640187.178
  20218302.256   -25232045.84343 -19643474.37642  20218304.903    20218300.925
  22839223.192   -13036315.25443  -9974891.00242  22839225.204    22839225.168
 04  3 24  1 36 30.0000000  0  8G25G11G15G22G18G31G14G 3
  23695674.402    -8964271.46843  -6934418.88442  23695677.349    23695679.142
  24340186.922    -7974125.70843  -6192168.07942  24340189.654    24340189.639
  20758095.785   -22812351.55844 -17763257.59342  20758097.519    20758095.749
  21438994.178   -22187557.17144 -17276515.98442  21438995.135    21438990.165
  23627180.036   -12023055.59343  -9306116.12342  23627182.393    23627180.144
  22644587.717   -12397582.82343  -9359575.35942  22644589.994    22644588.798
  20218533.241   -25230832.14443 -19642528.60342  20218535.851    20218531.888
  22853215.025   -12962787.80343  -9917596.95842  22853217.039    22853217.073
 04  3 24  1 37  0.0000000  0  8G25G11G15G22G18G31G14G 3
  23676998.165    -9062414.80143  -7010893.98842  23677001.187    23677002.803
  24321445.972    -8072609.54143  -6268908.59142  24321448.692    24321448.549
  20769258.576   -22753690.92344 -17717548.02442  20769260.277    20769258.553
  21446441.711   -22148420.09444 -17246019.54842  21446442.670    21446437.663
  23640672.459   -11952152.82843  -9250867.23342  23640674.706    23640672.529
  22649089.088   -12373927.99243  -9341143.01742  22649091.330    22649090.221
  20218859.455   -25229117.52443 -19641192.50242  20218862.101    20218858.157
  22867256.957   -12888996.57343  -9860097.36342  22867258.950    22867259.081
 04  3 24  1 37 30.0000000  0  8G25G11G15G22G18G31G14G 3
  23658332.985    -9160500.35243  -7087324.08742  23658336.002    23658337.517
  24302723.457    -8170995.59443  -6345572.89942  24302726.259    24302726.239
  20780506.762   -22694581.53344 -17671488.77842  20780508.465    20780506.715
  21453915.364   -22109145.77544 -17215416.17442  21453916.337    21453911.300
  23654176.626   -11881188.78443  -9195570.58242  23654178.877    23654176.611
  22653689.438   -12349753.27843  -9322305.59542  22653691.678    22653690.455
  20219280.281   -25226906.04743 -19639469.24042  20219282.891    20219278.954
  22881347.997   -12814947.54043  -9802396.88842  22881350.012    22881350.144
 04  3 24  1 38  0.0000000  0  8G25G11G15G22G18G31G14G 3
  23639680.025    -9258521.65743  -7163704.12242  23639683.052    23639684.585
  24284020.840    -8269278.11843  -6422156.54742  24284023.669    24284023.436
  20791840.942   -22635020.15244 -17625077.33142  20791842.643    20791840.879
  21461415.831   -22069730.48544 -17184702.95142  21461416.803    21461411.768
  23667692.886   -11810160.13543  -9140223.57742  23667695.170    23667693.035
  22658388.956   -12325056.17543  -9303061.10042  22658391.168    22658390.158
  20219796.228   -25224194.59944 -19637356.38742  20219798.867    20219794.883
  22895488.367   -12740639.50243  -9744494.59242  22895490.346    22895490.566
 04  3 24  1 38 30.0000000  0  8G25G11G15G22G18G31G14G 3
  23621039.470    -9356477.55643  -7240033.20642  23621042.408    23621044.033
  24265338.062    -8367456.75943  -6498659.25842  24265340.936    24265340.344
  20803260.556   -22575009.66544 -17578315.92842  20803262.272    20803260.506
  21468942.715   -22030176.59944 -17153881.73342  21468943.685    21468938.616
  23681221.013   -11739068.84343  -9084827.75742  23681223.354    23681221.272
  22663187.358   -12299840.29043  -9283412.35842  22663189.473    22663188.707
  20220406.681   -25220986.51744 -19634856.55142  20220409.342    20220405.333
  22909677.146   -12666077.40843  -9686394.32642  22909679.066    22909679.308
 04  3 24  1 39  0.0000000  0  8G25G11G15G22G18G31G14G 3
  23602411.886    -9454364.92243  -7316308.87542  23602414.802    23602416.498
  24246675.515    -8465528.91643  -6575078.99642  24246678.503    24246677.550
  20814765.572   -22514550.35944 -17531204.79342  20814767.318    20814765.542
  21476496.076   -21990483.51344 -17122952.04142  21476497.033    21476491.930
  23694761.348   -11667914.18643  -9029382.57042  23694763.616    23694761.562
  22668084.589   -12274106.64843  -9263360.19342  22668086.612    22668085.716
  20221111.588   -25217282.10643 -19631969.96542  20221114.231    20221110.238
  22923913.842   -12591263.56943  -9628097.90642  22923915.708    22923915.974
 04  3 24  1 39 30.0000000  0  8G25G11G15G22G18G31G14G 3
  23583797.243    -9552184.04843  -7392531.35242  23583800.169    23583801.939
  24228032.963    -8563495.65943  -6651416.58542  24228036.181    24228034.902
  20826355.295   -22453645.87144 -17483746.76442  20826357.079    20826355.280
  21484075.324   -21950654.38444 -17091916.34542  21484076.301    21484071.136
  23708313.281   -11596699.20243  -8973890.38742  23708315.572    23708313.305
  22673078.945   -12247860.15843  -9242908.39142  22673081.034    22673080.289
  20221910.139   -25213085.65144 -19628699.96842  20221912.769    20221908.776
  22938197.310   -12516203.84343  -9569609.86342  22938199.222    22938199.462
 04  3 24  1 40  0.0000000  0  8G25G11G15G22G18G31G14G 3
  23565197.076    -9649928.16843  -7468695.39142  23565199.907    23565201.568
  24209411.663    -8661351.29643  -6727667.60542  24209414.773    24209413.261
  20838030.335   -22392293.12944 -17435939.44742  20838032.102    20838030.331
  21491681.074   -21910685.76944 -17060771.95342  21491682.059    21491676.912
  23721877.402   -11525419.88043  -8918348.06142  23721879.706    23721877.265
  22678171.259   -12221098.39443  -9222055.06742  22678173.382    22678172.970
  20222802.799   -25208394.62344 -19625044.59242  20222805.417    20222801.412
  22952527.646   -12440897.41243  -9510929.59942  22952529.612    22952529.824
 04  3 24  1 40 30.0000000  0  8G25G11G15G22G18G31G14G 3
  23546611.413    -9747596.32843  -7544800.22542  23546614.201    23546615.667
  24190811.587    -8759095.07443  -6803831.47442  24190814.685    24190812.833
  20849790.238   -22330494.61944 -17387784.78142  20849791.999    20849790.249
  21499312.996   -21870579.44644 -17029520.25542  21499313.968    21499308.847
  23735453.263   -11454077.93243  -8862756.93242  23735455.617    23735453.162
  22683361.379   -12193824.80943  -9200802.94142  22683363.417    22683362.947
  20223789.101   -25203211.48544 -19621005.75442  20223791.718    20223787.700
  22966904.015   -12365348.79743  -9452060.61342  22966906.068    22966906.325
 04  3 24  1 41  0.0000000  0  8G25G11G15G22G18G31G14G 3
  23528041.320    -9845182.28043  -7620841.01142  23528044.119    23528045.450
  24172233.846    -8856721.31343  -6879903.74042  24172237.127    24172234.904
  20861635.436   -22268247.79844 -17339280.77742  20861637.213    20861635.476
  21506971.813   -21830331.89944 -16998158.51242  21506972.779    21506967.669
  23749041.607   -11382670.11443  -8807114.45942  23749043.956    23749041.749
  22688649.157   -12166037.55243  -9179150.54242  22688651.204    22688650.675
  20224869.500   -25197533.89544 -19616581.62842  20224872.088    20224868.053
  22981326.793   -12289557.25643  -9393002.34142  22981328.816    22981329.036
 04  3 24  1 41 30.0000000  0  8G25G11G15G22G18G31G14G 3
  23509485.998    -9942690.07443  -7696820.91142  23509489.011    23509490.194
  24153677.612    -8954234.94543  -6955888.23542  24153680.881    24153678.604
  20873564.470   -22205560.37944 -17290433.45142  20873566.237    20873564.485
  21514656.179   -21789950.05144 -16966692.12242  21514657.124    21514652.057
  23762641.282   -11311203.35543  -8751426.07842  23762643.572    23762641.523
  22694033.007   -12137745.20643  -9157104.57742  22694035.098    22694034.489
  20226042.441   -25191370.01344 -19611778.57242  20226045.026    20226040.941
  22995793.773   -12213532.67843  -9333762.47442  22995795.880    22995796.057
 04  3 24  1 42  0.0000000  0  8G25G11G15G22G18G31G14G 3
  23490947.254   -10040111.04743  -7772733.17242  23490950.289    23490951.537
  24135144.258    -9051628.52043  -7031779.20642  24135147.501    24135145.183
  20885578.219   -22142427.63744 -17241239.12442  20885579.985    20885578.230
  21522367.082   -21749428.96944 -16935117.23442  21522368.012    21522362.914
  23776253.296   -11239672.22843  -8695687.52842  23776255.570    23776253.473
  22699513.572   -12108944.15543  -9134662.21242  22699515.693    22699515.116
  20227308.729   -25184715.53944 -19606593.24042  20227311.314    20227307.194
  23010305.620   -12137272.58443  -9274339.08942  23010307.721    23010307.943
 04  3 24  1 42 30.0000000  0  8G25G11G15G22G18G31G14G 3
  23472425.158   -10137444.08643  -7848576.88442  23472428.250    23472429.623
  24116633.834    -9148901.26243  -7107576.03342  24116637.119    24116634.692
  20897676.275   -22078851.99143 -17191699.67442  20897677.996    20897676.316
  21530104.138   -21708770.23044 -16903435.08442  21530105.097    21530100.010
  23789877.208   -11168078.07143  -8639899.89242  23789879.474    23789877.385
  22705090.420   -12079637.63743  -9111825.97442  22705092.502    22705091.894
  20228667.860   -25177573.11244 -19601027.68642  20228670.439    20228666.328
  23024861.451   -12060781.42743  -9214735.65242  23024863.488    23024863.762
 04  3 24  1 43  0.0000000  0  8G25G11G15G22G18G31G14G 3
  23453920.561   -10234685.72343  -7924349.37842  23453923.548    23453925.021
  24098146.878    -9246050.52043  -7183276.63242  24098150.113    24098147.788
  20909858.589   -22014833.74344 -17141815.34042  20909860.284    20909858.605
  21537867.536   -21667973.27444 -16871645.22642  21537868.478    21537863.385
  23803513.124   -11096420.52843  -8584062.85142  23803515.429    23803513.436
  22710763.512   -12049826.65843  -9088596.67242  22710765.575    22710764.604
  20230119.780   -25169943.22744 -19595082.29342  20230122.351    20230118.205
  23039460.835   -11984061.52843  -9154953.97542  23039462.818    23039463.079
 04  3 24  1 43 30.0000000  0  8G25G11G15G22G18G31G14G 3
  23435433.183   -10331836.94643  -8000051.42342  23435436.126    23435437.449
  24079683.136    -9343077.46943  -7258881.92442  24079686.400    24079684.146
  20922124.241   -21950377.25344 -17091589.51642  20922125.959    20922124.306
  21545656.493   -21627041.72844 -16839750.49442  21545657.464    21545652.406
  23817160.439   -11024702.93943  -8528179.02042  23817162.784    23817160.833
  22716531.260   -12019516.74243  -9064978.57742  22716533.407    22716532.395
  20231663.509   -25161830.80144 -19588760.89342  20231666.074    20231661.888
  23054102.533   -11907119.38243  -9094999.11042  23054104.514    23054104.701
 04  3 24  1 44  0.0000000  0  8G25G11G15G22G18G31G14G 3
  23416964.651   -10428889.17143  -8075676.33342  23416967.512    23416968.737
  24061244.124    -9439974.39843  -7334385.87842  24061247.381    24061245.140
  20934474.185   -21885477.72444 -17041018.46542  20934475.934    20934474.311
  21553472.199   -21585970.02844 -16807746.55142  21553473.159    21553468.099
  23830820.385   -10952919.42643  -8472243.82642  23830822.708    23830820.726
  22722394.596   -11988703.88143  -9040968.57242  22722396.804    22722395.903
  20233299.912   -25153231.32244 -19582059.97642  20233302.469    20233298.277
  23068787.195   -11829951.94743  -9034868.71742  23068789.121    23068789.246
 04  3 24  1 44 30.0000000  0  8G25G11G15G22G18G31G14G 3
  23398514.601   -10525844.07443  -8151225.41142  23398517.521    23398518.573
  24042829.356    -9536743.97543  -7409790.60442  24042832.512    24042830.464
  20946907.408   -21820140.80644 -16990106.58542  20946909.145    20946907.508
  21561313.653   -21544762.77044 -16775636.98142  21561314.619    21561309.570
  23844492.076   -10881074.57143  -8416260.81142  23844494.441    23844492.294
  22728352.728   -11957394.44443  -9016571.63642  22728354.858    22728353.885
  20235027.904   -25144150.59244 -19574984.05442  20235030.459    20235026.272
  23083513.218   -11752566.58743  -8974568.50942  23083515.250    23083515.278
 04  3 24  1 45  0.0000000  0  8G25G11G15G22G18G31G14G 3
  23380083.657   -10622698.65643  -8226696.30942  23380086.615    23380087.556
  24024439.429    -9633383.25143  -7485093.77742  24024442.628    24024440.621
  20959423.716   -21754367.25444 -16938854.47342  20959425.492    20959423.791
  21569180.913   -21503419.98544 -16743421.81342  21569181.851    21569176.875
  23858175.479   -10809168.15443  -8360229.83742  23858177.818    23858175.551
  22734404.871   -11925590.12443  -8991789.07642  22734406.968    22734406.058
  20236847.283   -25134589.41244 -19567533.75942  20236849.854    20236845.690
  23098280.046   -11674966.38343  -8914100.89642  23098282.187    23098282.171
 04  3 24  1 45 30.0000000  0  8G25G11G15G22G18G31G14G 3
  23361672.930   -10719446.75243  -8302084.24542  23361675.937    23361676.861
  24006075.250    -9729887.51943  -7560291.75742  24006078.318    24006076.483
  20972023.543   -21688154.68044 -16887260.26442  20972025.340    20972023.632
  21577074.555   -21461938.41744 -16711098.50142  21577075.512    21577070.555
  23871871.135   -10737197.29243  -8304148.65742  23871873.431    23871871.043
  22740551.483   -11893289.49143  -8966619.77542  22740553.579    22740552.698
  20238758.472   -25124545.98744 -19559707.68442  20238761.046    20238756.856
  23113087.862   -11597150.67943  -8853465.35342  23113090.031    23113090.092
 04  3 24  1 46  0.0000000  0  8G25G11G15G22G18G31G14G 3
  23343282.925   -10816086.08543  -8377387.42642  23343285.953    23343286.825
  23987737.302    -9826254.41843  -7635382.67642  23987740.283    23987738.462
  20984706.613   -21621504.63844 -16835325.16942  20984708.456    20984706.693
  21584994.522   -21420318.68843 -16678667.53342  21584995.445    21584990.505
  23885578.819   -10665162.53743  -8248017.67342  23885581.121    23885578.702
  22746792.028   -11860495.04743  -8941065.69642  22746794.147    22746793.259
  20240761.032   -25114022.24044 -19551507.33642  20240763.609    20240759.441
  23127936.067   -11519123.15943  -8792664.77142  23127938.184    23127938.335
 04  3 24  1 46 30.0000000  0  8G25G11G15G22G18G31G14G 3
  23324913.032   -10912619.40843  -8452608.00342  23324916.138    23324916.996
  23969424.703    -9922487.90243  -7710369.65542  23969427.545    23969425.737
  20997471.657   -21554423.80544 -16783054.39142  20997473.490    20997471.771
  21592939.625   -21378566.75244 -16646133.54542  21592940.571    21592935.592
  23899297.539   -10593069.42443  -8191841.21842  23899299.813    23899297.672
  22753125.046   -11827214.36043  -8915132.70942  22753127.166    22753126.381
  20242853.677   -25103025.22544 -19542938.20542  20242856.269    20242852.083
  23142822.837   -11440892.64543  -8731706.01842  23142824.927    23142825.275
 04  3 24  1 47  0.0000000  0  8G25G11G15G22G18G31G14G 3
  23306565.488   -11009035.56143  -8527737.28642  23306568.532    23306569.446
  23951139.466   -10018577.22043  -7785244.29542  23951142.297    23951140.446
  21010320.035   -21486904.93444 -16730442.28642  21010321.875    21010320.228
  21600911.545   -21336674.19644 -16613489.98442  21600912.469    21600907.440
  23913029.045   -10520909.28543  -8135612.51342  23913031.351    23913029.418
  22759552.078   -11793440.93143  -8888815.77142  22759554.135    22759553.265
  20245037.749   -25091547.73344 -19533994.67542  20245040.341    20245036.156
  23157749.263   -11362453.56743  -8670584.73342  23157751.376    23157751.795
 04  3 24  1 47 30.0000000  0  8G25G11G15G22G18G31G14G 3
  23288239.478   -11105338.77343  -8602778.57042  23288242.443    23288243.337
  23932880.585   -10114527.33743  -7860010.45742  23932883.428    23932881.642
  21023250.336   -21418955.89244 -16677494.98442  21023252.159    21023250.480
  21608908.874   -21294648.08144 -16580742.35142  21608909.798    21608904.704
  23926772.271   -10448689.14743  -8079337.09142  23926774.478    23926772.490
  22766071.122   -11759183.68543  -8862121.84142  22766073.155    22766072.326
  20247311.617   -25079598.19444 -19524683.31742  20247314.232    20247310.052
  23172713.781   -11283815.50643  -8609308.41242  23172715.788    23172716.167
 04  3 24  1 48  0.0000000  0  8G25G11G15G22G18G31G14G 3
  23269936.200   -11201523.04143  -8677727.16442  23269939.086    23269939.865
  23914649.311   -10210332.80743  -7934663.91042  23914652.126    23914650.439
  21036262.906   -21350574.63644 -16624210.89342  21036264.714    21036263.009
  21616932.176   -21252485.35844 -16547888.26542  21616933.114    21616927.961
  23940527.443   -10376405.83943  -8023012.43242  23940529.767    23940527.495
  22772682.082   -11724441.55843  -8835050.06642  22772684.192    22772683.543
  20249675.704   -25067174.68144 -19515002.62742  20249678.293    20249674.117
  23187716.001   -11204978.42543  -8547877.01742  23187718.033    23187718.447
 04  3 24  1 48 30.0000000  0  8G25G11G15G22G18G31G14G 3
  23251656.352   -11297583.65943  -8752579.40342  23251659.281    23251659.914
  23896446.381   -10305989.50243  -8009201.45142  23896449.134    23896447.477
  21049357.799   -21281760.37543 -16570589.39342  21049359.620    21049357.948
  21624981.810   -21210184.25044 -16514926.35442  21624982.755    21624977.563
  23954294.790   -10304057.53943  -7966637.14342  23954297.229    23954294.763
  22779385.503   -11689214.63743  -8807600.53042  22779387.586    22779386.923
  20252130.071   -25054276.68044 -19504952.20742  20252132.658    20252128.506
  23202755.907   -11125943.19143  -8486291.20142  23202757.935    23202758.407
 04  3 24  1 49  0.0000000  0  8G25G11G15G22G18G31G14G 3
  23233399.835   -11393521.11743  -8827335.67942  23233402.838    23233403.417
  23878271.418   -10401498.82543  -8083624.15542  23878274.181    23878272.595
  21062534.276   -21212517.50743 -16516633.91342  21062536.079    21062534.491
  21633057.075   -21167748.16844 -16481859.26442  21633058.047    21633052.878
  23968073.806   -10231647.23243  -7910213.52842  23968076.315    23968073.893
  22786180.443   -11653508.05643  -8779777.24142  22786182.439    22786181.765
  20254673.840   -25040908.74543 -19494535.60642  20254676.440    20254672.324
  23217832.446   -11046716.19843  -8424555.98442  23217834.375    23217834.906
 04  3 24  1 49 30.0000000  0  8G25G11G15G22G18G31G14G 3
  23215167.610   -11489331.29443  -8901992.78042  23215170.590    23215171.164
  23860125.074   -10496857.28343  -8157929.30842  23860127.864    23860126.348
  21075792.344   -21142846.11943 -16462344.53142  21075794.116    21075792.525
  21641158.209   -21125176.18443 -16448686.28342  21641159.180    21641154.095
  23981864.832   -10159174.43043  -7853741.21242  23981867.342    23981864.954
  22793066.263   -11617323.08043  -8751581.17242  22793068.299    22793067.658
  20257306.993   -25027071.40144 -19483753.23142  20257309.547    20257305.443
  23232944.931   -10967299.42943  -8362672.87442  23232946.848    23232947.541
 04  3 24  1 50  0.0000000  0  8G25G11G15G22G18G31G14G 3
  23196960.609   -11585009.35643  -8976546.93242  23196963.525    23196964.046
  23842008.273   -10592060.67243  -8232113.64642  23842011.027    23842009.633
  21089132.077   -21072745.29543 -16407720.52342  21089133.814    21089132.239
  21649285.591   -21082466.25943 -16415405.80642  21649286.564    21649281.540
  23995668.325   -10086636.98943  -7797218.51842  23995670.856    23995668.360
  22800043.084   -11580659.72543  -8723012.32942  22800045.176    22800044.484
  20260029.514   -25012764.10844 -19472604.66042  20260032.114    20260027.983
  23248093.445   -10887693.64943  -8300642.48242  23248095.363    23248096.072
 04  3 24  1 50 30.0000000  0  8G25G11G15G22G18G31G14G 3
  23178778.205   -11680558.03943  -9051000.26442  23178781.186    23178781.520
  23823920.434   -10687111.96543  -8306179.46942  23823923.213    23823921.827
  21102552.310   -21002221.36843 -16352766.82942  21102554.056    21102552.481
  21657438.265   -21039623.50843 -16382021.83842  21657439.221    21657434.296
  24009483.086   -10014039.89943  -7740649.34542  24009485.688    24009483.007
  22807109.733   -11543524.94043  -8694076.15942  22807111.831    22807110.930
  20262840.263   -24997993.47744 -19461095.04942  20262842.824    20262838.742
  23263276.370   -10807907.45743  -8238471.51742  23263278.235    23263278.999
 04  3 24  1 51  0.0000000  0  8G25G11G15G22G18G31G14G 3
  23160621.991   -11775968.75943  -9125346.10042  23160624.973    23160625.217
  23805862.938   -10782003.50343  -8380120.80642  23805865.766    23805864.443
  21116054.029   -20931269.74243 -16297479.86542  21116055.740    21116054.112
  21665617.254   -20996642.47043 -16348530.10942  21665618.206    21665613.351
  24023310.036    -9941377.77943  -7684029.49542  24023312.764    24023310.099
  22814266.514   -11505915.46743  -8664770.07642  22814268.664    22814267.791
  20265739.972   -24982755.30644 -19449221.12142  20265742.526    20265738.452
  23278494.064   -10727937.80743  -8176157.60042  23278495.990    23278496.743
 04  3 24  1 51 30.0000000  0  8G25G11G15G22G18G31G14G 3
  23142492.260   -11871240.26243  -9199583.44342  23142495.207    23142495.369
  23787835.854   -10876734.77843  -8453937.25642  23787838.691    23787837.591
  21129636.577   -20859893.27443 -16241861.85842  21129638.258    21129636.625
  21673822.220   -20953525.17944 -16314932.20542  21673823.153    21673818.256
  24037149.111    -9868652.20543  -7627360.21542  24037151.782    24037149.546
  22821512.970   -11467835.20243  -8635097.15642  22821515.062    22821514.218
  20268728.028   -24967052.87144 -19436985.42942  20268730.594    20268726.484
  23293745.829   -10647789.25943  -8113704.27742  23293747.765    23293748.640
 04  3 24  1 52  0.0000000  0  8G25G11G15G22G18G31G14G 3
  23124388.962   -11966373.41343  -9273712.98942  23124391.790    23124391.911
  23769839.089   -10971307.07743  -8527629.84842  23769841.890    23769840.908
  21143298.988   -20788096.79043 -16185916.56242  21143300.659    21143299.019
  21682052.432   -20910275.13444 -16281230.86242  21682053.400    21682048.449
  24050999.886    -9795866.70243  -7570644.22442  24051002.340    24051000.196
  22828847.987   -11429289.81143  -8605061.80242  22828850.068    22828849.191
  20271803.445   -24950891.24944 -19424391.93042  20271806.034    20271801.894
  23309030.379   -10567468.56043  -8051116.80842  23309032.317    23309033.273
 04  3 24  1 52 30.0000000  0  8G25G11G15G22G18G31G14G 3
  23106313.534   -12061359.76643  -9347728.12242  23106316.437    23106316.429
  23751874.113   -11065712.71743  -8601192.57742  23751876.846    23751875.930
  21157042.116   -20715875.85943 -16129640.51642  21157043.840    21157042.225
  21690308.983   -20866886.80144 -16247421.75742  21690309.918    21690304.919
  24064863.089    -9723015.53743  -7513877.07942  24064865.474    24064863.388
  22836271.944   -11390275.81943  -8574661.29242  22836274.082    22836273.405
  20274967.016   -24934266.15344 -19411437.28442  20274969.644    20274965.540
  23324348.267   -10486973.18743  -7988393.23542  23324350.160    23324351.153
 04  3 24  1 53  0.0000000  0  8G25G11G15G22G18G31G14G 3
  23088265.661   -12156201.13743  -9421630.29842  23088268.751    23088268.622
  23733940.409   -11159953.91643  -8674627.16742  23733943.093    23733942.412
  21170864.905   -20643236.61043 -16073038.51942  21170866.627    21170865.049
  21698590.914   -20823365.02444 -16213508.67242  21698591.850    21698586.789
  24078737.858    -9650103.34943  -7457062.37542  24078740.224    24078738.229
  22843783.859   -11350800.07843  -8543900.98142  22843785.985    22843785.361
  20278217.685   -24917183.81844 -19398126.34842  20278220.318    20278216.204
  23339698.029   -10406310.65643  -7925539.41442  23339699.845    23339700.710
 04  3 24  1 53 30.0000000  0  8G25G11G15G22G18G31G14G 3
  23070246.596   -12250890.76243  -9495414.22742  23070249.784    23070249.601
  23716039.166   -11254024.61743  -8747928.90942  23716041.827    23716041.270
  21184767.829   -20570176.25643 -16016108.38642  21184769.529    21184767.971
  21706899.035   -20779705.57144 -16179488.30942  21706899.978    21706894.870
  24092624.814    -9577126.10943  -7400196.97042  24092627.337    24092625.284
  22851384.210   -11310860.63243  -8512779.35642  22851386.252    22851385.500
  20281555.797   -24899641.75544 -19384457.18142  20281558.447    20281554.303
  23355079.590   -10325480.01243  -7862554.58142  23355081.486    23355082.343
 04  3 24  1 54  0.0000000  0  8G25G11G15G22G18G31G14G 3
  23052256.348   -12345428.70043  -9569079.95742  23052259.522    23052259.452
  23698170.315   -11347925.40943  -8821098.24442  23698172.937    23698172.429
  21198750.125   -20496698.51343 -15958853.00342  21198751.882    21198750.305
  21715232.799   -20735911.36844 -16145362.94242  21715233.730    21715228.590
  24106523.625    -9504087.00343  -7343283.37342  24106526.193    24106524.143
  22859071.720   -11270462.58543  -8481300.36642  22859073.793    22859073.002
  20284980.663   -24881644.16444 -19370433.05642  20284983.272    20284979.101
  23370492.249   -10244486.65343  -7799442.96042  23370494.151    23370494.998
 04  3 24  1 54 30.0000000  0  8G25G11G15G22G18G31G14G 3
  23034295.909   -12439810.81543  -9642624.25142  23034298.941    23034298.927
  23680334.436   -11441652.93443  -8894132.58042  23680337.072    23680336.635
  21212811.863   -20422803.94843 -15901272.82842  21212813.631    21212811.931
  21723592.336   -20691981.57443 -16111131.92742  21723593.272    21723588.153
  24120434.560    -9430985.00243  -7286320.75342  24120437.088    24120434.821
  22866846.114   -11229607.21043  -8449465.01342  22866848.252    22866847.573
  20288492.021   -24863191.72644 -19356054.50742  20288494.641    20288490.503
  23385935.506   -10163332.74443  -7736206.24742  23385937.411    23385938.201
 04  3 24  1 55  0.0000000  0  8G25G11G15G22G18G31G14G 3
  23016365.555   -12534034.97043  -9716045.44942  23016368.488    23016368.448
  23662532.001   -11535205.66743  -8967030.72842  23662534.638    23662533.973
  21226952.516   -20348494.34543 -15843369.25242  21226954.311    21226952.551
  21731977.556   -20647916.88943 -16076795.79742  21731978.491    21731973.408
  24134357.581    -9357819.95743  -7229309.04042  24134360.076    24134357.645
  22874707.096   -11188297.22343  -8417275.42242  22874709.252    22874708.611
  20292089.518   -24844286.69144 -19341323.28342  20292092.149    20292088.008
  23401408.615   -10082021.62943  -7672847.03342  23401410.628    23401411.248
 04  3 24  1 55 30.0000000  0  8G25G11G15G22G18G31G14G 3
  22998465.617   -12628099.00643  -9789341.89542  22998468.607    22998468.410
  23644763.159   -11628581.68143  -9039791.16742  23644765.840    23644765.030
  21241171.745   -20273771.46443 -15785143.63242  21241173.577    21241171.870
  21740388.372   -20603717.44043 -16042354.65842  21740389.339    21740384.269
  24148292.346    -9284592.34643  -7172248.54242  24148294.869    24148292.435
  22882654.241   -11146535.27143  -8384733.64842  22882656.302    22882655.658
  20295772.817   -24824930.70144 -19326240.66342  20295775.440    20295771.312
  23416910.918   -10000556.86343  -7609368.09542  23416912.930    23416913.559
 04  3 24  1 56  0.0000000  0  8G25G11G15G22G18G31G14G 3
  22980597.147   -12721997.23343  -9862509.13442  22980600.253    22980599.964
  23627028.515   -11721776.49143  -9112410.38642  23627031.372    23627030.451
  21255470.028   -20198633.59143 -15726594.65142  21255471.826    21255470.156
  21748825.302   -20559380.70343 -16007806.53742  21748826.289    21748821.286
  24162239.361    -9211299.70443  -7115137.36442  24162241.829    24162239.628
  22890687.456   -11104320.97743  -8351839.40342  22890689.585    22890688.646
  20299542.108   -24805122.73144 -19310805.85642  20299544.728    20299540.613
  23432442.311    -9918938.56243  -7545769.50442  23432444.446    23432445.089
 04  3 24  1 56 30.0000000  0  8G25G11G15G22G18G31G14G 3
  22962760.538   -12815728.27243  -9935546.09142  22962763.667    22962763.435
  23609328.841   -11814788.13443  -9184886.88942  23609331.669    23609330.645
  21269846.828   -20123083.31143 -15667724.31442  21269848.565    21269846.930
  21757288.178   -20514907.94143 -15973152.42442  21757289.137    21757284.177
  24176198.479    -9137943.57743  -7057976.72042  24176200.973    24176198.835
  22898806.032   -11061657.91343  -8318595.46342  22898808.194    22898807.142
  20303396.869   -24784865.77444 -19295021.18142  20303399.474    20303395.380
  23448002.212    -9837171.07643  -7482054.66542  23448004.314    23448005.067
 04  3 24  1 57  0.0000000  0  8G25G11G15G22G18G31G14G 3
  22944955.761   -12909291.72943 -10008452.46142  22944958.923    22944958.781
  23591664.076   -11907617.43243  -9257221.31342  23591667.038    23591665.745
  21284301.248   -20047124.57943 -15608535.70142  21284303.025    21284301.416
  21765776.485   -20470301.57943 -15938394.21042  21765777.436    21765772.467
  24190169.471    -9064526.01443  -7000768.22742  24190171.839    24190169.617
  22907008.996   -11018550.73943  -8285005.45142  22907011.199    22907010.245
  20307336.273   -24764163.80944 -19278889.74942  20307338.881    20307334.791
  23463589.414    -9755259.97443  -7418227.93342  23463591.500    23463592.294
 04  3 24  1 57 30.0000000  0  8G25G11G15G22G18G31G14G 3
  22927183.850   -13002682.48843 -10081224.26742  22927187.001    22927186.922
  23574034.932   -12000259.57043  -9329409.90042  23574037.971    23574036.320
  21298833.711   -19970756.40443 -15549028.04542  21298835.418    21298833.806
  21774290.687   -20425559.26443 -15903530.05442  21774291.611    21774286.627
  24204152.543    -8991044.80443  -6943510.14842  24204154.865    24204152.528
  22915296.734   -10974999.46543  -8251069.38542  22915298.866    22915297.735
  20311360.530   -24743015.98544 -19262410.88942  20311363.134    20311359.041
  23479203.842    -9673205.76743  -7354289.67642  23479205.886    23479206.806
 04  3 24  1 58  0.0000000  0  8G25G11G15G22G18G31G14G 3
  22909445.400   -13095898.03543 -10153859.54642  22909448.455    22909448.344
  23556441.754   -12092712.94043  -9401451.40642  23556444.799    23556442.877
  21313443.654   -19893980.73743 -15489202.86642  21313445.386    21313443.710
  21782830.657   -20380681.60643 -15868560.43942  21782831.565    21782826.530
  24218147.376    -8917500.13143  -6886202.58942  24218149.776    24218147.524
  22923668.401   -10931006.92843  -8216789.49942  22923670.525    22923669.204
  20315469.194   -24721424.70044 -19245586.47642  20315471.785    20315467.683
  23494845.124    -9591011.82043  -7290242.54242  23494846.992    23494847.801
 04  3 24  1 58 30.0000000  0  8G25G11G15G22G18G31G14G 3
  22891741.179   -13188934.02543 -10226354.91742  22891744.190    22891743.929
  23538885.069   -12184973.78443  -9473342.88042  23538888.175    23538886.107
  21328131.198   -19816797.21543 -15429059.87142  21328132.901    21328131.265
  21791396.669   -20335667.01943 -15833484.12642  21791397.602    21791392.488
  24232154.850    -8843890.57143  -6828844.47042  24232157.182    24232155.102
  22932123.727   -10886573.80143  -8182166.28242  22932125.836    22932124.544
  20319662.317   -24699389.66544 -19228416.28442  20319664.919    20319660.766
  23510512.584    -9508679.45243  -7226087.54542  23510514.493    23510515.196
 04  3 24  1 59  0.0000000  0  8G25G11G15G22G18G31G14G 3
  22874071.249   -13281789.24043 -10298709.43742  22874074.349    22874073.933
  23521365.174   -12277041.43543  -9545083.79742  23521368.332    23521366.105
  21342895.710   -19739209.10443 -15368601.61142  21342897.417    21342895.820
  21799988.343   -20290517.24343 -15798302.47142  21799989.294    21799984.174
  24246174.508    -8770218.04343  -6771437.29942  24246176.796    24246174.693
  22940662.061   -10841704.45743  -8147203.16142  22940664.186    22940662.787
  20323939.182   -24676914.30444 -19210902.98142  20323941.821    20323937.662
  23526205.370    -9426213.37143  -7161828.35942  23526207.317    23526208.064
 04  3 24  1 59 30.0000000  0  8G25G11G15G22G18G31G14G 3
  22856435.736   -13374463.53543 -10370922.98842  22856438.888    22856438.364
  23503882.135   -12368916.08743  -9616674.36242  23503885.224    23503882.781
  21357736.553   -19661220.23343 -15307831.06842  21357738.237    21357736.614
  21808605.305   -20245234.77543 -15763017.41642  21808606.255    21808601.120
  24260205.558    -8696484.94843  -6713982.90142  24260207.958    24260205.696
  22949282.517   -10796403.56543  -8111903.77142  22949284.631    22949283.083
  20328299.063   -24654003.01644 -19193049.99442  20328301.677    20328297.491
  23541922.663    -9343619.14643  -7097469.32642  23541924.620    23541925.272
 04  3 24  2  0  0.0000000  0  8G25G11G15G22G18G31G14G 3
  22838836.098   -13466948.68243 -10442989.14442  22838839.291    22838838.808
  23486437.095   -12460590.45643  -9688108.84342  23486440.209    23486437.590
  21372654.388   -19582826.35643 -15246744.93242  21372656.110    21372654.494
  21817248.538   -20199814.19643 -15727624.74142  21817249.485    21817244.351
  24274248.863    -8622685.75843  -6656476.99442  24274251.340    24274249.125
  22957985.675   -10750668.16743  -8076265.81842  22957987.804    22957986.197
  20332742.600   -24630651.95044 -19174854.32142  20332745.246    20332740.984
  23557664.790    -9260894.07543  -7033008.33542  23557666.781    23557667.347
 04  3 24  2  0 30.0000000  0  8G25G11G15G22G18G31G14G 3
  22821272.983   -13559242.67843 -10514906.38442  22821276.052    22821275.616
  23469030.460   -12552062.67743  -9759385.80142  23469033.531    23469030.878
  21387648.848   -19504029.99643 -15185345.18642  21387650.567    21387648.978
  21825917.874   -20154256.34543 -15692125.10142  21825918.836    21825913.703
  24288304.795    -8548820.98543  -6598920.02542  24288307.304    24288304.941
  22966770.794   -10704501.48143  -8040291.77342  22966772.931    22966771.534
  20337269.335   -24606863.73644 -19156318.01842  20337271.969    20337267.711
  23573430.957    -9178042.19843  -6968448.52242  23573433.006    23573433.625
 04  3 24  2  1  0.0000000  0  8G25G11G15G22G18G31G14G 3
  22803746.586   -13651344.46243 -10586673.84042  22803749.499    22803749.047
  23451662.480   -12643332.31043  -9830504.91142  23451665.465    23451662.764
  21402719.248   -19424834.48143 -15123634.40642  21402720.980    21402719.414
  21834612.972   -20108563.10343 -15656519.95242  21834613.943    21834608.829
  24302372.995    -8474892.52143  -6541313.41642  24302375.437    24302372.914
  22975637.207   -10657907.79643  -8003985.02242  22975639.315    22975637.988
  20341878.620   -24582641.65144 -19137443.63542  20341881.239    20341876.987
  23589220.558    -9095068.16943  -6903793.54642  23589222.571    23589223.213
 04  3 24  2  1 30.0000000  0  8G25G11G15G22G18G31G14G 3
  22786256.451   -13743255.09543 -10658292.35042  22786259.348    22786258.856
  23434332.691   -12734401.00943  -9901467.44042  23434335.673    23434332.786
  21417864.558   -19345245.10543 -15061616.72342  21417866.285    21417864.769
  21843333.116   -20062738.23343 -15620812.24242  21843334.081    21843329.013
  24316452.502    -8400904.50143  -6483660.38642  24316454.914    24316452.442
  22984583.882   -10610893.36443  -7967350.41842  22984585.875    22984584.451
  20346569.371   -24557991.38744 -19118235.60642  20346571.989    20346567.734
  23605031.965    -9011978.85643  -6839048.73442  23605034.066    23605034.816
 04  3 24  2  2  0.0000000  0  8G25G11G15G22G18G31G14G 3
  22768804.488   -13834965.26043 -10729754.65242  22768807.440    22768806.843
  23417042.715   -12825259.85943  -9972266.44942  23417045.719    23417042.742
  21433085.835   -19265256.80843 -14999288.18842  21433087.536    21433086.048
  21852079.626   -20016774.88543 -15584996.62142  21852080.572    21852075.534
  24330544.489    -8326849.96143  -6425955.52642  24330546.905    24330544.622
  22993611.157   -10563453.94843  -7930384.65542  22993613.170    22993611.857
  20351342.576   -24532907.91844 -19098690.01842  20351345.171    20351340.920
  23620866.001    -8928770.64743  -6774211.26742  23620868.136    23620868.965
 04  3 24  2  2 30.0000000  0  8G25G11G15G22G18G31G14G 3
  22751390.827   -13926474.06943 -10801060.06342  22751393.775    22751393.072
  23399792.708   -12915908.46443 -10042901.63342  23399795.736    23399792.704
  21448382.406   -19184872.96943 -14936651.44242  21448384.098    21448382.600
  21860852.141   -19970675.28743 -15549074.83642  21860853.082    21860847.975
  24344648.916    -8252731.09843  -6368200.54342  24344651.253    24344648.974
  23002718.506   -10515594.09743  -7893091.27942  23002720.548    23002719.451
  20356197.499   -24507394.93244 -19078809.74442  20356200.109    20356195.856
  23636721.755    -8845448.39643  -6709284.95142  23636723.905    23636724.783
 04  3 24  2  3  0.0000000  0  8G25G11G15G22G18G31G14G 3
  22734015.611   -14017780.79343 -10872208.01642  22734018.557    22734017.734
  23382582.712   -13006346.75443 -10113372.92842  23382585.726    23382582.730
  21463753.627   -19104097.04743 -14873709.18442  21463755.297    21463753.745
  21869650.118   -19924441.45743 -15513048.45242  21869651.110    21869645.977
  24358765.388    -8178549.46743  -6310396.66242  24358767.662    24358765.292
  23011905.134   -10467318.24043  -7855473.74542  23011907.138    23011906.024
  20361133.453   -24481456.27344 -19058597.77442  20361136.030    20361131.772
  23652598.259    -8762016.93243  -6644273.51742  23652600.373    23652601.424
 04  3 24  2  3 30.0000000  0  8G25G11G15G22G18G31G14G 3
  22716680.165   -14108878.53743 -10943193.12842  22716683.095    22716682.162
  23365413.912   -13096567.92043 -10183675.04342  23365416.995    23365414.098
  21479199.857   -19022926.30343 -14810459.26042  21479201.582    21479200.009
  21878474.508   -19878068.92343 -15476913.98742  21878475.506    21878470.386
  24372894.458    -8104300.87043  -6252540.60742  24372896.727    24372894.227
  23021171.256   -10418624.71643  -7817530.77342  23021173.295    23021172.048
  20366150.882   -24455089.36744 -19038052.10942  20366153.463    20366149.157
  23668495.694    -8678474.99943  -6579176.01342  23668497.756    23668499.108
 04  3 24  2  4  0.0000000  0  8G25G11G15G22G18G31G14G 3
  22699383.780   -14199770.87043 -11014018.17442  22699386.724    22699385.771
  23348285.711   -13186576.30843 -10253811.33942  23348288.656    23348285.984
  21494719.801   -18941368.74043 -14746907.92142  21494721.504    21494719.904
  21887324.061   -19831564.09743 -15440676.44042  21887325.048    21887319.955
  24387034.725    -8029991.86043  -6194637.45442  24387037.143    24387034.704
  23030515.213   -10369522.32643  -7779269.20442  23030517.274    23030515.991
  20371248.235   -24428302.47444 -19017179.17942  20371250.841    20371246.506
  23684412.498    -8594831.90443  -6513999.66942  23684414.440    23684415.978
 04  3 24  2  4 30.0000000  0  8G25G11G15G22G18G31G14G 3
  22682128.496   -14290447.75543 -11084675.34142  22682131.450    22682130.410
  23331199.687   -13276362.37343 -10323774.40442  23331202.643    23331200.306
  21510314.377   -18859418.84243 -14683050.86942  21510316.105    21510314.456
  21896200.162   -19784919.79443 -15404330.20642  21896201.145    21896196.037
  24401187.976    -7955615.17543  -6136681.57742  24401190.369    24401188.337
  23039937.731   -10320006.48243  -7740685.45042  23039939.829    23039938.688
  20376426.570   -24401090.09344 -18995974.70442  20376429.156    20376424.824
  23700349.350    -8511083.47743  -6448741.26942  23700351.238    23700352.916
 04  3 24  2  5  0.0000000  0  8G25G11G15G22G18G31G14G 3
  22664913.787   -14380911.05143 -11155166.07142  22664916.692    22664915.683
  23314155.668   -13365928.84143 -10393566.35042  23314158.463    23314156.377
  21525982.416   -18777082.69543 -14618892.83942  21525984.136    21525982.476
  21905101.884   -19738140.89443 -15367879.08942  21905102.864    21905097.743
  24415353.298    -7881175.83643  -6078676.85342  24415355.759    24415353.829
  23049437.611   -10270084.51343  -7701785.23342  23049439.758    23049438.588
  20381684.616   -24373458.82644 -18974443.82342  20381687.183    20381682.881
  23716304.741    -8427237.60343  -6383406.92342  23716306.569    23716308.310
 04  3 24  2  5 30.0000000  0  8G25G11G15G22G18G31G14G 3
  22647740.149   -14471158.37143 -11225488.51442  22647743.011    22647742.111
  23297153.976   -13455273.52343 -10463185.49342  23297156.671    23297154.616
  21541723.537   -18694362.33043 -14554435.41842  21541725.300    21541723.668
  21914029.149   -19691227.65243 -15331323.29442  21914030.134    21914024.985
  24429530.549    -7806673.82143  -6020623.31842  24429533.011    24429530.967
  23059014.229   -10219759.30643  -7662570.81942  23059016.464    23059015.184
  20387021.969   -24345410.71844 -18952588.12942  20387024.525    20387020.245
  23732278.255    -8343297.18543  -6317998.90542  23732280.007    23732281.827
 04  3 24  2  6  0.0000000  0  8G25G11G15G22G18G31G14G 3
  22630608.624   -14561185.14743 -11295639.10242  22630611.393    22630610.464
  23280195.133   -13544392.36243 -10532628.66642  23280197.842    23280195.755
  21557537.877   -18611257.48243 -14489678.40642  21557539.615    21557538.032
  21922982.365   -19644178.11943 -15294661.30142  21922983.324    21922978.138
  24443719.957    -7732107.50243  -5962519.67442  24443722.453    24443720.195
  23068667.435   -10169031.76143  -7623042.89642  23068669.637    23068668.375
  20392438.675   -24316945.79244 -18930407.64242  20392441.206    20392436.903
  23748269.438    -8259263.70443  -6252518.37142  23748271.203    23748272.984
 04  3 24  2  6 30.0000000  0  8G25G11G15G22G18G31G14G 3
  22613520.085   -14650985.84443 -11365613.51242  22613522.846    22613521.852
  23263280.105   -13633280.61243 -10601892.13742  23263283.006    23263280.751
  21573425.586   -18527767.32243 -14424621.15142  21573427.263    21573425.728
  21931962.002   -19596989.79743 -15257891.15842  21931962.979    21931957.701
  24457922.136    -7657474.07843  -5904363.75442  24457924.515    24457922.360
  23078397.245   -10117901.77443  -7583201.37342  23078399.450    23078398.163
  20397934.740   -24288063.45844 -18907901.90142  20397937.321    20397933.022
  23764278.348    -8175137.56243  -6186965.63042  23764280.111    23764281.790
 04  3 24  2  7  0.0000000  0  8G25G11G15G22G18G31G14G 3
  22596473.903   -14740563.30543 -11435413.97642  22596476.747    22596475.715
  23246408.586   -13721940.86943 -10670977.95142  23246411.461    23246409.174
  21589385.251   -18443898.37943 -14359268.73242  21589386.967    21589385.458
  21940967.114   -19549667.57743 -15221016.68342  21940968.071    21940962.781
  24472136.307    -7582778.48243  -5846159.37142  24472138.691    24472136.532
  23088201.984   -10066377.07043  -7543052.27742  23088204.199    23088203.037
  20403508.984   -24258770.46744 -18885076.17142  20403511.557    20403507.288
  23780303.276    -8090926.59743  -6121346.79142  23780305.120    23780306.599
 04  3 24  2  7 30.0000000  0  8G25G11G15G22G18G31G14G 3
  22579471.065   -14829912.88343 -11505036.87342  22579473.940    22579472.862
  23229581.235   -13810369.09743 -10739882.96242  23229584.091    23229581.719
  21605417.155   -18359650.46943 -14293621.01942  21605418.773    21605417.310
  21949998.011   -19502209.86343 -15184036.63242  21949998.960    21949993.674
  24486362.332    -7508019.20443  -5787905.37042  24486364.713    24486362.773
  23098081.663   -10014458.42643  -7502596.20742  23098083.846    23098082.862
  20409161.440   -24229066.62044 -18861930.28742  20409163.997    20409159.707
  23796344.132    -8006631.85343  -6055662.68242  23796346.113    23796347.403
 04  3 24  2  8  0.0000000  0  8G25G11G15G22G18G31G14G 3
  22562512.957   -14919028.30843 -11574477.31342  22562515.739    22562514.578
  23212799.125   -13898559.95343 -10808603.02242  23212802.002    23212799.383
  21621521.412   -18275022.05843 -14227676.81342  21621523.044    21621521.569
  21959055.327   -19454613.24843 -15146948.34942  21959056.271    21959051.007
  24500601.402    -7433192.94143  -5729599.17142  24500603.825    24500601.803
  23108036.624    -9962145.23243  -7461832.70742  23108038.733    23108037.702
  20414892.279   -24198950.69144 -18838463.30042  20414894.861    20414890.537
  23812400.958    -7922253.19643  -5989913.17342  23812402.914    23812404.289
 04  3 24  2  8 30.0000000  0  8G25G11G15G22G18G31G14G 3
  22545598.973   -15007911.25343 -11643736.59542  22545601.776    22545600.618
  23196061.851   -13986515.07343 -10877139.39842  23196064.774    23196061.864
  21637696.966   -18190018.89543 -14161440.59642  21637698.606    21637697.132
  21968138.314   -19406881.77743 -15109754.98442  21968139.261    21968133.996
  24514852.484    -7358304.10543  -5671244.23742  24514854.817    24514852.593
  23118065.427    -9909444.30443  -7420767.08742  23118067.547    23118066.484
  20420700.359   -24168428.88444 -18814680.04642  20420702.950    20420698.651
  23828472.283    -7837797.68743  -5924103.78242  23828474.330    23828475.692
 04  3 24  2  9  0.0000000  0  8G25G11G15G22G18G31G14G 3
  22528730.216   -15096556.20443 -11712810.42942  22528733.063    22528731.950
  23179370.415   -14074229.44643 -10945488.16042  23179373.348    23179370.230
  21653944.012   -18104640.09943 -14094911.66542  21653945.634    21653944.178
  21977247.479   -19359012.71043 -15072454.39642  21977248.428    21977243.163
  24529115.768    -7283349.31943  -5612837.86942  24529118.046    24529116.124
  23128167.770    -9856355.47243  -7379399.19242  23128169.967    23128169.071
  20426585.920   -24137499.98044 -18790579.57142  20426588.525    20426584.192
  23844558.253    -7753265.44443  -5858234.59742  23844560.361    23844561.811
 04  3 24  2  9 30.0000000  0  8G25G11G15G22G18G31G14G 3
  22511906.965   -15184962.34243 -11781698.17642  22511909.796    22511908.719
  23162724.829   -14161702.86843 -11013649.17642  23162727.871    23162724.511
  21670261.866   -18018889.30543 -14028092.87442  21670263.522    21670262.043
  21986382.458   -19311008.04643 -15035048.14842  21986383.429    21986378.172
  24543391.213    -7208330.98343  -5554381.99842  24543393.423    24543391.634
  23138342.936    -9802883.57743  -7337732.79842  23138345.122    23138344.445
  20432548.129   -24106168.10344 -18766165.09442  20432550.749    20432546.400
  23860657.848    -7668661.38143  -5792309.45742  23860660.019    23860661.517
 04  3 24  2 10  0.0000000  0  8G25G11G15G22G18G31G14G 3
  22495130.079   -15273124.96043 -11850396.16042  22495132.893    22495131.790
  23146126.033   -14248930.74643 -11081618.85842  23146129.119    23146125.531
  21686650.629   -17932765.93243 -13960983.75842  21686652.255    21686650.782
  21995543.715   -19262865.36643 -14997534.36242  21995544.673    21995539.436
  24557679.504    -7133246.66543  -5495874.73142  24557681.386    24557679.503
  23148591.265    -9749028.97843  -7295768.21342  23148593.331    23148592.711
  20438587.146   -24074432.72444 -18741436.19942  20438589.754    20438585.397
  23876771.070    -7583986.27743  -5726328.95342  23876773.174    23876774.717
 04  3 24  2 10 30.0000000  0  8G25G11G15G22G18G31G14G 3
  22478399.661   -15361043.38343 -11918903.86842  22478402.474    22478401.347
  23129573.879   -14335913.18943 -11149397.27942  23129577.007    23129573.285
  21703109.385   -17846274.16543 -13893587.57942  21703111.093    21703109.670
  22004730.732   -19214587.28343 -14959915.05942  22004731.696    22004726.475
  24571979.572    -7058098.69643  -5437317.86142  24571981.720    24571979.517
  23158911.397    -9694796.73943  -7253509.36642  23158913.390    23158912.895
  20444702.108   -24042298.17444 -18716396.26642  20444704.708    20444700.386
  23892896.784    -7499245.50843  -5660297.28442  23892898.804    23892900.423
 04  3 24  2 11  0.0000000  0  8G25G11G15G22G18G31G14G 3
  22461716.728   -15448712.09143 -11987217.00542  22461719.592    22461718.427
  23113069.344   -14422645.18643 -11216980.54442  23113072.493    23113068.671
  21719638.610   -17759412.85143 -13825903.44742  21719640.236    21719638.825
  22013944.044   -19166170.81643 -14922187.92042  22013945.008    22013939.825
  24586292.134    -6982884.37543  -5378709.28042  24586294.556    24586292.190
  23169303.287    -9640186.82143  -7210956.21142  23169305.290    23169304.866
  20450893.190   -24009763.57244 -18691044.60142  20450895.761    20450891.501
  23909034.852    -7414439.26743  -5594214.58642  23909036.863    23909038.586
 04  3 24  2 11 30.0000000  0  8G25G11G15G22G18G31G14G 3
  22445081.519   -15536129.90543 -12055334.62442  22445084.415    22445083.246
  23096612.579   -14509126.05143 -11284368.12642  23096615.713    23096611.863
  21736237.396   -17672185.24043 -13757933.88942  21736239.125    21736237.671
  22023183.396   -19117617.48743 -14884354.13642  22023184.384    22023179.196
  24600617.384    -6907605.12843  -5320050.10742  24600619.607    24600617.460
  23179766.317    -9585203.45743  -7168112.05242  23179768.293    23179767.762
  20457159.765   -23976832.41944 -18665383.93542  20457162.315    20457158.069
  23925184.792    -7329571.68143  -5528084.10142  23925186.694    23925188.451
 04  3 24  2 12  0.0000000  0  7G25G11G15G22G31G14G 3
  22428498.240   -15623274.96343 -12123239.71942  22428501.113    22428499.913
  23080207.649   -14595334.01143 -11351543.05042  23080210.795    23080206.885
  21752909.443   -17584573.53943 -13689665.04642  21752911.096    21752909.607
  22032452.537   -19068907.60143 -14846398.36242  22032453.525    22032448.369
  23190303.661    -9529829.98443  -7124963.94042  23190305.646    23190304.986
  20463505.187   -23943486.87744 -18639400.36442  20463507.735    20463503.486
  23941349.522    -7244626.15343  -5461892.87742  23941351.395    23941353.115
 04  3 24  2 12 30.0000000  0  7G25G11G15G22G31G14G 3
  22411960.385   -15710181.54343 -12190958.98842  22411963.210    22411961.918
  23063848.017   -14681303.72343 -11418532.33442  23063851.167    23063847.205
  21769646.977   -17496616.92843 -13621127.43242  21769648.704    21769647.236
  22041744.409   -19020078.19543 -14808349.45042  22041745.409    22041740.268
  23200907.479    -9474106.26143  -7081542.87542  23200909.475    23200908.810
  20469922.002   -23909766.17044 -18613124.45942  20469924.578    20469920.304
  23957521.400    -7159643.02643  -5395672.35742  23957523.321    23957524.959
 04  3 24  2 13  0.0000000  0  7G25G11G15G22G31G14G 3
  22395471.589   -15796830.42143 -12258477.44242  22395474.389    22395472.997
  23047537.392   -14767016.42843 -11485321.35642  23047540.515    23047536.465
  21786453.026   -17408300.66243 -13552309.57242  21786454.711    21786453.280
  22051062.169   -18971112.95643 -14770194.69542  22051063.141    22051057.991
  23211580.610    -9418018.55743  -7037838.19642  23211582.589    23211581.850
  20476412.957   -23875655.82244 -18586544.93942  20476415.532    20476411.283
  23973702.879    -7074608.77243  -5329411.98042  23973704.831    23973706.501
 04  3 24  2 13 30.0000000  0  7G25G11G15G22G31G14G 3
  22379032.735   -15883216.52943 -12325791.14042  22379035.610    22379034.097
  23031276.371   -14852467.85843 -11551906.77442  23031279.440    23031275.551
  21803327.636   -17319624.02943 -13483210.91242  21803329.334    21803327.890
  22060406.250   -18922009.43943 -14731932.20142  22060407.179    22060401.997
  23222323.154    -9361567.26443  -6993850.20742  23222325.132    23222324.175
  20482978.143   -23841155.46844 -18559661.51442  20482980.719    20482976.474
  23989893.990    -6989523.79343  -5263112.10842  23989895.945    23989897.859
 04  3 24  2 14  0.0000000  0  7G25G11G15G22G31G14G 3
  22362644.355   -15969337.48943 -12392898.23842  22362647.256    22362645.656
  23015065.515   -14937655.50743 -11618286.66342  23015068.565    23015064.793
  21820270.642   -17230588.94843 -13413832.94742  21820272.178    21820270.717
  22069776.633   -18872767.66143 -14693561.96742  22069777.565    22069772.339
  23233134.263    -9304755.20743  -6949581.11642  23233136.278    23233135.170
  20489617.187   -23806267.09544 -18532475.73642  20489619.740    20489615.467
  24006094.243    -6904391.01643  -5196774.99242  24006096.233    24006098.246
 04  3 24  2 14 30.0000000  0  7G25G11G15G22G31G14G 3
  22346307.096   -16055189.92443 -12459796.09842  22346309.964    22346308.310
  22998905.364   -15022576.69943 -11684458.92242  22998908.361    22998904.804
  21837281.314   -17141196.76043 -13344176.71242  21837282.976    21837281.517
  22079173.443   -18823387.01343 -14655083.52542  22079174.395    22079169.144
  23244013.169    -9247584.81343  -6905032.78042  23244015.265    23244014.312
  20496329.761   -23770992.13244 -18504988.72442  20496332.310    20496328.039
  24022303.261    -6819213.02943  -5130402.64542  24022305.113    24022307.263
 04  3 24  2 15  0.0000000  0  7G25G11G15G22G31G14G 3
  22330021.209   -16140771.98443 -12526483.27142  22330024.098    22330022.455
  22982796.080   -15107230.28843 -11750422.65542  22982799.007    22982795.774
  21854359.516   -17051450.37743 -13274244.48342  21854361.143    21854359.703
  22088596.536   -18773868.34143 -14616497.53142  22088597.479    22088592.229
  23254959.838    -9190059.82543  -6860208.14642  23254961.905    23254960.956
  20503115.373   -23735333.22044 -18477202.52942  20503117.924    20503113.676
  24038520.048    -6733993.65243  -5063998.05342  24038521.938    24038524.088
 04  3 24  2 15 30.0000000  0  7G25G11G15G22G31G14G 3
  22313786.647   -16226084.91343 -12592960.74442  22313789.464    22313787.789
  22966737.605   -15191617.34743 -11816178.70942  22966740.500    22966737.456
  21871504.083   -16961355.24443 -13204040.50442  21871505.682    21871504.199
  22098045.166   -18724215.32043 -14577806.85642  22098046.126    22098040.913
  23265972.903    -9132186.51043  -6815112.10042  23265974.889    23265973.996
  20509972.974   -23699296.25044 -18449121.74342  20509975.523    20509971.261
  24054743.375    -6648739.49543  -4997566.35042  24054745.298    24054747.439
 04  3 24  2 16  0.0000000  0  7G25G11G15G22G31G14G 3
  22297605.119   -16311119.23743 -12659221.11742  22297607.899    22297606.124
  22950731.680   -15275728.45543 -11881719.73942  22950734.508    22950731.608
  21888715.992   -16870906.10543 -13133560.67042  21888717.568    21888716.049
  22107520.759   -18674420.74043 -14539005.87542  22107521.721    22107516.519
  23277052.719    -9073960.69043  -6769741.36642  23277054.775    23277054.137
  20516903.496   -23662875.96844 -18420742.27242  20516906.057    20516901.771
  24070974.113    -6563446.22343  -4931104.16242  24070976.065    24070978.243
 04  3 24  2 16 30.0000000  0  7G25G11G15G22G31G14G 3
  22281475.966   -16395877.36043 -12725266.26942  22281478.849    22281477.042
  22934777.652   -15359566.95643 -11947048.35242  22934780.431    22934777.607
  21905993.840   -16780110.12443 -13062810.57042  21905995.398    21905993.961
  22117022.281   -18624490.01643 -14500098.80442  22117023.254    22117018.032
  23288198.225    -9015390.75843  -6724102.48942  23288200.218    23288199.661
  20523905.510   -23626079.93344 -18392070.01342  20523908.052    20523903.777
  24087210.833    -6478122.60643  -4864618.33342  24087212.699    24087214.796
 04  3 24  2 17  0.0000000  0  7G25G11G15G22G31G14G 3
  22265400.423   -16480354.12243 -12791092.19242  22265403.252    22265401.450
  22918876.331   -15443128.04343 -12012160.79242  22918879.127    22918876.450
  21923337.966   -16688966.45443 -12991789.54742  21923339.474    21923338.023
  22126550.257   -18574420.34543 -14461083.46742  22126551.230    22126545.992
  23299409.328    -8956476.83443  -6678195.56742  23299411.285    23299410.642
  20530979.206   -23588907.31944 -18363104.31542  20530981.731    20530977.469
  24103453.304    -6392768.50343  -4798108.74542  24103455.247    24103457.149
 04  3 24  2 17 30.0000000  0  7G25G11G15G22G31G14G 3
  22249379.319   -16564545.26043 -12856695.52642  22249382.059    22249380.259
  22903028.716   -15526407.28743 -12077053.61642  22903031.476    22903028.893
  21940748.136   -16597475.42743 -12920497.85342  21940749.709    21940748.228
  22136104.953   -18524209.95443 -14421958.47342  22136105.961    22136100.675
  23310685.510    -8897219.98543  -6632021.43142  23310687.474    23310686.849
  20538124.506   -23551358.29644 -18333845.31142  20538127.065    20538122.790
  24119701.561    -6307384.87843  -4731576.15542  24119703.396    24119705.253
 04  3 24  2 18  0.0000000  0  7G25G11G15G22G31G14G 3
  22233412.161   -16648452.70243 -12922077.81542  22233414.904    22233412.988
  22887234.352   -15609407.02543 -12141728.65042  22887237.088    22887234.515
  21958223.232   -16505643.61843 -12848940.62342  21958224.774    21958223.268
  22145685.539   -18473863.39143 -14382727.37242  22145686.576    22145681.274
  23322025.573    -8837627.71643  -6585585.92242  23322027.572    23322026.949
  20545340.161   -23513439.58844 -18304298.24042  20545342.726    20545338.448
  24135953.814    -6221979.32843  -4665026.47442  24135955.666    24135957.554
 04  3 24  2 18 30.0000000  0  7G25G11G15G22G31G14G 3
  22217500.182   -16732070.29943 -12987234.24842  22217502.921    22217500.962
  22871494.090   -15692122.18743 -12206181.93342  22871496.825    22871494.262
  21975763.326   -16413469.63843 -12777116.75542  21975764.904    21975763.393
  22155292.712   -18423377.37243 -14343387.60342  22155293.758    22155288.415
  23333429.579    -8777699.65543  -6538888.75942  23333431.609    23333430.942
  20552626.417   -23475149.82444 -18274462.04342  20552628.986    20552624.744
  24152210.190    -6136551.50743  -4598459.42542  24152212.203    24152214.112
 04  3 24  2 19  0.0000000  0  7G25G11G15G22G31G14G 3
  22201643.504   -16815397.03743 -13052164.03542  22201646.239    22201644.303
  22855808.152   -15774551.98043 -12270412.84742  22855810.931    22855808.334
  21993367.951   -16320956.67843 -12705028.74942  21993369.511    21993368.049
  22164926.149   -18372753.20043 -14303940.17742  22164927.217    22164921.828
  23344896.646    -8717440.11943  -6491933.28742  23344898.670    23344897.971
  20559982.626   -23436492.54944 -18244339.46842  20559985.190    20559980.946
  24168470.003    -6051105.93143  -4531878.57642  24168471.988    24168473.896
 04  3 24  2 19 30.0000000  0  7G25G11G15G22G31G14G 3
  22185843.842   -16898424.22243 -13116860.40942  22185846.550    22185844.665
  22840178.246   -15856687.56643 -12334414.51642  22840181.052    22840178.357
  22011037.805   -16228100.65843 -12632673.41842  22011039.403    22011037.939
  22174586.998   -18321984.94543 -14264380.48242  22174588.038    22174582.633
  23356427.153    -8656846.03643  -6444717.14242  23356429.227    23356428.639
  20567409.484   -23397463.95244 -18213927.55042  20567412.094    20567407.801
  24184733.763    -5965639.39043  -4465281.37942  24184735.734    24184737.691
 04  3 24  2 20  0.0000000  0  7G25G11G15G22G31G14G 3
  22170099.742   -16981159.35143 -13181329.20942  22170102.448    22170100.590
  22824602.778   -15938537.09643 -12398193.28142  22824605.625    22824602.795
  22028770.748   -16134913.57443 -12560060.12842  22028772.294    22028770.868
  22184273.409   -18271082.25943 -14224716.03442  22184274.474    22184269.058
  23368019.123    -8595930.13543  -6397250.21542  23368021.138    23368020.545
  20574904.827   -23358075.60344 -18183235.30842  20574907.414    20574903.131
  24200999.278    -5880164.53343  -4398677.70942  24201001.131    24201003.112
 04  3 24  2 20 30.0000000  0  7G25G11G15G22G31G14G 3
  22154413.139   -17063592.37143 -13245562.59942  22154415.831    22154413.941
  22809083.729   -16020090.20643 -12461741.06342  22809086.543    22809083.628
  22046567.755   -16041389.63443 -12487184.33542  22046569.343    22046567.828
  22193986.874   -18220037.40243 -14184940.79742  22193987.932    22193982.569
  23379673.264    -8534687.68843  -6349528.85442  23379675.229    23379674.629
  20582469.681   -23318321.86244 -18152258.34742  20582472.258    20582467.975
  24217267.236    -5794676.47343  -4332063.74742  24217269.074    24217271.107
 04  3 24  2 21  0.0000000  0  7G25G11G15G22G31G14G 3
  22138783.744   -17145725.03343 -13309561.94442  22138786.371    22138784.445
  22793620.607   -16101349.53243 -12525059.94342  22793623.388    22793620.221
  22064427.611   -15947535.67243 -12414051.39542  22064429.224    22064427.659
  22203726.507   -18168855.03043 -14145058.40842  22203727.549    22203722.264
  23391388.006    -8473126.28343  -6301558.94242  23391389.996    23391389.361
  20590102.777   -23278209.77044 -18121002.14942  20590105.328    20590101.028
  24233536.195    -5709182.94943  -4265445.53142  24233538.051    24233540.151
 04  3 24  2 21 30.0000000  0  7G25G11G15G22G31G14G 3
  22123212.390   -17227552.50143 -13373323.46742  22123215.040    22123213.034
  22778214.184   -16182310.43143 -12588146.27242  22778217.006    22778213.688
  22082350.320   -15853351.08543 -12340660.81042  22082352.001    22082350.402
  22213492.828   -18117532.56043 -14105066.84942  22213493.847    22213488.593
  23403163.312    -8411246.51043  -6253340.95542  23403165.359    23403164.649
  20597804.172   -23237738.63444 -18089466.17842  20597806.736    20597802.423
  24249806.138    -5623684.36643  -4198823.36542  24249807.997    24249810.074
 04  3 24  2 22  0.0000000  0  7G25G11G15G22G31G14G 3
  22107699.784   -17309071.15143 -13436844.37142  22107702.476    22107700.415
  22762865.253   -16262969.52043 -12650997.42742  22762868.061    22762864.604
  22100335.741   -15758836.83543 -12267013.34942  22100337.489    22100335.945
  22223286.113   -18066068.79943 -14064965.20042  22223287.115    22223281.823
  23414998.954    -8349050.12543  -6204876.25942  23415000.958    23415000.311
  20605573.681   -23196909.49544 -18057651.24242  20605576.268    20605571.936
  24266076.645    -5538182.27843  -4132198.46142  24266078.614    24266080.623
 04  3 24  2 22 30.0000000  0  7G25G11G15G22G31G14G 3
  22092246.451   -17390278.70843 -13500122.85742  22092249.120    22092247.025
  22747573.970   -16343325.24443 -12713612.19542  22747576.791    22747573.297
  22118383.432   -15663995.58443 -12193111.07742  22118385.136    22118383.665
  22233106.135   -18014464.45143 -14024754.00142  22233107.134    22233101.796
  23426894.127    -8286540.76743  -6156167.68242  23426896.237    23426895.603
  20613410.804   -23155724.94344 -18025559.36142  20613413.374    20613409.036
  24282347.202    -5452680.38443  -4065573.71942  24282349.137    24282351.121
 04  3 24  2 23  0.0000000  0  7G25G11G15G22G31G14G 3
  22076852.176   -17471175.68043 -13563159.33542  22076854.907    22076852.729
  22732340.381   -16423377.86543 -12775990.76642  22732343.216    22732339.724
  22136492.367   -15568832.12443 -12118957.73742  22136494.134    22136492.680
  22242952.408   -17962721.96243 -13984435.15842  22242953.415    22242948.107
  23438847.806    -8223723.97343  -6107219.54642  23438849.929    23438849.292
  20621314.675   -23114189.77144 -17993194.27342  20621317.241    20621312.870
  24298616.623    -5367184.30043  -3998953.50242  24298618.433    24298620.540
 04  3 24  2 23 30.0000000  0  7G25G11G15G22G31G14G 3
  22061518.196   -17551755.71843 -13625948.85142  22061520.934    22061518.736
  22717165.636   -16503121.19943 -12838128.34142  22717168.420    22717164.988
  22154663.187   -15473344.15543 -12044551.52742  22154664.882    22154663.433
  22252825.705   -17910837.26443 -13944005.49842  22252826.714    22252821.398
  23450860.299    -8160598.68043  -6058031.02642  23450862.393    23450861.492
  20629285.642   -23072301.98544 -17960554.41742  20629288.218    20629283.846
  24314885.270    -5281692.26943  -3932336.44642  24314887.026    24314889.237
 04  3 24  2 24  0.0000000  0  7G25G11G15G22G31G14G 3
  22046244.646   -17632018.42543 -13688491.09042  22046247.340    22046245.125
  22702049.754   -16582555.32443 -12900024.97442  22702052.486    22702049.070
  22172894.793   -15377536.21643 -11969895.99542  22172896.529    22172895.049
  22262725.655   -17858812.67043 -13903466.83342  22262726.630    22262721.330
  23462930.376    -8097170.34643  -6008606.36942  23462932.507    23462931.502
  20637322.883   -23030065.89344 -17927643.15842  20637325.444    20637321.085
  24331152.053    -5196209.85443  -3865726.88542  24331153.683    24331156.121
 04  3 24  2 24 30.0000000  0  7G25G11G15G22G31G14G 3
  22031032.348   -17711959.07843 -13750782.39142  22031035.070    22031032.747
  22686993.472   -16661676.21343 -12961677.53142  22686996.236    22686992.780
  22191187.391   -15281408.49643 -11894991.29142  22191189.103    22191187.521
  22272652.650   -17806646.08343 -13862817.53142  22272653.616    22272648.257
  23475057.800    -8033439.91443  -5958946.31042  23475059.998    23475059.045
  20645426.389   -22987481.63944 -17894460.60642  20645428.948    20645424.556
  24347416.902    -5110737.89743  -3799125.48642  24347418.483    24347420.892
 04  3 24  2 25  0.0000000  0  7G25G11G15G22G31G14G 3
  22015881.924   -17791574.73543 -13812820.43642  22015884.655    22015882.292
  22671997.291   -16740480.87143 -13023083.66042  22672000.092    22671996.646
  22209540.507   -15184962.30743 -11819838.43442  22209542.223    22209540.573
  22282606.763   -17754336.95243 -13822057.15842  22282607.748    22282602.338
  23487242.397    -7969409.66643  -5909052.64342  23487244.533    23487243.609
  20653595.869   -22944550.63044 -17861007.85242  20653598.445    20653594.049
  24363679.147    -5025278.66143  -3732534.00942  24363680.724    24363683.187
 04  3 24  2 25 30.0000000  0  7G25G11G15G22G31G14G 3
  22000793.081   -17870866.83443 -13874606.36942  22000795.835    22000793.395
  22657061.046   -16818970.69143 -13084244.46442  22657063.826    22657060.396
  22227953.091   -15088203.39643 -11744441.88642  22227954.792    22227953.215
  22292587.314   -17701888.51143 -13781188.22942  22292588.343    22292582.905
  23499482.811    -7905086.39243  -5858930.63242  23499484.907    23499483.852
  20661830.260   -22901278.69544 -17827289.44442  20661832.816    20661828.427
  24379937.495    -4939838.67643  -3665957.47242  24379939.300    24379941.898
 04  3 24  2 26  0.0000000  0  7G25G11G15G22G31G14G 3
  21985766.678   -17949830.36743 -13936136.27242  21985769.483    21985767.002
  22642185.614   -16897141.26643 -13145156.52142  22642188.339    22642184.869
  22246425.150   -14991131.77843 -11668801.67142  22246426.882    22246425.351
  22302594.698   -17649298.84943 -13740209.24942  22302595.732    22302590.379
  23511778.720    -7840470.91943  -5808580.95442  23511780.846    23511779.761
  20670129.528   -22857665.76144 -17793305.32242  20670132.097    20670127.654
  24396192.504    -4854418.45943  -3599396.38942  24396194.255    24396196.938
 04  3 24  2 26 30.0000000  0  7G25G11G15G22G31G14G 3
  21970803.243   -18028463.35743 -13997408.61042  21970805.981    21970803.526
  22627371.220   -16974990.92443 -13205818.50742  22627373.925    22627370.512
  22264956.428   -14893749.79043 -11592919.61842  22264958.075    22264956.554
  22312629.000   -17596568.02043 -13699120.26742  22312629.985    22312624.764
  23524129.428    -7775566.61343  -5758006.19242  23524131.675    23524130.664
  20678493.203   -22813714.39744 -17759057.49142  20678495.769    20678491.293
  24412443.315    -4769021.27143  -3532853.23142  24412445.139    24412447.631
 04  3 24  2 27  0.0000000  0  7G25G11G15G22G31G14G 3
  21955903.372   -18106762.17543 -14058420.56142  21955906.087    21955903.636
  22612618.580   -17052515.96243 -13266227.54642  22612621.267    22612617.905
  22283546.548   -14796058.26943 -11516796.36942  22283548.192    22283546.674
  22322690.479   -17543694.70943 -13657920.26542  22322691.429    22322686.227
  23536534.866    -7710375.17543  -5707207.70042  23536537.136    23536536.162
  20686921.187   -22769425.19144 -17724546.40042  20686923.743    20686919.204
  24428689.476    -4683648.60543  -3466329.17242  24428691.234    24428693.652
 04  3 24  2 27 30.0000000  0  7G25G11G15G22G31G14G 3
  21941067.329   -18184725.75943 -14119171.29342  21941070.036    21941067.576
  22597927.923   -17129715.68343 -13326383.09442  22597930.594    22597927.266
  22302194.876   -14698060.56643 -11440434.53542  22302196.549    22302195.046
  22332778.789   -17490680.49343 -13616610.46942  22332779.769    22332774.435
  23548994.335    -7644901.13243  -5656189.01442  23548996.479    23548995.429
  20695412.747   -22724801.65544 -17689774.80242  20695415.305    20695410.782
  24444930.032    -4598304.68343  -3399827.52642  24444931.909    24444934.285
 04  3 24  2 28  0.0000000  0  7G25G11G15G22G31G14G 3
  21926295.760   -18262350.34243 -14179657.85542  21926298.455    21926295.964
  22583299.721   -17206586.70543 -13386282.50642  22583302.401    22583299.130
  22320901.368   -14599757.40143 -11363834.67842  22320903.011    22320901.519
  22342894.166   -17437523.85743 -13575189.68942  22342895.211    22342889.740
  23561507.187    -7579146.07543  -5604951.37342  23561509.382    23561508.235
  20703967.769   -22679844.52344 -17654743.25642  20703970.319    20703965.814
  24461164.780    -4512991.29243  -3333349.66342  24461166.778    24461169.017
 04  3 24  2 28 30.0000000  0  7G25G11G15G22G31G14G 3
  21911589.410   -18339632.46543 -14239877.58142  21911592.098    21911589.467
  22568734.775   -17283125.95943 -13445923.41242  22568737.434    22568734.110
  22339665.704   -14501150.53543 -11286998.17042  22339667.315    22339665.750
  22353036.762   -17384223.98243 -13533657.30242  22353037.779    22353032.299
  23574072.898    -7513112.41343  -5553496.60542  23574075.137    23574074.038
  20712586.020   -22634555.16644 -17619452.83342  20712588.569    20712584.038
  24477393.380    -4427710.26143  -3266897.02442  24477395.402    24477397.603
 04  3 24  2 29  0.0000000  0  7G25G11G15G22G31G14G 3
  21896948.260   -18416571.69843 -14299830.12242  21896951.000    21896948.225
  22554232.940   -17359333.02943 -13505305.46942  22554235.652    22554232.368
  22358487.095   -14402243.70343 -11209927.92442  22358488.689    22358487.102
  22363206.311   -17330782.46543 -13492014.54242  22363207.306    22363201.798
  23586690.747    -7446804.75343  -5501828.33442  23586692.942    23586692.061
  20721266.796   -22588937.32644 -17583906.44342  20721269.336    20721264.765
  24493614.995    -4342465.79143  -3200472.86042  24493617.046    24493619.238
 04  3 24  2 29 30.0000000  0  7G25G11G15G22G31G14G 3
  21882373.067   -18493164.39543 -14359512.63242  21882375.796    21882373.010
  22539795.129   -17435204.10143 -13564425.70542  22539797.841    22539794.505
  22377365.371   -14303037.50043 -11132624.39242  22377366.975    22377365.424
  22373403.139   -17277197.58643 -13450260.07242  22373404.159    22373398.642
  23599360.546    -7380224.82543  -5449947.90442  23599362.667    23599361.762
  20730009.949   -22542991.63644 -17548104.58742  20730012.473    20730007.938
  24509829.427    -4257259.09043  -3134078.14442  24509831.375    24509833.696
 04  3 24  2 30  0.0000000  0  7G25G11G15G22G31G14G 3
  21867864.063   -18569409.23743 -14418924.09142  21867866.794    21867864.027
  22525421.394   -17510738.35543 -13623283.49642  22525424.133    22525420.757
  22396299.973   -14203535.49543 -11055090.38242  22396301.560    22396300.024
  22383627.076   -17223470.71143 -13408394.96242  22383628.052    22383622.527
  23612081.458    -7313376.99243  -5397858.71942  23612083.582    23612082.411
  20738814.808   -22496721.65644 -17512050.03842  20738817.322    20738812.825
  24526035.770    -4172094.70543  -3067716.38742  24526037.658    24526040.032
 04  3 24  2 30 30.0000000  0  7G25G11G15G22G31G14G 3
  21853421.928   -18645302.40443 -14478061.52542  21853424.647    21853421.941
  22511112.389   -17585932.39243 -13681876.18142  22511115.179    22511111.705
  22415290.706   -14103738.41243 -10977326.43542  22415292.306    22415290.812
  22393878.211   -17169600.54743 -13366418.20042  22393879.221    22393873.734
  23624852.851    -7246262.94343  -5345562.09342  23624855.038    23624853.857
  20747681.252   -22450128.07944 -17475743.33442  20747683.779    20747679.287
  24542233.677    -4086974.06643  -3001388.70942  24542235.599    24542238.061
 04  3 24  2 31  0.0000000  0  7G25G11G15G22G31G14G 3
  21839047.290   -18720841.61043 -14536923.13642  21839049.938    21839047.189
  22496868.670   -17660784.05143 -13740202.08642  22496871.471    22496867.764
  22434337.222   -14003648.59343 -10899334.36842  22434338.763    22434337.264
  22404156.549   -17115587.04443 -13324329.74442  22404157.561    22404152.142
  23637674.200    -7178885.80643  -5293060.45942  23637676.391    23637675.461
  20756608.849   -22403213.15544 -17439186.22942  20756611.378    20756606.897
  24558422.930    -4001900.09443  -2935097.40842  24558424.712    24558427.176
 04  3 24  2 31 30.0000000  0  7G25G11G15G22G31G14G 3
  21824740.306   -18796024.99743 -14595507.49142  21824742.976    21824740.145
  22482690.309   -17735291.60043 -13798259.84542  22482693.168    22482689.426
  22453438.868   -13903268.66543 -10821116.25042  22453440.436    22453438.948
  22414462.117   -17061430.55043 -13282129.85942  22414463.143    22414457.745
  23650544.956    -7111249.09443  -5240356.54342  23650547.165    23650546.387
  20765597.083   -22355979.39344 -17402380.67442  20765599.631    20765595.144
  24574602.541    -3916875.73843  -2868844.75642  24574604.322    24574606.866
 04  3 24  2 32  0.0000000  0  7G25G11G15G22G31G14G 3
  21810501.818   -18870847.96043 -14653811.00342  21810504.534    21810501.696
  22468578.360   -17809450.15043 -13856045.65642  22468581.211    22468577.465
  22472595.792   -13802598.28343 -10742671.80042  22472597.346    22472595.916
  22424795.465   -17007128.32543 -13239816.42942  22424796.483    22424791.029
  23663465.199    -7043353.28643  -5187450.75842  23663467.242    23663466.535
  20774646.146   -22308426.06744 -17365326.11342  20774648.691    20774644.214
  24590772.580    -3831901.42843  -2802631.11342  24590774.494    24590777.034
 04  3 24  2 32 30.0000000  0  7G25G11G15G22G31G14G 3
  21796332.089   -18945310.10143 -14711833.35042  21796334.751    21796331.950
  22454532.742   -17883260.01443 -13913559.76642  22454535.597    22454531.888
  22491807.159   -13701642.07443 -10664004.63242  22491808.700    22491807.255
  22435156.166   -16952682.74243 -13197391.28142  22435157.158    22435151.672
  23676433.556    -6975203.93343  -5134347.39342  23676435.479    23676434.979
  20783755.074   -22260557.91944 -17328026.23542  20783757.622    20783753.230
  24606932.010    -3746981.99243  -2736460.22342  24606933.979    24606936.691
 04  3 24  2 33  0.0000000  0  7G25G11G15G22G31G14G 3
  21782231.111   -19019410.88443 -14769574.12442  21782233.756    21782230.977
  22440553.513   -17956720.93243 -13970801.96842  22440556.324    22440552.789
  22511072.159   -13600403.94843 -10585117.79342  22511073.695    22511072.248
  22445543.826   -16898095.40443 -13154855.67642  22445544.811    22445539.292
  23689449.309    -6906805.88443  -5081050.23442  23689451.323    23689450.810
  20792923.222   -22212378.84444 -17290484.07442  20792925.746    20792921.391
  24623080.231    -3662122.18343  -2670335.79942  24623082.183    24623085.103
 04  3 24  2 33 30.0000000  0  7G25G11G15G22G31G14G 3
  21768200.183   -19093143.49543 -14827028.00942  21768202.834    21768200.032
  22426642.065   -18029825.77043 -14027766.70742  22426644.849    22426641.379
  22530391.253   -13498881.33143 -10506009.27242  22530392.838    22530391.350
  22455959.362   -16843361.31943 -13112205.71842  22455960.347    22455954.841
  23702512.681    -6838157.27643  -5027557.84442  23702514.678    23702514.354
  20802151.055   -22163886.02244 -17252697.43342  20802153.603    20802149.257
  24639217.758    -3577319.75343  -2604256.10442  24639219.575    24639222.519
 04  3 24  2 34  0.0000000  0  7G25G11G15G22G31G14G 3
  21754238.813   -19166510.50643 -14884197.01442  21754241.459    21754238.655
  22412797.874   -18102577.59943 -14084456.37742  22412800.559    22412797.129
  22549763.009   -13397081.43743 -10426684.68942  22549764.637    22549763.229
  22466401.814   -16788485.65743 -13069445.43442  22466402.838    22466397.337
  23715621.995    -6769266.51643  -4973876.75342  23715623.977    23715623.881
  20811437.207   -22115086.72644 -17214671.98842  20811439.760    20811435.407
  24655342.790    -3492582.66443  -2538227.30942  24655344.711    24655347.608
 04  3 24  2 34 30.0000000  0  7G25G11G15G22G31G14G 3
  21740348.460   -19239504.24343 -14941075.15742  21740351.112    21740348.341
  22399022.218   -18174968.52743 -14140864.82642  22399024.939    22399021.536
  22569188.289   -13295000.91743 -10347141.42742  22569189.830    22569188.484
  22476872.294   -16733462.90643 -13026570.54142  22476873.306    22476867.825
  23728778.116    -6700131.07043  -4920005.00142  23728780.033    23728780.017
  20820782.348   -22065977.54544 -17176405.07242  20820784.899    20820780.548
  24671456.030    -3407907.96343  -2472247.12342  24671457.925    24671460.766
 04  3 24  2 35  0.0000000  0  7G25G11G15G22G31G14G 3
  21726529.095   -19312125.15243 -14997662.77742  21726531.709    21726528.948
  22385315.152   -18246999.47743 -14196992.77342  22385317.889    22385314.393
  22588665.983   -13192645.03643 -10267383.60542  22588667.506    22588666.186
  22487370.198   -16678295.71543 -12983583.10842  22487371.186    22487365.756
  23741979.750    -6630756.94843  -4865947.26642  23741981.570    23741981.594
  20830185.531   -22016563.32844 -17137900.46342  20830188.097    20830183.753
  24687556.311    -3323301.17943  -2406319.87042  24687558.233    24687560.992
 04  3 24  2 35 30.0000000  0  7G25G11G15G22G31G14G 3
  21712781.010   -19384371.39343 -15053958.45742  21712783.625    21712780.855
  22371676.887   -18318668.94543 -14252839.04342  22371679.651    22371676.100
  22608195.660   -13090016.59543 -10187413.40842  22608197.200    22608195.822
  22497895.542   -16622984.64043 -12940483.55442  22497896.479    22497891.112
  23755225.994    -6561147.84743  -4811706.42842  23755227.848    23755227.799
  20839646.255   -21966846.90844 -17099160.37842  20839648.804    20839644.455
  24703643.290    -3238765.95843  -2340448.37642  24703645.024    24703647.623
 04  3 24  2 36  0.0000000  0  7G25G11G15G22G31G14G 3
  21699104.944   -19456239.20643 -15109959.25642  21699107.544    21699104.767
  22358108.098   -18389973.12943 -14308400.67742  22358110.848    22358107.354
  22627776.951   -12987115.89443 -10107231.06342  22627778.534    22627777.202
  22508448.617   -16567527.66743 -12897270.31142  22508449.560    22508444.184
  23768516.467    -6491305.03243  -4757283.47842  23768518.418    23768518.447
  20849164.404   -21916828.57944 -17060185.03542  20849166.984    20849162.593
  24719715.999    -3154302.88643  -2274633.10542  24719717.914    24719720.634
 04  3 24  2 36 30.0000000  0  7G25G11G15G22G31G14G 3
  21685501.343   -19527726.44543 -15165663.50542  21685503.919    21685501.127
  22344609.171   -18460910.19543 -14363676.23542  22344611.953    22344608.444
  22647409.411   -12883945.71443 -10026838.71342  22647411.131    22647409.845
  22519029.461   -16511925.15143 -12853943.65542  22519030.368    22519024.992
  23781850.924    -6421232.00543  -4702681.14342  23781852.856    23781852.868
  20858739.557   -21866510.74144 -17020976.30942  20858742.127    20858737.727
  24735774.361    -3069915.30943  -2208876.65742  24735776.398    24735779.157
 04  3 24  2 37  0.0000000  0  7G25G11G15G22G31G14G 3
  21671970.593   -19598830.58643 -15221069.23842  21671973.171    21671970.374
  22331180.486   -18531477.88443 -14418663.96142  22331183.346    22331179.765
  22667092.990   -12780508.18843  -9946238.06842  22667094.627    22667093.354
  22529638.026   -16456176.96043 -12810503.48642  22529638.995    22529633.513
  23795228.689    -6350931.67843  -4647901.69142  23795230.585    23795230.561
  20868371.372   -21815895.31444 -16981535.69942  20868373.930    20868369.486
  24751817.964    -2985605.37643  -2143180.69242  24751820.039    24751823.042
 04  3 24  2 37 30.0000000  0  7G25G11G15G22G31G14G 3
  21658513.288   -19669549.09443 -15276174.47542  21658515.848    21658512.992
  22317822.786   -18601672.91643 -14473361.31142  22317825.660    22317821.967
  22686827.204   -12676804.60843  -9865430.09142  22686828.836    22686827.492
  22540274.475   -16400282.03143 -12766948.98442  22540275.501    22540269.948
  23808649.243    -6280406.23543  -4592946.83842  23808651.138    23808651.155
  20878059.525   -21764983.80544 -16941864.37242  20878062.114    20878057.615
  24767846.776    -2901375.08443  -2077546.82542  24767848.726    24767851.688
 04  3 24  2 38  0.0000000  0  7G25G11G15G22G31G14G 3
  21645129.485   -19739880.97443 -15330978.44942  21645132.103    21645129.198
  22304536.100   -18671494.92743 -14527767.99742  22304539.004    22304535.124
  22706611.159   -12572838.92143  -9784417.88842  22706612.838    22706611.524
  22550938.501   -16344241.89943 -12723281.32942  22550939.535    22550934.012
  23822111.649    -6209660.56143  -4537820.36742  23822113.628    23822113.652
  20887803.314   -21713779.65244 -16901965.01042  20887805.916    20887801.410
  24783859.476    -2817228.51543  -2011978.19742  24783861.373    24783864.482
 04  3 24  2 38 30.0000000  0  7G25G11G15G22G31G14G 3
  21631819.921   -19809822.80743 -15385478.49442  21631822.516    21631819.608
  22291321.092   -18740940.30843 -14581881.19942  22291323.994    22291319.965
  22726444.809   -12468612.00543  -9703202.12642  22726446.474    22726445.304
  22561630.446   -16288055.02943 -12679499.33642  22561631.486    22561625.995
  23835615.831    -6138696.33643  -4482523.59542  23835617.826    23835617.667
  20897602.693   -21662283.55344 -16861838.16242  20897605.282    20897600.774
  24799855.812    -2733167.36543  -1946476.12542  24799857.670    24799860.904
 04  3 24  2 39  0.0000000  0  7G25G11G15G22G31G14G 3
  21618584.735   -19879374.05943 -15439674.18442  21618587.294    21618584.322
  22278177.746   -18810008.80643 -14635700.72542  22278180.681    22278176.468
  22746327.555   -12364127.61843  -9621785.73442  22746329.211    22746327.990
  22572350.095   -16231722.88243 -12635604.14142  22572351.109    22572345.602
  23849160.806    -6067518.20343  -4427060.14842  23849162.759    23849162.394
  20907456.957   -21610499.05844 -16821486.58542  20907459.550    20907454.998
  24815835.077    -2649195.59343  -1881043.69142  24815837.011    24815840.196
 04  3 24  2 39 30.0000000  0  6G25G11G15G22G31G14
  21605427.947   -19948513.07143 -15493548.65142  21605430.556    21605427.489
  22265110.209   -18878679.05343 -14689209.93342  22265113.136    22265108.791
  22766262.507   -12259369.00543  -9540155.65942  22766264.092    22766262.904
  22583101.030   -16175226.25843 -12591580.77842  22583102.012    22583096.486
  23862749.447    -5996110.14943  -4371417.54842  23862751.369    23862750.823
  20917369.252   -21558409.58244 -16780897.36542  20917371.826    20917367.287
 04  3 24  2 40  0.0000000  0  6G25G11G15G22G31G14
  21592343.207   -20017273.36243 -15547128.02242  21592345.829    21592342.702
  22252112.047   -18946984.62543 -14742434.97642  22252114.918    22252110.498
  22786242.330   -12154374.13143  -9458341.49342  22786244.008    22786242.704
  22593876.493   -16118600.83143 -12547457.05842  22593877.463    22593871.923
  23876374.190    -5924510.97343  -4315626.01242  23876376.188    23876375.590
  20927332.444   -21506052.55744 -16740099.66742  20927334.987    20927330.479
 04  3 24  2 40 30.0000000  0  6G25G11G15G22G31G14
  21579334.558   -20085634.00943 -15600395.97842  21579337.118    21579334.019
  22239187.154   -19014904.84643 -14795359.74542  22239190.009    22239185.544
  22806270.338   -12049126.49543  -9376330.36142  22806271.981    22806270.714
  22604680.036   -16061827.58143 -12503218.14542  22604681.007    22604675.555
  23890038.338    -5852704.92043  -4259673.27142  23890040.396    23890039.745
  20937349.727   -21453411.17344 -16699080.39142  20937352.269    20937347.777
 04  3 24  2 41  0.0000000  0  6G25G11G15G22G31G14
  21566402.174   -20153593.84443 -15653351.61642  21566404.739    21566401.608
  22226335.900   -19082438.25943 -14847983.10742  22226338.722    22226334.278
  22826345.852   -11943629.29143  -9294124.76242  22826347.504    22826346.175
  22615511.616   -16004907.18243 -12458864.57142  22615512.547    22615507.215
  23903741.340    -5780696.04743  -4203562.49642  23903743.281    23903742.776
  20947420.561   -21400488.50044 -16657841.92642  20947423.102    20947418.611
 04  3 24  2 41 30.0000000  0  6G25G11G15G22G31G14
  21553546.538   -20221150.40443 -15705993.01142  21553549.109    21553545.933
  22213558.782   -19149582.40943 -14900303.15442  22213561.550    22213557.055
  22846468.447   -11837884.26943  -9211726.05942  22846470.067    22846468.831
  22626371.285   -15947839.13843 -12414395.94642  22626372.248    22626366.931
  23917482.603    -5708486.80243  -4147295.59442  23917484.440    23917483.857
  20957544.637   -21347286.11444 -16616385.50142  20957547.175    20957542.668
 04  3 24  2 42  0.0000000  0  6G25G11G15G22G31G14
  21540768.531   -20288299.11944 -15758316.61342  21540771.091    21540767.873
  22200856.431   -19216333.08543 -14952316.60642  22200859.162    22200854.661
  22866638.115   -11731891.53843  -9129134.31642  22866639.832    22866638.606
  22637259.353   -15890621.30443 -12369810.60542  22637260.359    22637255.049
  23931261.339    -5636078.47343  -4090873.53342  23931263.302    23931262.746
  20967721.918   -21293803.99844 -16574711.10942  20967724.486    20967719.981
 04  3 24  2 42 30.0000000  0  6G25G11G15G22G31G14
  21528067.796   -20355041.50144 -15810323.59142  21528070.373    21528067.150
  22188228.737   -19282691.60243 -15004024.48242  22188231.447    22188226.924
  22886853.820   -11625657.05543  -9046354.22442  22886855.560    22886854.381
  22648175.436   -15833256.84243 -12325111.01542  22648176.411    22648171.026
  23945076.768    -5563477.29643  -4034301.23242  23945078.769    23945078.290
  20977951.411   -21240047.64244 -16532823.02342  20977953.945    20977949.469
 04  3 24  2 43  0.0000000  0  6G25G11G15G22G31G14
  21515445.163   -20421373.54244 -15862010.82642  21515447.730    21515444.497
  22175676.422   -19348654.24143 -15055423.88642  22175679.102    22175674.605
  22907115.479   -11519181.14643  -8963385.99042  22907117.217    22907116.028
  22659119.913   -15775743.62943 -12280295.50742  22659120.854    22659115.393
  23958928.856    -5490684.71043  -3977579.77842  23958930.875    23958930.226
  20988233.045   -21186017.15144 -16490721.32142  20988235.610    20988231.093
 04  3 24  2 43 30.0000000  0  6G25G11G15G22G31G14
  21502900.442   -20487296.45144 -15913379.25442  21502902.967    21502899.709
  22163199.187   -19414222.17843 -15106515.73142  22163201.887    22163197.402
  22927422.131   -11412469.20343  -8880233.83542  22927423.847    22927422.604
  22670091.911   -15718085.23743 -12235366.87642  22670092.904    22670087.457
  23972816.059    -5417707.05143  -3920714.09542  23972818.037    23972817.489
  20998565.842   -21131717.91444 -16448410.20742  20998568.402    20998563.856
 04  3 24  2 44  0.0000000  0  6G25G11G15G22G31G14
  21490435.314   -20552800.77243 -15964421.51342  21490437.877    21490434.622
  22150798.824   -19479386.12143 -15157292.78142  22150801.546    22150797.158
  22947774.654   -11305516.49943  -8796894.08342  22947776.295    22947775.031
  22681092.955   -15660274.26743 -12190319.35242  22681093.943    22681088.568
  23986739.100    -5344540.31943  -3863701.09342  23986741.082    23986740.717
  21008950.737   -21077144.95844 -16405885.80842  21008953.290    21008948.707
 04  3 24  2 44 30.0000000  0  6G25G11G15G22G31G14
  21478049.318   -20617889.20144 -16015139.69742  21478051.885    21478048.674
  22138474.898   -19544148.84643 -15207757.19042  22138477.619    22138473.281
  22968171.504   -11198330.22843  -8713372.30942  22968173.242    22968171.909
  22692122.193   -15602315.33943 -12145156.53142  22692123.161    22692117.811
  24000696.625    -5271192.35543  -3806546.86842  24000698.736    24000698.488
  21019386.385   -21022305.17844 -16363153.49642  21019388.934    21019384.359
 04  3 24  2 45  0.0000000  0  6G25G11G15G22G31G14
  21465742.355   -20682562.53143 -16065534.42942  21465744.940    21465741.685
  22126227.145   -19608511.08143 -15257909.53742  22126229.880    22126225.618
  22988611.924   -11090915.50243  -8629672.54042  22988613.614    22988612.244
  22703179.062   -15544211.06443 -12099880.46242  22703179.995    22703174.681
  24014687.650    -5197669.09743  -3749256.05742  24014689.807    24014689.533
  21029871.951   -20967203.10744 -16320216.79842  21029874.513    21029869.920
 04  3 24  2 45 30.0000000  0  6G25G11G15G22G31G14
  21453516.085   -20746811.71044 -16115598.65842  21453518.665    21453515.389
  22114057.352   -19672463.66543 -15307742.67242  22114060.107    22114055.891
  23009096.724   -10983267.53443  -8545791.02842  23009098.349    23009096.992
  22714264.948   -15485954.27343 -12054485.55442  22714265.875    22714260.518
  24028712.824    -5123966.35043  -3691825.36642  24028714.911    24028714.894
  21040408.403   -20911833.77644 -16277071.85142  21040410.949    21040406.337
 04  3 24  2 46  0.0000000  0  6G25G11G15G22G31G14
  21441370.028   -20810639.42243 -16165334.46842  21441372.553    21441369.319
  22101964.942   -19736009.28543 -15357258.69742  22101967.749    22101963.616
  23029624.516   -10875393.51243  -8461733.37242  23029626.085    23029624.747
  22725379.041   -15427549.56143 -12008975.37642  22725379.916    22725374.495
  24042770.660    -5050092.26543  -3634261.15942  24042772.762    24042772.875
  21050994.379   -20856203.99344 -16233723.94842  21050996.954    21050992.325
 04  3 24  2 46 30.0000000  0  6G25G11G15G22G31G14
  21429305.103   -20874040.76844 -16214738.04442  21429307.646    21429304.366
  22089950.889   -19799143.22043 -15406453.92442  22089953.698    22089949.651
  23050195.287   -10767292.70343  -8377498.97242  23050196.928    23050195.678
  22736521.855   -15368993.85043 -11963347.53842  22736522.770    22736517.203
  24056860.951    -4976046.94443  -3576563.52142  24056863.193    24056863.135
  21061630.019   -20800313.11044 -16190172.60042  21061632.582    21061627.983
 04  3 24  2 47  0.0000000  0  6G25G11G15G22G31G14
  21417321.286   -20937015.95844 -16263809.55442  21417323.831    21417320.491
  22078015.199   -19861865.73843 -15455328.57542  22078017.947    22078013.954
  23070808.474   -10658969.71643  -8293091.47342  23070810.066    23070808.858
  22747692.923   -15310289.43643 -11917603.84142  22747693.835    22747688.236
  24070982.927    -4901835.66743  -3518736.56042  24070985.201    24070984.990
  21072314.561   -20744165.35644 -16146421.08842  21072317.106    21072312.527
 04  3 24  2 47 30.0000000  0  6G25G11G15G22G31G14
  21405419.129   -20999561.75244 -16312546.47442  21405421.686    21405418.357
  22066158.427   -19924173.27543 -15503879.86242  22066161.148    22066157.160
  23091463.877   -10550425.56643  -8208511.63742  23091465.373    23091464.167
  22758892.489   -15251434.82243 -11871743.09242  22758893.418    22758887.918
  24085136.196    -4827460.34043  -3460781.77742  24085138.505    24085138.030
  21083047.874   -20687761.32344 -16102469.87842  21083050.423    21083045.828
 04  3 24  2 48  0.0000000  0  6G25G11G15G22G31G14
  21393598.986   -21061676.69644 -16360947.66942  21393601.506    21393598.245
  22054380.833   -19986064.50143 -15552106.75242  22054383.555    22054379.633
  23112160.895   -10441663.12943  -8123761.70342  23112162.308    23112160.944
  22770120.589   -15192430.30943 -11825765.53942  22770121.536    22770116.145
  24099320.079    -4752924.32243  -3402701.78642  24099322.356    24099321.733
  21093829.497   -20631103.41744 -16058320.84542  21093832.045    21093827.426
 04  3 24  2 48 30.0000000  0  6G25G11G15G22G31G14
  21381861.158   -21123359.41344 -16409012.05742  21381863.655    21381860.348
  22042682.732   -20047538.16043 -15600008.26742  22042685.408    22042681.538
  23132898.633   -10332685.60843  -8038844.16242  23132900.148    23132898.753
  22781377.239   -15133276.50943 -11779671.66742  22781378.143    22781372.750
  24113533.558    -4678231.63143  -3344499.71442  24113535.757    24113535.271
  21104658.886   -20574194.48544 -16013976.20442  21104661.439    21104656.785
 04  3 24  2 49  0.0000000  0  6G25G11G15G22G31G14
  21370206.289   -21184605.89344 -16456736.52042  21370208.842    21370205.452
  22031064.822   -20108590.22643 -15647581.25142  22031067.484    22031063.684
  23153677.080   -10223493.23243  -7953759.20942  23153678.728    23153677.400
  22792662.736   -15073971.37543 -11733459.86642  22792663.622    22792658.107
  24127776.751    -4603383.31143  -3286176.38542  24127778.843    24127778.435
  21115536.076   -20517034.38944 -15969435.85142  21115538.635    21115533.939
 04  3 24  2 49 30.0000000  0  6G25G11G15G22G31G14
  21358635.014   -21245413.10344 -16504118.70142  21358637.564    21358634.112
  22019527.804   -20169217.38043 -15694823.14742  22019530.430    22019526.578
  23174496.356   -10114087.04443  -7868507.64042  23174497.963    23174496.646
  22803977.113   -15014513.37643 -11687128.94742  22803978.111    22803972.562
  24142049.216    -4528381.00143  -3227733.06042  24142051.237    24142050.918
  21126460.888   -20459624.14544 -15924700.58342  21126463.421    21126458.738
 04  3 24  2 50  0.0000000  0  6G25G11G15G22G31G14
  21347147.088   -21305782.50644 -16551159.73642  21347149.590    21347146.127
  22008071.215   -20229421.62143 -15741735.48942  22008073.885    22008069.971
  23195355.318   -10004473.05943  -7783094.17442  23195356.761    23195355.541
  22815320.030   -14954906.06443 -11640681.68042  22815321.037    22815315.455
  24156349.635    -4453231.74543  -3169175.22542  24156351.631    24156351.233
  21137432.182   -20401969.39444 -15879774.78642  21137434.752    21137430.094
 04  3 24  2 50 30.0000000  0  6G25G11G15G22G31G14
  21335742.755   -21365712.50644 -16597858.37542  21335745.273    21335741.811
  21996695.582   -20289200.58043 -15788316.44942  21996698.281    21996694.250
  23216253.350    -9894653.77043  -7697520.70342  23216254.771    23216253.452
  22826691.386   -14895149.39843 -11594118.04242  22826692.370    22826686.800
  24170677.613    -4377938.45343  -3110505.17142  24170679.523    24170679.090
  21148449.698   -20344071.98144 -15834659.90542  21148452.269    21148447.609
 04  3 24  2 51  0.0000000  0  6G25G11G15G22G31G14
  21324422.881   -21425198.53644 -16644211.06442  21324425.421    21324421.966
  21985401.824   -20348549.82543 -15834562.56242  21985404.533    21985400.371
  23237190.460    -9784628.50843  -7611786.74642  23237192.016    23237190.617
  22838091.650   -14835240.33143 -11547435.64842  22838092.671    22838087.112
  24185032.887    -4302501.42843  -3051723.10942  24185034.803    24185034.355
  21159513.531   -20285931.00344 -15789355.23542  21159516.102    21159511.483
 04  3 24  2 51 30.0000000  0  6G25G11G15G22G31G14
  21313188.086   -21484237.56144 -16690215.44442  21313190.595    21313187.107
  21974190.286   -20407466.94243 -15880471.95042  21974193.030    21974188.715
  23258166.334    -9674399.35443  -7525893.91442  23258167.957    23258166.496
  22849521.093   -14775178.06543 -11500633.87742  22849522.062    22849516.577
  24199414.869    -4226923.10743  -2992830.93742  24199416.869    24199416.518
  21170623.418   -20227548.05744 -15743862.01742  21170625.989    21170621.373
 04  3 24  2 52  0.0000000  0  6G25G11G15G22G31G14
  21302038.306   -21542830.09144 -16735871.90042  21302040.784    21302037.254
  21963060.978   -20465951.96443 -15926044.64342  21963063.750    21963059.294
  23279180.228    -9563970.55343  -7439845.50742  23279181.850    23279180.356
  22860979.289   -14714964.88943 -11453714.51242  22860980.206    22860974.749
  24213822.805    -4151208.80543  -2933832.81542  24213824.818    24213824.527
  21181778.634   -20168927.22144 -15698183.42742  21181781.178    21181776.538
 04  3 24  2 52 30.0000000  0  6G25G11G15G22G31G14
  21290973.706   -21600974.40944 -16781179.10842  21290976.243    21290972.698
  21952014.161   -20524003.16643 -15971279.28442  21952016.900    21952012.447
  23300231.711    -9453344.44643  -7353643.36342  23300233.244    23300231.771
  22872466.248   -14654600.50643 -11406677.32042  22872467.184    22872461.655
  24228256.160    -4075361.47943  -2874731.04242  24228258.164    24228257.898
  21192978.709   -20110070.31144 -15652320.88642  21192981.286    21192976.635
 04  3 24  2 53  0.0000000  0  6G25G11G15G22G31G14
  21279995.115   -21658667.09044 -16826134.38642  21279997.644    21279994.077
  21941050.792   -20581616.45743 -16016172.71442  21941053.488    21941048.946
  23321320.540    -9342521.97943  -7267288.21542  23321322.106    23321320.661
  22883982.376   -14594083.11843 -11359520.91042  22883983.261    22883977.695
  24242714.474    -3999382.65843  -2815526.80342  24242716.426    24242716.333
  21204223.573   -20050977.76644 -15606274.73742  21204226.161    21204221.577
 04  3 24  2 53 30.0000000  0  6G25G11G15G22G31G14
  21269102.434   -21715908.15944 -16870737.75942  21269104.972    21269101.375
  21930170.529   -20638792.60043 -16060725.49542  21930173.248    21930168.734
  23342445.936    -9231507.61943  -7180783.52842  23342447.485    23342446.061
  22895527.155   -14533414.91843 -11312246.98342  22895528.093    22895522.495
  24257196.795    -3923277.64743  -2756224.23142  24257198.776    24257198.662
  21215512.549   -19991653.82844 -15560048.27842  21215515.100    21215510.503
 04  3 24  2 54  0.0000000  0  6G25G11G15G22G31G14
  21258296.345   -21772694.13544 -16914986.52142  21258298.892    21258295.315
  21919374.102   -20695527.85243 -16104934.72642  21919376.846    21919372.352
  23363607.737    -9120301.71543  -7094129.60242  23363609.357    23363607.833
  22907100.990   -14472593.84143 -11264853.92142  22907101.969    22907096.348
  24271702.910    -3847047.48843  -2696824.15042  24271704.913    24271704.735
  21226845.524   -19932098.56844 -15513641.56742  21226848.080    21226843.465
 04  3 24  2 54 30.0000000  0  6G25G11G15G22G31G14
  21247577.279   -21829023.01344 -16958879.10042  21247579.804    21247576.253
  21908662.068   -20751819.98243 -16148798.67742  21908664.810    21908660.308
  23384805.454    -9008906.73443  -7007328.32942  23384807.002    23384805.553
  22918704.020   -14411619.50443 -11217341.44142  22918705.014    22918699.336
  24286232.476    -3770695.20843  -2637328.91742  24286234.474    24286234.073
  21238222.192   -19872313.70044 -15467055.94242  21238224.749    21238220.125
 04  3 24  2 55  0.0000000  0  6G25G11G15G22G31G14
  21236945.747   -21884892.00044 -17002413.31542  21236948.264    21236944.687
  21898034.868   -20807666.29543 -16192315.25042  21898037.594    21898033.058
  23406038.885    -8897323.96743  -6920380.74042  23406040.373    23406039.095
  22930336.406   -14350490.80943 -11169708.68742  22930337.412    22930331.730
  24300784.798    -3694222.80743  -2577740.07642  24300786.778    24300786.345
  21249642.365   -19812300.22544 -15420292.18042  21249644.913    21249640.273
 04  3 24  2 55 30.0000000  0  6G25G11G15G22G31G14
  21226401.058   -21940304.44544 -17045591.79742  21226403.606    21226399.951
  21887491.918   -20863069.66543 -16235486.65542  21887494.625    21887490.131
  23427306.914    -8785560.47643  -6833292.33042  23427308.331    23427307.024
  22941997.293   -14289212.57843 -11121959.40742  22941998.258    22941992.531
  24315358.323    -3617638.14843  -2518063.76242  24315360.316    24315359.972
  21261104.777   -19752064.84444 -15373355.50042  21261107.354    21261102.662
 04  3 24  2 56  0.0000000  0  6G25G11G15G22G31G14
  21215944.531   -21995253.54544 -17088409.21142  21215947.097    21215943.438
  21877034.477   -20918023.55543 -16278307.84542  21877037.142    21877032.752
  23448609.738    -8673613.94643  -6746061.28942  23448611.086    23448609.812
  22953687.604   -14227779.68843 -11074089.61842  22953688.549    22953682.757
  24329953.392    -3540939.46143  -2458298.60642  24329955.419    24329955.399
  21272609.958   -19691604.74844 -15326243.72142  21272612.522    21272607.829
 04  3 24  2 56 30.0000000  0  6G25G11G15G22G31G14
  21205576.395   -22049738.35744 -17130864.86142  21205578.958    21205575.287
  21866662.789   -20972526.81943 -16320777.87442  21866665.428    21866661.113
  23469946.766    -8561487.53043  -6658690.07742  23469948.187    23469946.765
  22965407.147   -14166192.89543 -11026099.90242  22965408.112    22965402.362
  24344569.531    -3464130.70543  -2398447.69142  24344571.486    24344571.714
  21284157.409   -19630922.54944 -15278958.87742  21284159.976    21284155.247
 04  3 24  2 57  0.0000000  0  6G25G11G15G22G31G14
  21195296.934   -22103757.30744 -17172957.49742  21195299.475    21195295.803
  21856377.166   -21026578.02643 -16362895.65442  21856379.798    21856375.477
  23491317.342    -8449183.89943  -6571180.77342  23491318.872    23491317.473
  22977155.990   -14104452.49843 -10977990.48842  22977156.936    22977151.235
  24359206.349    -3387215.09343  -2338513.51642  24359208.202    24359208.296
  21295746.696   -19570020.45344 -15231502.68042  21295749.265    21295744.526
 04  3 24  2 57 30.0000000  0  6G25G11G15G22G31G14
  21185106.195   -22157309.89144 -17214686.73242  21185108.754    21185105.039
  21846177.632   -21080176.56143 -16404660.70842  21846180.277    21846175.955
  23512720.945    -8336706.41343  -6483535.99742  23512722.545    23512721.192
  22988933.903   -14042559.26443 -10929761.98542  22988934.844    22988929.158
  24373862.718    -3310196.84643  -2278499.37442  24373864.565    24373864.469
  21307377.187   -19508901.66344 -15183877.63442  21307379.742    21307375.011
 04  3 24  2 58  0.0000000  0  7G25G11G15G22G20G31G14
  21175003.301   -22210400.70144 -17256056.13842  21175005.861    21175002.156
  21836063.355   -21133326.81043 -16446076.44242  21836066.019    21836061.725
  23534156.085    -8224063.76343  -6395762.51342  23534157.660    23534156.327
  23000739.730   -13980519.23043 -10881419.09042  23000740.666    23000734.931
  24706964.804    -4711353.12553  -3168516.55852  24706967.510    24706966.421
  24388536.521    -3233085.04643  -2218412.30142  24388538.644    24388538.387
  21319047.352   -19447574.30244 -15136090.06442  21319049.895    21319045.207
 04  3 24  2 58 30.0000000  0  7G25G11G15G22G20G31G14
  21164991.708   -22263011.66744 -17297051.64442  21164994.276    21164990.573
  21826037.977   -21186010.38943 -16487128.54242  21826040.603    21826036.259
  23555625.348    -8111242.10243  -6307849.55442  23555626.917    23555625.516
  23012576.565   -13918316.11943 -10832949.13342  23012577.530    23012571.724
  24690820.337    -4796192.38843  -3234624.94442  24690823.074    24690822.002
  24403230.729    -3155866.53043  -2158242.10542  24403232.886    24403232.511
  21330760.010   -19386023.81444 -15088128.63142  21330762.524    21330757.842
 04  3 24  2 59  0.0000000  0  7G25G11G15G22G20G31G14
  21155069.837   -22315151.15144 -17337679.75642  21155072.384    21155068.705
  21816099.797   -21238235.80743 -16527823.63242  21816102.426    21816098.006
  23577126.318    -7998253.86843  -6219806.78042  23577127.861    23577126.473
  23024442.490   -13855959.84443 -10784359.83142  23024443.494    23024437.733
  24674669.772    -4881062.87143  -3300757.66142  24674672.573    24674671.611
  24417942.680    -3078554.30943  -2097998.90042  24417944.850    24417944.290
  21342512.866   -19324262.13844 -15040002.62842  21342515.400    21342510.672
 04  3 24  2 59 30.0000000  0  7G25G11G15G22G20G31G14
  21145238.500   -22366815.14944 -17377937.36742  21145241.034    21145237.338
  21806249.567   -21289998.89543 -16568158.46242  21806252.223    21806247.731
  23598658.976    -7885099.04543  -6131634.21942  23598660.609    23598659.222
  23036338.089   -13793448.05943 -10735649.34542  23036339.027    23036333.412
  24658513.824    -4965961.97943  -3366912.69942  24658516.621    24658515.790
  24432672.417    -3001149.23543  -2037683.31142  24432674.494    24432673.960
  21354305.975   -19262288.92544 -14991711.79542  21354308.522    21354303.771
 04  3 24  3  0  0.0000000  0  7G25G11G15G22G20G31G14
  21135497.434   -22418004.47444 -17417825.10442  21135499.970    21135496.254
  21796487.300   -21341299.84143 -16608133.18142  21796489.963    21796485.392
  23620222.366    -7771782.31643  -6043335.46642  23620224.154    23620222.710
  23048262.961   -13730782.35843 -10686818.92142  23048263.928    23048258.351
  24642352.214    -5050891.36943  -3433091.28942  24642354.973    24642354.176
  24447418.946    -2923656.15943  -1977299.17542  24447420.812    24447420.593
  21366138.601   -19200107.88444 -14943259.01942  21366141.156    21366136.430
 04  3 24  3  0 30.0000000  0  7G25G11G15G22G20G31G14
  21125847.209   -22468716.65144 -17457341.03142  21125849.726    21125845.988
  21786813.478   -21392136.00443 -16647745.73142  21786816.135    21786811.540
  23641816.333    -7658304.94343  -5954911.55342  23641818.257    23641816.838
  23060217.353   -13667961.79543 -10637867.82942  23060218.280    23060212.722
  24626184.950    -5135849.56843  -3499292.30642  24626187.814    24626187.135
  24462181.808    -2846077.31643  -1916848.17542  24462183.634    24462183.489
  21378010.572   -19137720.22444 -14894645.24342  21378013.094    21378008.406
 04  3 24  3  1  0.0000000  0  7G25G11G15G22G20G31G14
  21116288.260   -22518949.09044 -17496483.14042  21116290.765    21116287.018
  21777228.552   -21442504.96343 -16686994.21842  21777231.236    21777226.631
  23663440.621    -7544668.36143  -5866363.57942  23663442.632    23663441.201
  23072201.257   -13604985.52943 -10588795.41442  23072202.213    23072196.628
  24610012.464    -5220835.09543  -3565514.63742  24610015.261    24610014.685
  24476960.607    -2768414.84043  -1856332.04742  24476962.274    24476962.240
  21389921.678   -19075126.82844 -14845871.15042  21389924.229    21389919.520
 04  3 24  3  1 30.0000000  0  7G25G11G15G22G20G31G14
  21106820.691   -22568701.44544 -17535251.16242  21106823.166    21106819.403
  21767732.533   -21492406.55743 -16725878.52142  21767735.208    21767730.657
  23685094.530    -7430876.50543  -5777694.62642  23685096.472    23685095.066
  23084214.578   -13541854.85243 -10539602.67842  23084215.547    23084209.875
  24593834.472    -5305849.34043  -3631759.37042  24593837.261    24593836.844
  24491754.303    -2690673.23943  -1795754.23142  24491756.080    24491756.083
  21401871.262   -19012331.26544 -14796939.52842  21401873.797    21401869.112
 04  3 24  3  2  0.0000000  0  7G25G11G15G22G20G31G14
  21097444.751   -22617972.29244 -17573643.98242  21097447.219    21097443.401
  21758325.858   -21541839.08943 -16764397.33142  21758328.500    21758323.887
  23706777.488    -7316931.72643  -5688906.50342  23706779.390    23706778.021
  23096257.327   -13478569.62543 -10490289.51542  23096258.309    23096252.632
  24577651.378    -5390891.88143  -3698026.13042  24577654.018    24577653.627
  24506562.418    -2612855.56243  -1735117.14742  24506564.162    24506564.503
  21413859.012   -18949335.29043 -14747851.73842  21413861.534    21413856.829
 04  3 24  3  2 30.0000000  0  7G25G11G15G22G20G31G14
  21088161.004   -22666758.45044 -17611659.11942  21088163.488    21088159.637
  21749009.078   -21590798.96043 -16802547.83442  21749011.699    21749007.110
  23728489.439    -7202834.76243  -5599999.79842  23728491.218    23728489.942
  23108329.895   -13415127.95343 -10440854.44342  23108330.917    23108325.262
  24561463.483    -5475960.05443  -3764312.85342  24561466.199    24561465.492
  24521384.890    -2534962.96743  -1674421.67842  24521386.599    24521387.162
  21425884.891   -18886138.85443 -14698607.75042  21425887.396    21425882.713
 04  3 24  3  3  0.0000000  0  7G25G11G15G22G20G31G14
  21078969.170   -22715061.75144 -17649298.00442  21078971.646    21078967.801
  21739781.858   -21639287.93343 -16840331.40342  21739784.507    21739779.986
  23750229.053    -7088591.76843  -5510979.29742  23750230.865    23750229.686
  23120431.553   -13351533.39043 -10391300.23842  23120432.545    23120427.022
  24545270.024    -5561057.18443  -3830622.13942  24545272.803    24545271.752
  24536220.680    -2457001.83443  -1613672.80442  24536222.170    24536222.784
  21437947.865   -18822747.51143 -14649211.88442  21437950.368    21437945.702
 04  3 24  3  3 30.0000000  0  7G25G11G15G22G20G31G14
  21069870.433   -22762875.55044 -17686555.46742  21069872.954    21069869.066
  21730645.549   -21687299.24343 -16877742.76042  21730648.180    21730643.768
  23771997.156    -6974199.61743  -5421842.58042  23771998.991    23771997.892
  23132563.331   -13287780.31843 -10341622.50742  23132564.334    23132558.858
  24529071.826    -5646177.50143  -3896949.50142  24529074.534    24529073.558
  24551069.884    -2378970.07143  -1552868.89042  24551071.335    24551071.769
  21450048.563   -18759157.83443 -14599661.47342  21450051.057    21450046.422
 04  3 24  3  4  0.0000000  0  7G25G11G15G22G20G31G14
  21060864.503   -22810201.82144 -17723433.03042  21060867.016    21060863.118
  21721599.791   -21734834.85243 -16914783.44942  21721602.387    21721598.035
  23793792.754    -6859664.23343  -5332594.25342  23793794.472    23793793.267
  23144724.588   -13223872.33643 -10291824.08642  23144725.564    23144720.082
  24512868.734    -5731323.92043  -3963297.20442  24512871.457    24512870.609
  24565931.097    -2300874.04443  -1492014.90642  24565932.836    24565932.917
  21462186.006   -18695374.91443 -14549960.48242  21462188.526    21462183.920
 04  3 24  3  4 30.0000000  0  7G25G11G15G22G20G31G14
  21051951.441   -22857039.98144 -17759930.25542  21051953.964    21051950.061
  21712644.783   -21781893.62143 -16951452.57342  21712647.352    21712643.004
  23815614.933    -6744988.92243  -5243236.89442  23815616.558    23815615.298
  23156915.318   -13159809.88943 -10241905.29442  23156916.283    23156910.735
  24496660.680    -5816496.66543  -4029665.41642  24496663.560    24496662.632
  24580803.692    -2222717.49543  -1431113.76342  24580805.586    24580805.560
  21474359.744   -18631401.15243 -14500110.78842  21474362.290    21474357.731
 04  3 24  3  5  0.0000000  0  7G25G11G15G22G20G31G14
  21043132.490   -22903383.57344 -17796042.09942  21043135.002    21043131.133
  21703781.685   -21828469.09443 -16987745.10742  21703784.279    21703779.979
  23837463.966    -6630170.76143  -5153768.23042  23837465.854    23837464.502
  23169136.353   -13095587.85443 -10191862.16242  23169137.320    23169131.807
  24480448.706    -5901690.36043  -4096049.96142  24480451.572    24480450.687
  24595688.154    -2144498.42743  -1370163.88542  24595690.218    24595690.131
  21486570.346   -18567234.00943 -14450110.40742  21486572.848    21486568.320
 04  3 24  3  5 30.0000000  0  7G25G11G15G22G20G31G14
  21034407.025   -22949236.04444 -17831771.25142  21034409.526    21034405.664
  21695009.898   -21874564.74943 -17023663.75742  21695012.510    21695008.284
  23859338.695    -6515217.29243  -5064194.10842  23859340.824    23859339.444
  23181386.665   -13031211.45343 -10141698.73142  23181387.695    23181382.256
  24464231.968    -5986909.60843  -4162454.41042  24464234.781    24464233.792
  24610583.213    -2066224.84343  -1309171.55842  24610585.207    24610584.977
  21498816.452   -18502880.02043 -14399964.43142  21498818.995    21498814.469
 04  3 24  3  6  0.0000000  0  7G25G11G15G22G20G31G14
  21025775.626   -22994594.18544 -17867115.21242  21025778.117    21025774.236
  21686330.200   -21920176.89243 -17059205.65042  21686332.824    21686328.549
  23881239.233    -6400129.10743  -4974515.03242  23881241.328    23881240.078
  23193666.962   -12966678.44643 -10091413.24442  23193667.959    23193662.463
  24448010.786    -6072151.89543  -4228876.80042  24448013.664    24448012.598
  24625488.360    -1987897.93943  -1248137.65242  24625490.159    24625490.173
  21511098.193   -18438339.01343 -14349672.72442  21511100.727    21511096.165
 04  3 24  3  6 30.0000000  0  7G25G11G15G22G20G31G14
  21017238.084   -23039458.91644 -17902074.69442  21017240.571    21017236.713
  21677742.259   -21965306.75443 -17094371.74142  21677744.895    21677740.546
  23903164.697    -6284911.26343  -4884734.92142  23903166.520    23903165.337
  23205976.550   -12901991.46843 -10041007.80842  23205977.507    23205971.956
  24431784.730    -6157419.36043  -4295318.78342  24431787.669    24431786.530
  24640402.621    -1909523.24543  -1187066.53442  24640404.377    24640404.545
  21523414.672   -18373615.36643 -14299238.69442  21523417.219    21523412.593
 04  3 24  3  7  0.0000000  0  7G25G11G15G22G20G31G14
  21008795.554   -23083824.55144 -17936645.27742  21008798.034    21008794.164
  21669247.306   -22009947.86843 -17129156.98742  21669249.953    21669245.529
  23925115.197    -6169561.40243  -4794851.94542  23925116.980    23925115.712
  23218316.328   -12837145.47143  -9990478.46242  23218317.280    23218311.670
  24415555.106    -6242706.48043  -4361776.07942  24415557.954    24415556.818
  24655326.515    -1831098.81643  -1125956.63942  24655328.213    24655328.372
  21535766.494   -18308706.26343 -14248660.15742  21535769.033    21535764.340
 04  3 24  3  7 30.0000000  0  7G25G11G15G22G20G31G14
  21000447.604   -23127693.06344 -17970828.48842  21000450.083    21000446.251
  21660845.030   -22054102.29143 -17163562.99842  21660847.656    21660843.152
  23947089.683    -6054084.95643  -4704870.31942  23947091.564    23947090.150
  23230685.736   -12772143.83443  -9939827.83142  23230686.669    23230680.984
  24399321.295    -6328016.08043  -4428250.90242  24399324.062    24399322.722
  24670258.631    -1752630.97743  -1064812.93642  24670260.360    24670260.593
  21548152.583   -18243616.89843 -14197941.15742  21548155.121    21548150.419
 04  3 24  3  8  0.0000000  0  7G25G11G15G22G20G31G14
  20992195.298   -23171059.01544 -18004620.09942  20992197.765    20992193.934
  21652536.409   -22097764.47143 -17197585.44542  21652539.059    21652534.456
  23969088.333    -5938480.75643  -4614789.15542  23969090.311    23969088.905
  23243085.555   -12706982.65343  -9889052.88242  23243086.463    23243080.769
  24383083.850    -6413344.04843  -4494740.03042  24383086.629    24383085.230
  24685199.107    -1674118.99143  -1003634.83842  24685200.879    24685201.125
  21560573.352   -18178345.18543 -14147080.07242  21560575.899    21560571.215
 04  3 24  3  8 30.0000000  0  7G25G11G15G22G20G31G14
  20984038.248   -23213924.67644 -18038021.86842  20984040.688    20984036.808
  21644321.075   -22140936.31843 -17231225.81542  21644323.719    21644319.021
  23991110.345    -5822754.66043  -4524613.00342  23991112.224    23991110.930
  23255514.995   -12641665.19443  -9838156.15742  23255515.972    23255510.307
  24366842.243    -6498693.11943  -4561245.59542  24366845.110    24366843.684
  24700146.688    -1595569.05843   -942427.17642  24700148.651    24700148.671
  21573027.837   -18112896.23343 -14096080.87242  21573030.405    21573025.736
 04  3 24  3  9  0.0000000  0  7G25G11G15G22G20G31G14
  20975976.240   -23256290.65844 -18071034.28142  20975978.691    20975974.776
  21636198.886   -22183618.23643 -17264484.41442  21636201.538    21636196.853
  24013154.839    -5706910.84843  -4434345.13042  24013156.425    24013155.396
  23267973.819   -12576192.96643  -9787138.82042  23267974.785    23267969.210
  24350596.423    -6584064.19443  -4627768.31842  24350599.291    24350597.834
  24715100.499    -1516985.91543   -881193.63942  24715102.640    24715102.498
  21585515.438   -18047273.50143 -14044946.26442  21585518.010    21585513.307
 04  3 24  3  9 30.0000000  0  7G25G11G15G22G20G31G14
  20968010.572   -23298150.07644 -18103651.96942  20968013.052    20968009.155
  21628171.438   -22225802.84743 -17297355.51242  21628174.056    21628169.308
  24035222.263    -5590945.92943  -4343982.87842  24035223.539    24035222.852
  23280463.268   -12510560.20643  -9735996.40042  23280464.203    23280458.641
  24334347.629    -6669451.31043  -4694303.51942  24334350.483    24334348.977
  24730061.279    -1438366.66843   -819931.96642  24730063.322    24730063.322
  21598036.868   -17981472.98943 -13993673.12642  21598039.437    21598034.748
 04  3 24  3 10  0.0000000  0  7G25G11G15G22G20G31G14
  20960140.880   -23339505.50344 -18135876.93142  20960143.324    20960139.439
  21620238.038   -22267492.89743 -17329841.23642  21620240.661    21620235.911
  24057311.231    -5474866.45743  -4253531.35542  24057312.657    24057312.173
  23292982.550   -12444771.17743  -9684732.21442  23292983.447    23292977.852
  24318095.142    -6754857.98643  -4760853.97142  24318098.063    24318096.261
  24745027.568    -1359718.59543   -758647.85542  24745029.519    24745029.693
  21610590.944   -17915500.75543 -13942266.18242  21610593.525    21610588.834
 04  3 24  3 10 30.0000000  0  7G25G11G15G22G20G31G14
  20952367.805   -23380353.13444 -18167706.21242  20952370.260    20952366.351
  21612399.511   -22308684.26743 -17361938.37242  21612402.118    21612397.437
  24079422.131    -5358672.35943  -4162990.52242  24079423.705    24079423.092
  23305532.085   -12378823.17243  -9633344.15742  23305533.008    23305527.347
  24301839.569    -6840280.96543  -4827417.15242  24301842.451    24301840.587
  24759999.281    -1281041.85443   -697341.37142  24760001.127    24760001.541
  21623177.825   -17849355.99643 -13890724.80442  21623180.412    21623175.797
 04  3 24  3 11  0.0000000  0  7G25G11G15G22G20G31G14
  20944690.709   -23420696.42944 -18199142.50542  20944693.187    20944689.235
  21604655.355   -22349380.15043 -17393649.41942  21604657.952    21604653.191
  24101553.775    -5242370.57443  -4072365.76742  24101555.364    24101554.599
  23318110.971   -12312720.82843  -9581835.83442  23318111.871    23318106.144
  24285580.028    -6925724.52643  -4893996.35042  24285582.916    24285580.875
  24774974.905    -1202344.12143   -636018.54642  24774976.786    24774977.307
  21635796.415   -17783044.92243 -13839053.82442  21635799.006    21635794.388
 04  3 24  3 11 30.0000000  0  7G25G11G15G22G20G31G14
  20937110.833   -23460528.67544 -18230180.57942  20937113.322    20937109.356
  21597006.724   -22389573.86544 -17424969.17142  21597009.345    21597004.564
  24123706.557    -5125957.88643  -3981654.59242  24123708.085    24123707.010
  23330720.282   -12246458.33743  -9530202.73342  23330721.167    23330715.399
  24269317.800    -7011182.28543  -4960586.66542  24269320.686    24269318.670
  24789955.138    -1123622.89443   -574677.40942  24789957.006    24789957.367
  21648447.319   -17716563.82743 -13787250.36542  21648449.912    21648445.294
 04  3 24  3 12  0.0000000  0  7G25G11G15G22G20G31G14
  20929627.752   -23499852.35944 -18260822.36942  20929630.207    20929626.238
  21589453.209   -22429267.37943 -17455899.14542  21589455.822    21589451.121
  24145879.154    -5009440.25543  -3890861.66742  24145880.744    24145879.505
  23343359.459   -12180039.02843  -9478447.42442  23343360.311    23343354.593
  24253052.302    -7096656.98243  -5027190.14442  24253055.251    24253053.197
  24804938.802    -1044884.21843   -513322.69142  24804940.713    24804940.828
  21661129.588   -17649917.85643 -13735318.43142  21661132.214    21661127.567
 04  3 24  3 12 30.0000000  0  7G25G11G15G22G20G31G14
  20922242.142   -23538664.07044 -18291065.22342  20922244.614    20922240.577
  21581995.641   -22468456.90443 -17486436.39442  21581998.271    21581993.627
  24168071.572    -4892818.07643  -3799987.26042  24168073.264    24168071.980
  23356028.949   -12113460.69943  -9426568.20542  23356029.816    23356024.094
  24236784.053    -7182145.90343  -5093804.72042  24236786.974    24236785.110
  24819925.317     -966128.97943   -451955.07542  24819927.292    24819927.657
  21673843.384   -17583106.52043 -13683257.63342  21673845.975    21673841.276
 04  3 24  3 13  0.0000000  0  7G25G11G15G22G20G31G14
  20914953.941   -23576963.78544 -18320909.11442  20914956.423    20914952.352
  21574634.092   -22507142.48043 -17516580.96942  21574636.731    21574631.982
  24190282.985    -4776095.15743  -3709034.35442  24190284.977    24190283.673
  23368728.334   -12046724.70143  -9374566.13842  23368729.254    23368723.531
  24220512.972    -7267649.92343  -5160431.11242  24220515.900    24220514.018
  24834914.298     -887361.28943   -390577.75242  24834916.225    24834916.729
  21686588.106   -17516132.75243 -13631070.26842  21686590.692    21686585.920
 04  3 24  3 13 30.0000000  0  7G25G11G15G22G20G31G14
  20907763.277   -23614750.81844 -18350353.51342  20907765.750    20907761.658
  21567368.573   -22545323.09043 -17546332.06342  21567371.226    21567366.394
  24212513.136    -4659273.89543  -3618004.80742  24212515.295    24212514.014
  23381457.710   -11979831.24343  -9322441.35442  23381458.622    23381452.970
  24204239.093    -7353168.46943  -5227068.77342  24204241.993    24204240.190
  24849905.234     -808584.44543   -329193.28742  24849907.062    24849907.440
  21699363.323   -17448998.63443 -13578757.95442  21699365.933    21699361.063
 04  3 24  3 14  0.0000000  0  7G25G11G15G22G20G31G14
  20900670.629   -23652022.67144 -18379396.47742  20900673.103    20900669.019
  21560199.654   -22582995.74643 -17575687.34342  21560202.316    21560197.453
  24234762.112    -4542355.13043  -3526899.27642  24234764.255    24234762.948
  23394217.466   -11912778.38743  -9270192.38942  23394218.390    23394212.712
  24187963.033    -7438699.25343  -5293715.99242  24187965.918    24187964.120
  24864897.559     -729799.42743   -267802.45042  24864899.567    24864899.808
  21712169.052   -17381704.13343 -13526320.66542  21712171.672    21712166.781
 04  3 24  3 14 30.0000000  0  7G25G11G15G22G20G31G14
  20893676.131   -23688778.82244 -18408037.59242  20893678.604    20893674.522
  21553127.547   -22620159.98343 -17604646.45942  21553130.181    21553125.288
  24257029.233    -4425342.19843  -3435720.39042  24257031.190    24257029.784
  23407007.403   -11845567.15843  -9217820.01742  23407008.319    23407002.621
  24171684.602    -7524242.35043  -5360372.80842  24171687.616    24171685.783
  24879890.703     -651010.19843   -206408.31342  24879892.740    24879892.924
  21725004.783   -17314251.85843 -13473760.43842  21725007.424    21725002.531
 04  3 24  3 15  0.0000000  0  7G25G11G15G22G20G31G14
  20886779.595   -23725020.12044 -18436277.52542  20886782.080    20886778.013
  21546152.057   -22656816.34143 -17633209.82742  21546154.710    21546149.746
  24279313.476    -4308239.08243  -3344471.24142  24279315.172    24279313.782
  23419826.939   -11778199.46143  -9165325.70942  23419827.942    23419822.293
  24155403.691    -7609799.21143  -5427040.36542  24155406.744    24155404.729
  24894883.793     -572221.44043   -145014.54742  24894885.725    24894885.971
  21737869.838   -17246645.48343 -13421080.13642  21737872.462    21737867.617
 04  3 24  3 15 30.0000000  0  7G25G11G15G22G20G31G14
  20879981.781   -23760742.68044 -18464113.24742  20879984.244    20879980.185
  21539274.037   -22692960.50743 -17661374.08342  21539276.664    21539271.694
  24301614.712    -4191045.42343  -3253151.52142  24301616.555    24301614.862
  23432677.015   -11710671.88643  -9112706.82742  23432677.958    23432672.392
  24139120.829    -7695365.78943  -5493715.50542  24139123.898    24139121.785
  24909876.710     -493432.98543    -83621.03242  24909878.614    24909879.001
  21750764.493   -17178883.54743 -13368278.61942  21750767.101    21750762.268
 04  3 24  3 16  0.0000000  0  7G25G11G15G22G20G31G14
  20873282.686   -23795946.31044 -18491544.60842  20873285.143    20873281.107
  21532493.504   -22728592.26544 -17689139.06442  21532496.147    21532491.164
  24323932.469    -4073764.38443  -3161763.73442  24323934.335    24323932.723
  23445557.446   -11642985.47543  -9059964.18442  23445558.330    23445552.673
  24122835.899    -7780942.62543  -5560398.64342  24122838.924    24122836.975
  24924868.776     -414648.70843    -22230.75942  24924870.513    24924871.268
  21763688.242   -17110968.62943 -13315357.89042  21763690.824    21763686.017
 04  3 24  3 16 30.0000000  0  7G25G11G15G22G20G31G14
  20866682.460   -23830630.58244 -18518571.27242  20866684.917    20866680.889
  21525810.616   -22763710.91044 -17716504.21642  21525813.231    21525808.300
  24346266.267    -3956398.86943  -3070310.11942  24346268.166    24346266.534
  23458467.795   -11575140.77143  -9007098.18142  23458468.750    23458463.171
  24106549.099    -7866529.40843  -5627089.54442  24106551.904    24106550.275
  24939859.546     -335871.73743     39153.81842  24939861.368    24939862.216
  21776640.709   -17042902.67843 -13262319.48042  21776643.293    21776638.504
 04  3 24  3 17  0.0000000  0  6G25G11G15G22G20G14
  20860183.486   -23864782.75544 -18545183.31942  20860185.950    20860181.931
  21519227.880   -22798303.13643 -17743459.17542  21519230.460    21519225.622
  24368617.925    -3838939.58943  -2978783.41542  24368619.839    24368618.311
  23471410.590   -11507125.81743  -8954099.51442  23471411.527    23471406.002
  24090262.807    -7952113.73443  -5693778.51842  24090265.416    24090263.910
  21789623.886   -16974675.72843 -13209155.61242  21789626.427    21789621.636
 04  3 24  3 17 30.0000000  0  6G25G11G15G22G20G14
  20853781.721   -23898424.23044 -18571397.41542  20853784.164    20853780.122
  21512741.316   -22832390.00343 -17770020.34842  21512743.849    21512739.092
  24390982.675    -3721411.43043  -2887203.03442  24390984.637    24390983.282
  23484381.610   -11438962.79443  -8900985.49342  23484382.503    23484377.007
  24073972.991    -8037716.97543  -5760482.24142  24073975.404    24073974.038
  21802633.056   -16906311.79443 -13155885.00142  21802635.637    21802630.832
 04  3 24  3 18  0.0000000  0  6G25G11G15G22G20G14
  20847479.183   -23931544.29744 -18597205.22342  20847481.633    20847477.550
  21506352.979   -22865960.65043 -17796179.27142  21506355.515    21506350.869
  24413362.081    -3603806.89343  -2795563.14842  24413364.020    24413362.757
  23497382.679   -11370642.02643  -8847748.53742  23497383.506    23497378.062
  24057681.478    -8123329.05643  -5827192.86442  24057683.827    24057682.511
  21815669.892   -16837802.75343 -13102501.31842  21815672.495    21815667.667
 04  3 24  3 18 30.0000000  0  6G25G11G15G22G20G14
  20841276.399   -23964140.14044 -18622604.54742  20841278.832    20841274.743
  21500063.475   -22899012.24643 -17821933.74342  21500065.990    21500061.378
  24435756.037    -3486126.61743  -2703864.26942  24435757.905    24435756.672
  23510414.006   -11302161.58943  -8794387.17742  23510414.963    23510409.540
  24041388.856    -8208947.15343  -5893908.17042  24041391.216    24041389.782
  21828734.456   -16769148.24143 -13049004.28942  21828737.006    21828732.188
 04  3 24  3 19  0.0000000  0  7G25G11G15G22G 1G20G14
  20835170.746   -23996225.47544 -18647606.07042  20835173.191    20835169.078
  21493870.142   -22931558.22643 -17847294.22742  21493872.659    21493868.023
  24458161.256    -3368387.67843  -2612119.68142  24458162.922    24458161.821
  23523473.047   -11233536.18943  -8740912.83942  23523473.996    23523468.586
  24598097.573    -5000337.00253  -3888748.90152  24598101.243    24598101.487
  24025092.531    -8294585.04643  -5960638.89542  24025094.826    24025093.280
  21841823.522   -16700364.48243 -12995406.54342  21841826.104    21841821.276
 04  3 24  3 19 30.0000000  0  7G25G11G15G22G 1G20G14
  20829168.389   -24027768.09744 -18672184.70542  20829170.815    20829166.683
  21487779.228   -22963565.93043 -17872235.27742  21487781.763    21487777.132
  24480583.188    -3250560.71343  -2520306.50342  24480584.741    24480583.652
  23536565.574   -11164734.27543  -8687300.96742  23536566.527    23536561.157
  24582287.433    -5083417.26143  -3953486.41542  24582291.084    24582291.400
  24008798.472    -8380210.54043  -6027359.96342  24008800.722    24008799.130
  21854942.859   -16631421.77943 -12941684.94542  21854945.435    21854940.628
 04  3 24  3 20  0.0000000  0  7G25G11G15G22G 1G20G14
  20823265.350   -24058788.49844 -18696356.41142  20823267.801    20823263.672
  21481786.962   -22995055.57344 -17896772.64142  21481789.533    21481784.858
  24503017.269    -3132669.55243  -2428443.27442  24503018.720    24503017.537
  23549687.614   -11095777.14743  -8633568.14142  23549688.567    23549683.122
  24566506.783    -5166341.97943  -4018102.73942  24566510.157    24566510.871
  23992502.856    -8465844.27843  -6094087.45542  23992505.068    23992503.459
  21868088.102   -16562343.08643 -12887857.38342  21868090.662    21868085.827
 04  3 24  3 20 30.0000000  0  7G25G11G15G22G 1G20G14
  20817462.733   -24089281.22744 -18720116.94542  20817465.202    20817461.061
  21475894.376   -23026021.29244 -17920901.74842  21475896.943    21475892.300
  24525463.857    -3014711.78743  -2336528.11242  24525465.507    24525464.026
  23562840.219   -11026659.89243  -8579710.56142  23562841.149    23562835.681
  24550757.304    -5249105.61343  -4082593.48442  24550760.489    24550761.237
  23976206.701    -8551480.69543  -6160817.03542  23976208.915    23976207.152
  21881259.860   -16493124.96343 -12833921.17042  21881262.422    21881257.595
 04  3 24  3 21  0.0000000  0  7G25G11G15G22G 1G20G14
  20811760.444   -24119246.89344 -18743466.78442  20811762.894    20811758.757
  21470101.393   -23056463.59344 -17944622.99342  21470103.972    21470099.294
  24547922.368    -2896691.42743  -2244564.21542  24547923.949    24547922.540
  23576023.102   -10957384.30143  -8525729.58742  23576023.986    23576018.463
  24535038.134    -5331709.67843  -4146959.91442  24535041.428    24535041.911
  23959909.948    -8637120.57043  -6227549.28642  23959912.175    23959910.276
  21894457.529   -16423770.81243 -12779878.97442  21894460.071    21894455.274
 04  3 24  3 21 30.0000000  0  7G25G11G15G22G 1G20G14
  20806158.850   -24148683.25044 -18766404.17142  20806161.316    20806157.164
  21464408.452   -23086380.10844 -17967934.53742  21464411.050    21464406.303
  24570392.422    -2778609.61243  -2152552.43842  24570394.242    24570392.674
  23589236.304   -10887948.56243  -8471623.81642  23589237.214    23589231.672
  24519349.104    -5414152.04543  -4211200.36842  24519352.608    24519353.269
  23943613.018    -8722761.79043  -6294282.61242  23943615.332    23943613.194
  21907681.052   -16354280.65143 -12725730.79442  21907683.561    21907678.850
 04  3 24  3 22  0.0000000  0  7G25G11G15G22G 1G20G14
  20800657.915   -24177590.74344 -18788929.46342  20800660.401    20800656.184
  21458815.701   -23115770.56244 -17990836.17242  21458818.263    21458813.407
  24592873.657    -2660469.47643  -2060495.23842  24592875.489    24592874.032
  23602479.697   -10818353.98743  -8417394.30842  23602480.558    23602474.999
  24503691.033    -5496433.36443  -4275315.33242  24503694.257    24503695.201
  23927315.800    -8808404.52943  -6361017.10442  23927318.142    23927315.891
  21920930.023   -16284657.00143 -12671478.59542  21920932.518    21920927.817
 04  3 24  3 22 30.0000000  0  6G25G11G22G 1G20G14
  20795258.498   -24205964.66144 -18811038.97442  20795260.996    20795256.778
  21453323.842   -23144630.17944 -18013324.15442  21453326.422    21453321.554
  23615754.102   -10748596.58543  -8363037.89442  23615754.907    23615749.392
  24488064.942    -5578549.21843  -4339301.37042  24488067.896    24488068.717
  23911019.178    -8894043.93343  -6427748.98942  23911021.612    23911019.216
  21934204.785   -16214897.55043 -12617120.57742  21934207.286    21934202.610
 04  3 24  3 23  0.0000000  0  6G25G11G22G 1G20G14
  20789959.530   -24233810.87044 -18832737.28542  20789962.001    20789957.801
  21447931.955   -23172964.67144 -18035402.95642  21447934.518    21447929.611
  23629058.198   -10678683.14243  -8308559.91342  23629059.028    23629053.410
  24472468.849    -5660506.01443  -4403163.49642  24472471.971    24472472.570
  23894721.998    -8979685.88343  -6494482.87142  23894724.570    23894722.052
  21947503.811   -16145010.69143 -12562663.27842  21947506.328    21947501.614
 04  3 24  3 23 30.0000000  0  6G25G11G22G 1G20G14
  20784761.479   -24261126.71444 -18854022.32642  20784763.947    20784759.720
  21442640.661   -23200770.76043 -18057070.02042  21442643.218    21442638.207
  23642392.447   -10608611.53343  -8253958.67442  23642393.307    23642387.633
  24456903.438    -5742301.02243  -4466899.56942  24456906.612    24456907.060
  23878424.856    -9065327.81443  -6561216.73042  23878427.336    23878424.941
  21960827.257   -16074995.63543 -12508106.08542  21960829.789    21960825.023
 04  3 24  3 24  0.0000000  0  6G25G11G22G 1G20G14
  20779664.767   -24287909.99244 -18874892.38142  20779667.222    20779662.974
  21437450.277   -23228046.04643 -18078323.46842  21437452.838    21437447.881
  23655757.094   -10538379.95643  -8199232.79542  23655757.974    23655752.320
  24441369.404    -5823932.23143  -4530508.00342  24441372.436    24441372.772
  23862128.204    -9150967.03043  -6627948.46842  23862130.710    23862128.209
  21974175.050   -16004852.40843 -12453449.02042  21974177.603    21974172.812
 04  3 24  3 24 30.0000000  0  6G25G11G22G 1G20G14
  20774669.510   -24314160.10244 -18895346.98042  20774671.958    20774667.710
  21432361.102   -23254789.45443 -18099162.46042  21432363.634    21432358.819
  23669152.090   -10467988.58543  -8144382.38742  23669153.005    23669147.376
  24425866.583    -5905399.44343  -4593988.66842  24425869.470    24425869.693
  23845832.242    -9236602.83343  -6694677.57142  23845834.701    23845832.099
  21987547.003   -15934582.51143 -12398693.24842  21987549.533    21987544.723
 04  3 24  3 25  0.0000000  0  6G25G11G22G 1G20G14
  20769775.522   -24339878.17044 -18915387.00242  20769777.970    20769773.704
  21427372.966   -23281002.08843 -18119587.87042  21427375.467    21427370.682
  23682577.168   -10397439.28043  -8089408.92342  23682578.092    23682572.375
  24410394.755    -5986704.17643  -4657342.75842  24410397.645    24410397.616
  23829536.705    -9322236.16943  -6761404.74142  23829539.154    23829536.435
  22000942.311   -15864189.55843 -12343841.59042  22000944.880    22000940.038
 04  3 24  3 25 30.0000000  0  6G25G11G22G 1G20G14
  20764983.501   -24365060.22844 -18935009.35542  20764985.951    20764981.694
  21422486.703   -23306679.40544 -18139596.14842  21422489.208    21422484.417
  23696032.998   -10326728.59443  -8034309.70542  23696033.889    23696028.170
  24394954.517    -6067842.39743  -4720567.10342  24394957.486    24394957.278
  23813242.485    -9407862.32343  -6828126.32642  23813244.967    23813242.125
  22014361.478   -15793671.27243 -12288892.27542  22014364.048    22014359.253
 04  3 24  3 26  0.0000000  0  6G25G11G22G 1G20G14
  20760292.950   -24389709.10944 -18954216.24842  20760295.391    20760291.121
  21417701.813   -23331824.33944 -18159189.58642  21417704.327    21417699.470
  23709518.750   -10255860.28743  -7979087.66542  23709519.653    23709514.070
  24379545.489    -6148817.74643  -4783664.50542  24379548.533    24379547.834
  23796949.031    -9493484.74843  -6894845.00742  23796951.474    23796948.519
  22027803.430   -15723033.11943 -12233849.55142  22027806.021    22027801.246
 04  3 24  3 26 30.0000000  0  6G25G11G22G 1G20G14
  20755704.566   -24413821.08144 -18973004.76742  20755707.000    20755702.747
  21413018.941   -23356432.93044 -18178365.08942  21413021.479    21413016.654
  23723035.222   -10184830.84143  -7923740.05642  23723036.086    23723030.685
  24364167.953    -6229626.07443  -4846631.79942  24364171.081    24364170.386
  23780657.195    -9579098.91543  -6961557.26942  23780659.692    23780656.543
  22041268.647   -15652272.99543 -12178711.78442  22041271.224    22041266.439
 04  3 24  3 27  0.0000000  0  6G25G11G22G 1G20G14
  20751217.881   -24437398.71744 -18991376.92542  20751220.300    20751216.058
  21408437.891   -23380506.65244 -18197123.81142  21408440.468    21408435.618
  23736581.767   -10113643.40643  -7868269.33142  23736582.653    23736577.195
  24348821.830    -6310269.80643  -4909470.86142  24348824.788    24348824.386
  23764366.609    -9664706.79243  -7028264.62542  23764369.085    23764365.690
  22054756.254   -15581395.25643 -12123482.37242  22054758.839    22054754.009
 04  3 24  3 27 30.0000000  0  6G25G11G22G 1G20G14
  20746833.427   -24460438.90444 -19009330.28942  20746835.866    20746831.627
  21403959.131   -23404042.78344 -18215463.62842  21403961.696    21403956.821
  23750158.807   -10042295.74843  -7812673.78242  23750159.699    23750154.059
  24333507.528    -6390746.27243  -4972179.57142  24333510.426    24333510.139
  23748077.778    -9750305.33343  -7094964.73342  23748080.277    23748076.743
  22068266.368   -15510399.11043 -12068160.68942  22068268.958    22068264.100
 04  3 24  3 28  0.0000000  0  6G25G11G22G 1G20G14
  20742551.110   -24482942.66644 -19026865.66242  20742553.523    20742549.264
  21399582.668   -23427041.42344 -18233384.62542  21399585.240    21399580.257
  23763766.065    -9970788.89543  -7756954.17342  23763767.027    23763761.274
  24318224.931    -6471056.35343  -5034758.62842  24318227.846    24318227.466
  23731790.621    -9835894.72443  -7161657.69342  23731793.115    23731789.552
  22081798.486   -15439287.33243 -12012748.90942  22081801.089    22081796.182
 04  3 24  3 28 30.0000000  0  6G25G11G22G 1G20G14
  20738370.869   -24504909.88644 -19043982.94742  20738373.277    20738369.021
  21395308.372   -23449502.90544 -18250887.05542  21395310.975    21395305.976
  23777403.505    -9899123.65443  -7701111.14242  23777404.432    23777398.807
  24302973.806    -6551200.47743  -5097208.39242  24302976.865    24302976.318
  23715505.195    -9921474.96743  -7228343.50742  23715507.737    23715504.022
  22095352.169   -15368062.14043 -11957248.74942  22095354.756    22095349.870
 04  3 24  3 29  0.0000000  0  6G25G11G22G 1G20G14
  20734292.847   -24526339.83844 -19060681.58442  20734295.282    20734291.009
  21391136.647   -23471425.47544 -18267969.55642  21391139.242    21391134.261
  23791071.207    -9827299.25743  -7645144.10042  23791072.088    23791066.613
  24287754.513    -6631177.53743  -5159527.95942  24287757.562    24287756.951
  23699221.847   -10007044.23743  -7295020.81742  23699224.359    23699220.569
  22108927.339   -15296724.15143 -11901660.70342  22108929.930    22108925.006
 04  3 24  3 29 30.0000000  0  6G25G11G22G 1G20G14
  20730317.664   -24547229.66044 -19076959.33842  20730320.065    20730315.751
  21387067.983   -23492806.19844 -18284629.84242  21387070.556    21387065.656
  23804769.571    -9755313.72643  -7589051.49042  23804770.442    23804765.011
  24272567.240    -6710985.16743  -5221715.49542  24272570.390    24272569.852
  23682941.185   -10092599.33643  -7361687.06942  23682943.702    23682939.733
  22122524.122   -15225272.59843 -11845984.16342  22122526.692    22122521.754
 04  3 24  3 30  0.0000000  0  6G25G11G22G 1G20G14
  20726444.679   -24567582.04644 -19092818.31442  20726447.130    20726442.791
  21383101.989   -23513647.06544 -18300869.45242  21383104.561    21383099.746
  23818498.151    -9683170.29743  -7532835.85442  23818498.970    23818493.483
  24257411.919    -6790626.01843  -5283773.12342  24257414.964    24257414.627
  23666662.894   -10178142.47143  -7428343.97642  23666665.362    23666661.146
  22136141.599   -15153712.14743 -11790222.76442  22136144.164    22136139.220
 04  3 24  3 30 30.0000000  0  6G25G11G22G 1G20G14
  20722674.107   -24587396.35344 -19108258.00542  20722676.540    20722672.200
  21379238.888   -23533947.80644 -18316688.19242  21379241.442    21379236.588
  23832256.778    -9610868.50943  -7476496.82742  23832257.693    23832252.086
  24242288.339    -6870099.44943  -5345700.28842  24242291.302    24242291.099
  23650386.968   -10263672.49543  -7494990.66542  23650389.507    23650384.985
  22149779.651   -15082043.64343 -11734377.16942  22149782.213    22149777.261
 04  3 24  3 31  0.0000000  0  6G25G11G22G 1G20G14
  20719006.373   -24606670.32244 -19123276.65242  20719008.823    20719004.459
  21375479.078   -23553705.53244 -18332083.80442  21375481.644    21375476.782
  23846045.718    -9538406.69943  -7420033.08442  23846046.701    23846041.043
  24227197.385    -6949403.27743  -5407495.25942  24227200.304    24227199.588
  23634114.171   -10349186.52543  -7561624.91742  23634116.690    23634112.037
  22163438.297   -15010266.74243 -11678447.11342  22163440.873    22163435.939
 04  3 24  3 31 30.0000000  0  6G25G11G22G 1G20G14
  20715441.123   -24625405.67044 -19137875.59942  20715443.562    20715439.237
  21371822.301   -23572921.71144 -18347057.42542  21371824.886    21371820.048
  23859864.821    -9465786.97343  -7363446.32242  23859865.713    23859860.053
  24212138.210    -7028539.16443  -5469159.39642  24212141.378    24212140.042
  23617844.233   -10434685.53243  -7628247.43742  23617846.744    23617842.040
  22177116.956   -14938385.01443 -11622435.36542  22177119.503    22177114.556
 04  3 24  3 32  0.0000000  0  6G25G11G22G 1G20G14
  20711978.914   -24643599.70844 -19152052.74542  20711981.332    20711977.011
  21368269.283   -23591593.03144 -18361606.48342  21368271.850    21368266.992
  23873714.490    -9393006.79443  -7306734.50442  23873715.333    23873709.733
  24197111.343    -7107504.29543  -5530690.46942  24197114.914    24197113.099
  23601577.811   -10520166.09743  -7694855.59342  23601580.201    23601575.617
  22190815.699   -14866397.26143 -11566341.00542  22190818.318    22190813.396
 04  3 24  3 32 30.0000000  0  6G25G11G22G 1G20G14
  20708619.506   -24661253.20644 -19165808.69242  20708621.938    20708617.617
  21364819.810   -23609720.35444 -18375731.64742  21364822.397    21364817.429
  23887594.369    -9320067.73143  -7249898.89942  23887595.288    23887589.636
  24182116.571    -7186299.70143  -5592089.34442  24182119.889    24182118.366
  23585314.696   -10605628.74143  -7761449.79942  23585317.079    23585312.610
  22204534.152   -14794306.26643 -11510166.19742  22204536.760    22204531.815
 04  3 24  3 33  0.0000000  0  6G25G11G22G 1G20G14
  20705363.460   -24678363.94944 -19179141.70942  20705365.880    20705361.523
  21361474.396   -23627300.60944 -18389430.52342  21361477.004    21361471.967
  23901504.953    -9246967.53743  -7192937.73142  23901505.876    23901500.234
  24167154.744    -7264923.04943  -5653354.10442  24167157.674    24167156.722
  23569055.704   -10691070.19643  -7828027.49342  23569058.094    23569053.725
  22218272.443   -14722111.09743 -11453910.21542  22218275.031    22218270.095
 04  3 24  3 33 30.0000000  0  6G25G11G22G 1G20G14
  20702209.363   -24694938.59844 -19192056.99542  20702211.830    20702207.454
  21358231.808   -23644340.68444 -18402708.48242  21358234.415    21358229.276
  23915444.659    -9173713.48243  -7135856.67242  23915445.595    23915440.008
  24152224.676    -7343380.92643  -5714489.94142  24152227.434    24152226.395
  23552799.546   -10776496.20243  -7894593.13142  23552801.939    23552797.809
  22232028.924   -14649820.16043 -11397579.60742  22232031.513    22232026.622
 04  3 24  3 34  0.0000000  0  6G25G11G22G 1G20G14
  20699158.478   -24710971.03544 -19204549.78142  20699160.928    20699156.568
  21355093.211   -23660833.86844 -18415560.28742  21355095.840    21355090.705
  23929414.890    -9100299.52943  -7078651.02542  23929415.780    23929410.244
  24137327.412    -7421667.06343  -5775491.93842  24137330.182    24137328.747
  23536547.635   -10861900.14443  -7961141.58942  23536549.947    23536546.087
  22245804.565   -14577428.73343 -11341170.70042  22245807.133    22245802.258
 04  3 24  3 34 30.0000000  0  6G25G11G22G 1G20G14
  20696211.021   -24726459.92944 -19216619.02342  20696213.476    20696209.100
  21352059.067   -23676778.35444 -18427984.53942  21352061.682    21352056.565
  23943415.700    -9026724.62343  -7021319.94142  23943416.540    23943411.098
  24122462.870    -7499779.94343  -5836358.94642  24122465.762    24122464.095
  23520300.286   -10947279.55343  -8027670.91042  23520302.621    23520299.018
  22259599.243   -14504937.08943 -11284683.69442  22259601.820    22259596.941
 04  3 24  3 35  0.0000000  0  6G25G11G22G 1G20G14
  20693366.098   -24741409.98644 -19228268.39342  20693368.525    20693364.163
  21349128.516   -23692178.66744 -18439984.75942  21349131.108    21349125.950
  23957446.337    -8952993.81443  -6963867.39142  23957447.154    23957441.670
  24107630.289    -7577724.42443  -5897094.74242  24107633.142    24107631.640
  23504056.882   -11032638.42543  -8094184.23442  23504059.193    23504055.818
  22273411.840   -14432351.50443 -11228123.50042  22273414.416    22273409.510
 04  3 24  3 35 30.0000000  0  6G25G11G22G 1G20G14
  20690624.504   -24755817.15344 -19239494.73442  20690626.908    20690622.536
  21346302.372   -23707030.03844 -18451557.23742  21346304.972    21346299.803
  23971507.280    -8879103.07143  -6906290.22242  23971508.129    23971502.641
  24092830.691    -7655495.92343  -5957695.74542  24092833.448    24092832.297
  23487818.410   -11117971.61843  -8160677.55442  23487820.744    23487817.462
  22287242.821   -14359669.13543 -11171487.88742  22287245.362    22287240.508
 04  3 24  3 36  0.0000000  0  6G25G11G22G 1G20G14
  20687985.956   -24769682.74744 -19250299.06842  20687988.374    20687983.988
  21343580.377   -23721334.03844 -18462703.19042  21343582.966    21343577.800
  23985598.205    -8805054.35343  -6848589.92142  23985598.997    23985593.625
  24078063.842    -7733096.02443  -6018163.20742  24078066.606    24078065.533
  23471584.779   -11203279.82943  -8227151.38942  23471587.070    23471583.807
  22301091.636   -14286893.20743 -11114779.36242  22301094.172    22301089.272
 04  3 24  3 36 30.0000000  0  6G25G11G22G 1G20G14
  20685450.267   -24783007.82044 -19260682.22342  20685452.660    20685448.312
  21340962.448   -23735091.17644 -18473423.02142  21340965.044    21340959.888
  23999719.074    -8730848.76543  -6790767.43642  23999719.897    23999714.396
  24063329.182    -7810525.54643  -6078497.72742  24063331.917    24063330.916
  23455355.808   -11288563.15943  -8293605.83642  23455358.174    23455354.874
  22314957.762   -14214026.02943 -11057999.74442  22314960.323    22314955.412
 04  3 24  3 37  0.0000000  0  6G25G11G22G 1G20G14
  20683018.156   -24795788.51944 -19270641.18642  20683020.574    20683016.198
  21338449.473   -23748297.03344 -18483713.28242  21338452.063    21338446.948
  24013870.600    -8656482.45143  -6732819.69442  24013871.447    24013865.855
  24048628.010    -7887780.31843  -6138696.09842  24048630.568    24048629.662
  23439132.457   -11373816.85043  -8360037.18342  23439134.845    23439131.502
  22328841.777   -14141065.07843 -11001147.04442  22328844.336    22328839.415
 04  3 24  3 37 30.0000000  0  6G25G11G22G 1G20G14
  20680688.722   -24808029.70344 -19280179.74842  20680691.131    20680686.742
  21336040.489   -23760956.21444 -18493577.55942  21336043.107    21336038.012
  24028051.722    -8581960.59543  -6674750.73242  24028052.534    24028046.984
  24033959.166    -7964864.93443  -6198761.90242  24033961.794    24033960.893
  23422913.977   -11459044.30643  -8426448.08042  23422916.424    23422913.092
  22342742.484   -14068016.40743 -10944225.99342  22342745.059    22342740.142
 04  3 24  3 38  0.0000000  0  6G25G11G22G 1G20G14
  20678462.669   -24819727.67644 -19289295.03142  20678465.073    20678460.674
  21333736.263   -23773064.69444 -18503012.72042  21333738.881    21333733.838
  24042262.896    -8507279.71643  -6616557.87642  24042263.771    24042258.399
  24019323.573    -8041775.68543  -6258692.20242  24019326.224    24019325.186
  23406701.452   -11544240.86243  -8492834.91042  23406703.866    23406700.591
  22356660.327   -13994877.78943 -10887234.85742  22356662.893    22356657.981
 04  3 24  3 38 30.0000000  0  6G25G11G22G 1G20G14
  20676339.684   -24830883.79144 -19297988.08542  20676342.112    20676337.700
  21331536.653   -23784623.62644 -18512019.66342  21331539.236    21331534.204
  24056504.020    -8432441.18843  -6558242.15742  24056504.922    24056499.675
  24004720.782    -8118513.68843  -6318487.88942  24004723.577    24004722.287
  23390494.737   -11629406.86943  -8559197.93642  23390497.092    23390493.917
  22370594.831   -13921651.80343 -10830175.63442  22370597.363    22370592.428
 04  3 24  3 39  0.0000000  0  6G25G11G22G 1G20G14
  20674320.044   -24841497.16044 -19306258.21942  20674322.458    20674318.031
  21329441.885   -23795631.75344 -18520597.40742  21329444.483    21329439.371
  24070775.439    -8357444.54743  -6499803.26442  24070776.246    24070770.939
  23990150.975    -8195078.08143  -6378148.32442  23990153.679    23990152.390
  23374294.163   -11714540.53043  -8625535.75342  23374296.449    23374293.438
  22384545.760   -13848339.03043 -10773048.78742  22384548.330    22384543.413
 04  3 24  3 39 30.0000000  0  6G25G11G22G 1G20G14
  20672403.518   -24851568.47144 -19314105.97242  20672405.949    20672401.510
  21327451.875   -23806089.26644 -18528746.10442  21327454.496    21327449.362
  24085076.913    -8282290.41143  -6441241.62842  24085077.703    24085072.208
  23975614.063    -8271469.13643  -6437673.69642  23975616.589    23975615.459
  23358099.905   -11799641.50843  -8691848.10942  23358102.141    23358099.154
  22398512.843   -13774941.41643 -10715855.83042  22398515.401    22398510.515
 04  3 24  3 40  0.0000000  0  6G25G11G22G 1G20G14
  20670589.591   -24861100.58744 -19321533.57542  20670592.012    20670587.586
  21325566.094   -23815998.91544 -18536467.89042  21325568.706    21325563.618
  24099407.661    -8206981.92543  -6382559.72642  24099408.461    24099402.953
  23961109.844    -8347689.39843  -6497065.95742  23961112.315    23961111.042
  23341911.568   -11884711.32443  -8758136.18542  23341913.766    23341910.865
  22412495.288   -13701462.93743 -10658599.86742  22412497.815    22412493.028
 04  3 24  3 40 30.0000000  0  6G25G11G22G 1G20G14
  20668879.192   -24870088.71144 -19328537.28642  20668881.610    20668877.172
  21323785.545   -23825355.63344 -18543758.81942  21323788.142    21323783.079
  24113768.724    -8131514.26543  -6323753.78042  24113769.459    24113764.107
  23946639.128    -8423733.74643  -6556321.15542  23946641.696    23946640.112
  23325730.350   -11969743.80643  -8824395.17742  23325732.572    23325729.651
  22426493.833   -13627899.77643 -10601277.92042  22426496.340    22426491.612
 04  3 24  3 41  0.0000000  0  6G25G11G22G 1G20G14
  20667272.427   -24878531.97644 -19335116.42842  20667274.864    20667270.439
  21322110.449   -23834158.27844 -18550618.00842  21322113.030    21322107.926
  24128160.281    -8055886.70543  -6264823.26642  24128161.018    24128155.663
  23932201.850    -8499601.17143  -6615438.47542  23932204.436    23932202.841
  23309556.622   -12054737.31243  -8890623.79942  23309558.856    23309555.794
  22440508.354   -13554252.55043 -10543890.46642  22440510.872    22440506.166
 04  3 24  3 41 30.0000000  0  6G25G11G22G 1G20G14
  20665768.184   -24886436.89044 -19341276.08042  20665770.595    20665766.189
  21320539.745   -23842412.56344 -18557049.90942  21320542.329    21320537.118
  24142580.983    -7980105.54143  -6205773.03442  24142581.810    24142576.295
  23917797.074    -8575297.64043  -6674422.60342  23917799.546    23917798.176
  23293389.506   -12139696.30043  -8956825.53342  23293391.818    23293388.603
  22454537.514   -13480528.55743 -10486443.20142  22454540.048    22454535.332
 04  3 24  3 42  0.0000000  0  6G25G11G22G 1G20G14
  20664366.660   -24893801.60844 -19347014.80442  20664369.090    20664364.737
  21319073.653   -23850116.35644 -18563052.85242  21319076.259    21319071.105
  24157031.379    -7904168.99843  -6146601.75042  24157032.183    24157026.530
  23903425.519    -8650820.99243  -6733271.79042  23903427.947    23903426.376
  23277229.491   -12224618.03343  -9022998.22042  23277231.918    23277228.525
  22468581.426   -13406727.14043 -10428935.59842  22468583.992    22468579.254
 04  3 24  3 42 30.0000000  0  6G25G11G22G 1G20G14
  20663068.320   -24900624.31444 -19352331.17642  20663070.745    20663066.369
  21317712.686   -23857267.94444 -18568625.50242  21317715.283    21317710.222
  24171511.377    -7828075.71643  -6087308.33042  24171512.220    24171506.716
  23889087.322    -8726169.33643  -6791984.64242  23889089.795    23889087.874
  23261077.104   -12309499.63143  -9089139.64642  23261079.557    23261076.062
  22482640.284   -13332847.64243 -10371367.15942  22482642.836    22482638.022
 04  3 24  3 43  0.0000000  0  6G25G11G22G 1G20G14
  20661873.317   -24906904.08544 -19357224.48142  20661875.759    20661871.340
  21316457.196   -23863865.70944 -18573766.60942  21316459.737    21316454.728
  24186021.699    -7751824.27943  -6027891.65242  24186022.503    24186016.902
  23874782.540    -8801341.05143  -6850559.86942  23874785.077    23874783.144
  23244932.843   -12394338.36043  -9155247.66142  23244935.351    23244931.718
  22496713.977   -13258889.95943 -10313737.79042  22496716.574    22496711.644
 04  3 24  3 43 30.0000000  0  6G25G11G22G 1G20G14
  20660781.240   -24912642.86044 -19361696.22942  20660783.674    20660779.243
  21315306.827   -23869910.95044 -18578477.17942  21315309.385    21315304.345
  24200561.576    -7675416.94943  -5968353.51942  24200562.430    24200556.649
  23860510.897    -8876337.94343  -6908998.88042  23860513.360    23860511.523
  23228796.611   -12479135.01043  -9221322.90042  23228799.104    23228795.374
  22510802.021   -13184857.06143 -10256049.80442  22510804.645    22510799.633
 04  3 24  3 44  0.0000000  0  6G25G11G22G 1G20G14
  20659792.326   -24917839.51044 -19365745.54942  20659794.745    20659790.339
  21314261.648   -23875402.89944 -18582756.60942  21314264.255    21314259.214
  24215131.197    -7598852.44043  -5908692.90242  24215131.994    24215126.425
  23846272.984    -8951158.61843  -6967300.60242  23846275.324    23846273.240
  23212668.830   -12563886.90743  -9287363.25042  23212671.363    23212667.551
  22524904.370   -13110748.82943 -10198303.12642  22524906.991    22524901.948
 04  3 24  3 44 30.0000000  0  6G25G11G22G 1G20G14
  20658905.962   -24922497.24044 -19369374.93142  20658908.383    20658903.975
  21313321.406   -23880344.07144 -18586606.86542  21313323.992    21313318.948
  24229730.205    -7522133.97143  -5848912.29842  24229730.907    24229725.764
  23832068.066    -9025805.78143  -7025467.07942  23832070.471    23832068.131
  23196549.159   -12648595.92543  -9353370.20542  23196551.709    23196547.820
  22539020.273   -13036569.36243 -10140500.93642  22539022.940    22539017.821
 04  3 24  3 45  0.0000000  0  6G25G11G22G 1G20G14
  20658122.670   -24926613.41444 -19372582.32242  20658125.101    20658120.644
  21312486.554   -23884731.63644 -18590025.74142  21312489.143    21312484.035
  24244359.128    -7445258.88943  -5789009.68442  24244359.804    24244354.697
  23817896.689    -9100276.40243  -7083496.03642  23817899.242    23817896.651
  23180438.429   -12733258.10943  -9419340.65642  23180440.908    23180437.040
  22553150.038   -12962317.06443 -10082641.99942  22553152.730    22553147.610
 04  3 24  3 45 30.0000000  0  6G25G11G22G 1G20G14
  20657442.348   -24930188.34344 -19375367.96342  20657444.786    20657440.332
  21311756.981   -23888565.45144 -18593013.12242  21311759.605    21311754.495
  24259017.853    -7368227.19243  -5728985.02242  24259018.563    24259013.190
  23803758.769    -9174570.16343  -7141387.15742  23803761.465    23803758.980
  23164336.840   -12817872.08343  -9485273.55242  23164339.278    23164335.444
  22567293.511   -12887992.72843 -10024726.92542  22567296.192    22567291.057
 04  3 24  3 46  0.0000000  0  6G25G11G22G 1G20G14
  20656864.743   -24933223.75044 -19377733.20142  20656867.159    20656862.695
  21311132.519   -23891847.04544 -18595570.20542  21311135.155    21311130.024
  24273706.030    -7291040.61143  -5668839.64742  24273706.632    24273701.222
  23789654.223    -9248688.66043  -7199141.72342  23789657.028    23789654.722
  23148244.382   -12902438.14643  -9551169.11042  23148246.696    23148242.949
  22581450.102   -12813599.31843  -9966758.03542  22581452.732    22581447.724
 04  3 24  3 46 30.0000000  0  6G25G11G22G 1G20G14
  20656389.605   -24935720.61644 -19379678.79142  20656392.041    20656387.555
  21310612.980   -23894577.33744 -18597697.69642  21310615.636    21310610.501
  24288423.317    -7213700.37243  -5608574.55442  24288424.122    24288418.837
  23775582.991    -9322632.48143  -7256760.19242  23775585.716    23775583.635
  23132161.117   -12986955.78143  -9617026.92942  23132163.362    23132159.653
  22595619.463   -12739138.72643  -9908736.79642  22595622.106    22595617.092
 04  3 24  3 47  0.0000000  0  6G25G11G22G 1G20G14
  20656017.533   -24937675.94444 -19381202.40742  20656019.951    20656015.455
  21310199.049   -23896752.70444 -18599392.78242  21310201.706    21310196.545
  24303170.710    -7136202.95543  -5548186.99242  24303171.472    24303166.315
  23761545.885    -9396397.80043  -7314239.55042  23761548.468    23761546.382
  23116087.985   -13071420.11443  -9682843.22042  23116090.174    23116086.451
  22609802.072   -12664608.44843  -9850661.25042  22609804.736    22609799.742
 04  3 24  3 47 30.0000000  0  6G25G11G22G 1G20G14
  20655747.029   -24939097.56844 -19382310.15242  20655749.433    20655744.895
  21309889.315   -23898380.33844 -18600661.06342  21309891.961    21309886.772
  24317946.409    -7058556.05143  -5487682.93542  24317947.173    24317942.087
  23747541.358    -9469991.90843  -7371585.50742  23747543.870    23747541.858
  23100023.824   -13155837.18043  -9748622.67842  23100025.972    23100022.309
  22623996.259   -12590017.11743  -9792538.13042  22623998.905    22623994.018
 04  3 24  3 48  0.0000000  0  6G25G11G22G 1G20G14
  20655579.660   -24939977.05344 -19382995.44842  20655582.065    20655577.521
  21309685.397   -23899451.79544 -18601495.95842  21309688.037    21309682.874
  24332752.261    -6980751.25343  -5427055.84542  24332753.007    24332747.578
  23733571.246    -9543405.98643  -7428791.20342  23733573.712    23733571.602
  23083970.528   -13240197.22443  -9814357.70242  23083972.695    23083968.976
  22638203.650   -12515357.00543  -9734361.42242  22638206.228    22638201.372
 04  3 24  3 48 30.0000000  0  6G25G11G22G 1G20G14
  20655514.564   -24940319.10244 -19383261.96742  20655516.978    20655512.397
  21309586.443   -23899971.66344 -18601901.04242  21309589.066    21309583.968
  24347587.328    -6902793.13643  -5366309.30242  24347587.990    24347582.516
  23719634.507    -9616644.33843  -7485859.97542  23719636.968    23719634.663
  23067927.458   -13324503.43843  -9880050.79042  23067929.609    23067925.940
  22652423.033   -12440633.53843  -9676135.34542  22652425.608    22652420.776
 04  3 24  3 49  0.0000000  0  6G25G11G22G 1G20G14
  20655551.824   -24940123.24644 -19383109.33542  20655554.260    20655549.644
  21309592.628   -23899938.90744 -18601875.50842  21309595.244    21309590.168
  24362451.560    -6824680.85643  -5305442.63942  24362452.220    24362446.877
  23705731.306    -9689705.68043  -7542790.81942  23705733.778    23705731.408
  23051895.205   -13408753.13043  -9945699.82642  23051897.338    23051893.688
  22666654.521   -12365846.64643  -9617859.84442  22666657.068    22666652.254
 04  3 24  3 49 30.0000000  0  6G25G11G22G 1G20G14
  20655691.343   -24939389.93844 -19382537.91542  20655693.758    20655689.168
  21309704.116   -23899353.33344 -18601419.21242  21309706.678    21309701.578
  24377345.298    -6746414.49043  -5244455.87942  24377345.978    24377340.501
  23691861.947    -9762589.91943  -7599583.67842  23691864.425    23691862.028
  23035873.949   -13492944.87043 -10011303.70542  23035876.113    23035872.537
  22680897.827   -12290997.51743  -9559535.84442  22680900.448    22680895.573
 04  3 24  3 50  0.0000000  0  6G25G11G22G 1G20G14
  20655932.404   -24938122.97644 -19381550.65642  20655934.841    20655930.233
  21309920.115   -23898218.12544 -18600534.62342  21309922.684    21309917.571
  24392267.624    -6667997.58443  -5183351.83242  24392268.341    24392262.727
  23678025.515    -9835300.31643  -7656241.05442  23678028.117    23678025.731
  23019863.311   -13577080.73643 -10076864.05742  23019865.469    23019861.976
  22695152.245   -12216090.39243  -9501166.65242  22695154.896    22695149.950
 04  3 24  3 50 30.0000000  0  6G25G11G22G 1G20G14
  20656276.114   -24936316.83244 -19380143.25642  20656278.514    20656273.908
  21310241.631   -23896528.59744 -18599218.10342  21310244.195    21310239.024
  24407219.450    -6589424.58243  -5122126.16142  24407220.170    24407214.821
  23664223.385    -9907830.96243  -7712758.39642  23664225.939    23664223.387
  23003864.666   -13661153.58043 -10142375.29942  23003866.767    23003863.487
  22709418.591   -12141120.38143  -9442748.46442  22709421.236    22709416.251
